[[{"header":{"parameterUnit":"m.s-1","parameterCategory":1,"la1":31.0,"la2":29.5877,"lo1":-88.7671,"lo2":-86.6584,"dx":0.0162,"dy":0.0185,"nx":115,"ny":88,"refTime":"2022-11-05T06:00:00:Z","depth":0,"parameterNumber":2,"parameterNumberName":"U-component_of_WINDS"},"data":[0.0,0.0,0.0,0.0,0.0,0.0,0.0,0.0,0.0,0.0,0.0,0.0,0.0,0.0,0.0,0.0,0.0,0.0,0.0,0.0,0.0,0.0,0.0,0.0,0.0,0.0,0.0,0.0,0.0,0.0,0.0,0.0,0.0,0.0,0.0,0.0,0.0,0.0,0.0,0.0,0.0,0.0,0.0,0.0,0.0,0.0,0.0,0.0,0.0,0.0,0.0,0.0,0.0,0.0,0.0,0.0,0.0,0.0,0.0,0.0,0.0,0.0,0.0,0.0,0.0,0.0,0.0,0.0,0.0,0.0,0.0,0.0,0.0,0.0,0.0,0.0,0.0,0.0,0.0,0.0,0.0,0.0,0.0,0.0,0.0,0.0,0.0,0.0,0.0,0.0,0.0,0.0,0.0,0.0,0.0,0.0,0.0,0.0,0.0,0.0,0.0,0.0,0.0,0.0,0.0,0.0,0.0,0.0,0.0,0.0,0.0,0.0,0.0,0.0,0.0,0.0,0.0,0.0,0.0,0.0,0.0,0.0,0.0,0.0,0.0,0.0,0.0,0.0,0.0,0.0,0.0,0.0,0.0,0.0,0.0,0.0,0.0,0.0,0.0,0.0,0.0,0.0,0.0,0.0,0.0,0.0,0.0,0.0,0.0,0.0,0.0,0.0,0.0,0.0,0.0,0.0,0.0,0.0,0.0,0.0,0.0,0.0,0.0,0.0,0.0,0.0,0.0,0.0,0.0,0.0,0.0,0.0,0.0,0.0,0.0,0.0,0.0,0.0,0.0,0.0,0.0,0.0,0.0,0.0,0.0,0.0,0.0,0.0,0.0,0.0,0.0,0.0,0.0,0.0,0.0,0.0,0.0,0.0,0.0,0.0,0.0,0.0,0.0,0.0,0.0,0.0,0.0,0.0,0.0,0.0,0.0,0.0,0.0,0.0,0.0,0.0,0.0,0.0,0.0,0.0,0.0,0.0,0.0,0.0,0.0,0.0,0.0,0.0,0.0,0.0,0.0,0.0,0.0,0.0,0.0,0.0,0.0,0.0,0.0,0.0,0.0,0.0,0.0,0.0,0.0,0.0,0.0,0.0,0.0,0.0,0.0,0.0,0.0,0.0,0.0,0.0,0.0,0.0,0.0,0.0,0.0,0.0,0.0,0.0,0.0,0.0,0.0,0.0,0.0,0.0,0.0,0.0,0.0,0.0,0.0,0.0,0.0,0.0,0.0,0.0,0.0,0.0,0.0,0.0,0.0,0.0,0.0,0.0,0.0,0.0,0.0,0.0,0.0,0.0,0.0,0.0,0.0,0.0,0.0,0.0,0.0,0.0,0.0,0.0,0.0,0.0,0.0,0.0,0.0,0.0,0.0,0.0,0.0,0.0,0.0,0.0,0.0,0.0,0.0,0.0,0.0,0.0,0.0,0.0,0.0,0.0,0.0,0.0,0.0,0.0,0.0,0.0,0.0,0.0,0.0,0.0,0.0,0.0,0.0,0.0,0.0,0.0,0.0,0.0,0.0,0.0,0.0,0.0,0.0,0.0,0.0,0.0,0.0,0.0,0.0,0.0,0.0,0.0,0.0,0.0,0.0,0.0,0.0,0.0,0.0,0.0,0.0,0.0,0.0,0.0,0.0,0.0,0.0,0.0,0.0,0.0,0.0,0.0,0.0,0.0,0.0,0.0,0.0,0.0,0.0,0.0,0.0,0.0,0.0,0.0,0.0,0.0,0.0,0.0,0.0,0.0,0.0,0.0,0.0,0.0,0.0,0.0,0.0,0.0,0.0,0.0,0.0,0.0,0.0,0.0,0.0,0.0,0.0,0.0,0.0,0.0,0.0,0.0,0.0,0.0,0.0,0.0,0.0,0.0,0.0,0.0,0.0,0.0,0.0,0.0,0.0,0.0,0.0,0.0,0.0,0.0,0.0,0.0,0.0,0.0,0.0,0.0,0.0,0.0,0.0,0.0,0.0,0.0,0.0,0.0,0.0,0.0,0.0,0.0,0.0,0.0,0.0,0.0,0.0,0.0,0.0,0.0,0.0,0.0,0.0,0.0,0.0,0.0,0.0,0.0,0.0,0.0,0.0,0.0,0.0,0.0,0.0,0.0,0.0,0.0,0.0,0.0,0.0,0.0,0.0,0.0,0.0,0.0,0.0,0.0,0.0,0.0,0.0,0.0,0.0,0.0,0.0,0.0,0.0,0.0,0.0,0.0,0.0,0.0,0.0,0.0,0.0,0.0,0.0,0.0,0.0,0.0,0.0,0.0,0.0,0.0,0.0,0.0,0.0,0.0,0.0,0.0,0.0,0.0,0.0,0.0,0.0,0.0,0.0,0.0,0.0,0.0,0.0,0.0,0.0,0.0,0.0,0.0,0.0,0.0,0.0,0.0,0.0,0.0,0.0,0.0,0.0,0.0,0.0,0.0,0.0,0.0,0.0,0.0,0.0,0.0,0.0,0.0,0.0,0.0,0.0,0.0,0.0,0.0,0.0,0.0,0.0,0.0,0.0,0.0,0.0,0.0,0.0,0.0,0.0,0.0,0.0,0.0,0.0,0.0,0.0,0.0,0.0,0.0,0.0,0.0,0.0,0.0,0.0,0.0,0.0,0.0,0.0,0.0,0.0,0.0,0.0,0.0,0.0,0.0,0.0,0.0,0.0,0.0,0.0,0.0,0.0,0.0,0.0,0.0,0.0,0.0,0.0,0.0,0.0,0.0,0.0,0.0,0.0,0.0,0.0,0.0,0.0,0.0,0.0,0.0,0.0,0.0,0.0,0.0,0.0,0.0,0.0,0.0,0.0,0.0,0.0,0.0,0.0,0.0,0.0,0.0,0.0,0.0,0.0,0.0,0.0,0.0,0.0,0.0,0.0,0.0,0.0,0.0,0.0,0.0,0.0,0.0,0.0,0.0,0.0,0.0,0.0,0.0,0.0,0.0,0.0,0.0,0.0,0.0,0.0,0.0,0.0,0.0,0.0,0.0,0.0,0.0,0.0,0.0,0.0,0.0,0.0,0.0,0.0,0.0,0.0,0.0,0.0,0.0,0.0,0.0,0.0,0.0,0.0,0.0,0.0,0.0,0.0,0.0,0.0,0.0,0.0,0.0,0.0,0.0,0.0,0.0,0.0,0.0,0.0,0.0,0.0,0.0,0.0,0.0,0.0,0.0,0.0,0.0,0.0,0.0,0.0,0.0,0.0,0.0,0.0,0.0,0.0,0.0,0.0,0.0,0.0,0.0,0.0,0.0,0.0,0.0,0.0,0.0,0.0,0.0,0.0,0.0,0.0,0.0,0.0,0.0,0.0,0.0,0.0,0.0,0.0,0.0,0.0,0.0,0.0,0.0,0.0,0.0,0.0,0.0,0.0,0.0,0.0,0.0,0.0,0.0,0.0,0.0,0.0,0.0,0.0,0.0,0.0,0.0,0.0,0.0,0.0,0.0,0.0,0.0,0.0,0.0,0.0,0.0,0.0,0.0,0.0,0.0,0.0,0.0,0.0,0.0,0.0,0.0,0.0,0.0,0.0,0.0,0.0,0.0,0.0,0.0,0.0,0.0,0.0,0.0,0.0,0.0,0.0,0.0,0.0,0.0,0.0,0.0,0.0,0.0,0.0,0.0,0.0,0.0,0.0,0.0,0.0,0.0,0.0,0.0,0.0,0.0,0.0,0.0,0.0,0.0,0.0,0.0,0.0,0.0,0.0,0.0,0.0,0.0,0.0,0.0,0.0,0.0,0.0,0.0,0.0,0.0,0.0,0.0,0.0,0.0,0.0,0.0,0.0,0.0,0.0,0.0,0.0,0.0,0.0,0.0,0.0,0.0,0.0,0.0,0.0,0.0,0.0,0.0,0.0,0.0,0.0,0.0,0.0,0.0,0.0,0.0,0.0,0.0,0.0,0.0,0.0,0.0,0.0,0.0,0.0,0.0,0.0,0.0,0.0,0.0,0.0,0.0,0.0,0.0,0.0,0.0,0.0,0.0,0.0,0.0,0.0,0.0,0.0,0.0,0.0,0.0,0.0,0.0,0.0,0.0,0.0,0.0,0.0,0.0,0.0,0.0,0.0,0.0,0.0,0.0,0.0,0.0,0.0,0.0,0.0,0.0,0.0,0.0,0.0,0.0,0.0,0.0,0.0,0.0,0.0,0.0,0.0,0.0,0.0,0.0,0.0,0.0,0.0,0.0,0.0,0.0,0.0,0.0,0.0,0.0,0.0,0.0,0.0,0.0,0.0,0.0,0.0,0.0,1.9359,0.0,0.0,0.0,1.8217,0.0,0.0,0.0,0.0,0.0,0.0,0.0,0.0,0.0,0.0,0.0,0.0,0.0,0.0,0.0,0.0,0.0,0.0,0.0,0.0,0.0,0.0,0.0,0.0,0.0,0.0,0.0,0.0,0.0,0.0,0.0,0.0,0.0,0.0,0.0,0.0,0.0,0.0,0.0,0.0,0.0,0.0,0.0,0.0,0.0,0.0,0.0,0.0,0.0,0.0,0.0,0.0,0.0,0.0,0.0,0.0,0.0,0.0,0.0,0.0,0.0,0.0,0.0,0.0,0.0,0.0,0.0,0.0,0.0,0.0,0.0,0.0,0.0,0.0,0.0,0.0,0.0,0.0,0.0,0.0,0.0,0.0,0.0,0.0,0.0,0.0,0.0,0.0,0.0,0.0,0.0,0.0,0.0,0.0,0.0,0.0,0.0,0.0,0.0,0.0,0.0,0.0,0.0,0.0,0.0,0.0,0.0,0.0,0.0,0.0,1.9685,1.9447,1.9434,1.9334,1.9058,0.0,0.0,0.0,0.0,0.0,0.0,0.0,0.0,0.0,0.0,0.0,0.0,0.0,0.0,0.0,0.0,0.0,0.0,0.0,0.0,0.0,0.0,0.0,0.0,0.0,0.0,0.0,0.0,0.0,0.0,0.0,0.0,0.0,0.0,0.0,0.0,0.0,0.0,0.0,0.0,0.0,0.0,0.0,0.0,0.0,0.0,0.0,0.0,0.0,0.0,0.0,0.0,0.0,0.0,0.0,0.0,0.0,0.0,0.0,0.0,0.0,0.0,0.0,0.0,0.0,0.0,0.0,0.0,0.0,0.0,0.0,0.0,0.0,0.0,0.0,0.0,0.0,0.0,0.0,0.0,0.0,0.0,0.0,0.0,0.0,0.0,0.0,0.0,0.0,0.0,0.0,0.0,0.0,0.0,0.0,0.0,0.0,0.0,0.0,0.0,0.0,0.0,0.0,0.0,0.0,0.0,0.0,0.0,0.0,0.0,0.0,0.0,1.9824,1.9736,1.9597,0.0,0.0,0.0,0.0,0.0,0.0,0.0,0.0,0.0,0.0,0.0,0.0,0.0,0.0,0.0,0.0,0.0,0.0,0.0,0.0,0.0,0.0,0.0,0.0,0.0,0.0,0.0,0.0,0.0,0.0,0.0,0.0,0.0,0.0,0.0,0.0,0.0,0.0,0.0,0.0,0.0,0.0,0.0,0.0,0.0,0.0,0.0,0.0,0.0,0.0,0.0,0.0,0.0,0.0,0.0,0.0,0.0,0.0,0.0,0.0,0.0,0.0,0.0,0.0,0.0,0.0,0.0,0.0,0.0,0.0,0.0,0.0,0.0,0.0,0.0,0.0,0.0,0.0,0.0,0.0,0.0,0.0,0.0,0.0,0.0,0.0,0.0,0.0,0.0,0.0,0.0,0.0,0.0,0.0,0.0,0.0,0.0,0.0,0.0,0.0,0.0,0.0,0.0,0.0,0.0,0.0,0.0,0.0,0.0,0.0,1.9824,1.9824,1.9824,0.0,1.9083,0.0,0.0,0.0,0.0,0.0,0.0,0.0,0.0,0.0,0.0,0.0,0.0,0.0,0.0,0.0,0.0,0.0,0.0,0.0,0.0,0.0,0.0,0.0,0.0,0.0,0.0,0.0,0.0,0.0,0.0,0.0,0.0,0.0,0.0,0.0,0.0,0.0,0.0,0.0,0.0,0.0,0.0,0.0,0.0,0.0,0.0,0.0,0.0,0.0,0.0,0.0,0.0,0.0,0.0,0.0,0.0,0.0,0.0,0.0,0.0,0.0,0.0,0.0,0.0,0.0,0.0,0.0,0.0,0.0,0.0,0.0,0.0,0.0,0.0,0.0,0.0,0.0,0.0,0.0,0.0,0.0,0.0,0.0,0.0,0.0,0.0,0.0,0.0,0.0,0.0,0.0,0.0,0.0,0.0,0.0,0.0,0.0,0.0,0.0,0.0,0.0,0.0,0.0,0.0,0.0,0.0,0.0,0.0,0.0,0.0,1.9824,1.9824,1.9824,1.971,0.0,0.0,0.0,0.0,0.0,0.0,0.0,0.0,0.0,0.0,0.0,0.0,0.0,0.0,0.0,0.0,0.0,0.0,0.0,0.0,0.0,0.0,0.0,0.0,0.0,0.0,0.0,0.0,0.0,0.0,0.0,0.0,0.0,0.0,0.0,0.0,0.0,0.0,0.0,0.0,0.0,0.0,0.0,0.0,0.0,0.0,0.0,0.0,0.0,0.0,0.0,0.0,0.0,0.0,0.0,0.0,0.0,0.0,0.0,0.0,0.0,0.0,0.0,0.0,0.0,0.0,0.0,0.0,0.0,0.0,0.0,0.0,0.0,0.0,0.0,0.0,0.0,0.0,0.0,0.0,0.0,0.0,0.0,0.0,0.0,0.0,0.0,0.0,0.0,0.0,0.0,0.0,0.0,0.0,0.0,0.0,0.0,0.0,0.0,0.0,0.0,0.0,0.0,0.0,0.0,0.0,0.0,0.0,0.0,0.0,1.9824,1.9824,1.9824,1.9824,1.9824,1.9824,0.0,0.0,0.0,0.0,0.0,0.0,0.0,0.0,0.0,0.0,0.0,0.0,0.0,0.0,0.0,0.0,0.0,0.0,0.0,0.0,0.0,0.0,0.0,0.0,0.0,0.0,0.0,0.0,0.0,0.0,0.0,0.0,0.0,0.0,0.0,0.0,0.0,0.0,0.0,0.0,0.0,0.0,0.0,0.0,0.0,0.0,0.0,0.0,0.0,0.0,0.0,0.0,0.0,0.0,0.0,0.0,0.0,0.0,0.0,0.0,0.0,0.0,0.0,0.0,0.0,0.0,0.0,0.0,0.0,0.0,0.0,0.0,0.0,0.0,0.0,0.0,0.0,0.0,0.0,0.0,0.0,0.0,0.0,0.0,0.0,0.0,0.0,0.0,0.0,0.0,0.0,0.0,0.0,0.0,0.0,0.0,0.0,0.0,0.0,0.0,0.0,0.0,0.0,0.0,0.0,0.0,0.0,0.0,1.9786,1.9811,1.9811,1.9824,1.9811,1.9811,0.0,0.0,0.0,0.0,0.0,0.0,0.0,0.0,0.0,0.0,0.0,0.0,0.0,0.0,0.0,0.0,0.0,0.0,0.0,0.0,0.0,0.0,0.0,0.0,0.0,0.0,0.0,0.0,0.0,0.0,0.0,0.0,0.0,0.0,0.0,0.0,0.0,0.0,0.0,0.0,0.0,0.0,0.0,0.0,0.0,0.0,0.0,0.0,0.0,0.0,0.0,0.0,0.0,0.0,0.0,0.0,0.0,0.0,0.0,0.0,0.0,0.0,0.0,0.0,0.0,0.0,0.0,0.0,0.0,0.0,0.0,0.0,0.0,0.0,0.0,0.0,0.0,0.0,0.0,0.0,0.0,0.0,0.0,0.0,0.0,0.0,0.0,0.0,0.0,0.0,0.0,0.0,0.0,0.0,0.0,0.0,0.0,0.0,0.0,0.0,0.0,0.0,0.0,0.0,0.0,0.0,0.0,0.0,0.0,1.9786,2.0175,2.039,2.0376,2.0376,2.0201,0.0,0.0,0.0,0.0,0.0,0.0,0.0,0.0,0.0,0.0,0.0,0.0,0.0,0.0,0.0,0.0,0.0,0.0,0.0,0.0,0.0,0.0,0.0,0.0,0.0,0.0,0.0,0.0,0.0,0.0,0.0,0.0,0.0,0.0,0.0,0.0,0.0,0.0,0.0,0.0,0.0,0.0,0.0,0.0,0.0,0.0,0.0,0.0,0.0,0.0,0.0,0.0,0.0,0.0,0.0,0.0,0.0,0.0,0.0,0.0,0.0,0.0,0.0,0.0,0.0,0.0,0.0,0.0,0.0,0.0,0.0,0.0,0.0,0.0,0.0,0.0,0.0,0.0,0.0,0.0,0.0,0.0,0.0,0.0,0.0,0.0,0.0,0.0,0.0,0.0,0.0,0.0,0.0,0.0,0.0,0.0,0.0,0.0,0.0,0.0,0.0,0.0,0.0,0.0,0.0,0.0,0.0,0.0,0.0,2.0075,2.0653,2.0954,2.0943,2.0805,2.0515,0.0,0.0,0.0,0.0,0.0,0.0,0.0,0.0,0.0,0.0,0.0,0.0,0.0,0.0,0.0,0.0,0.0,0.0,0.0,0.0,0.0,0.0,0.0,0.0,0.0,0.0,0.0,0.0,0.0,0.0,0.0,0.0,0.0,0.0,0.0,0.0,0.0,0.0,0.0,0.0,0.0,0.0,0.0,0.0,0.0,0.0,0.0,0.0,0.0,0.0,0.0,0.0,0.0,0.0,0.0,0.0,0.0,0.0,0.0,0.0,0.0,0.0,0.0,0.0,0.0,0.0,0.0,0.0,0.0,0.0,0.0,0.0,0.0,0.0,0.0,0.0,0.0,0.0,0.0,0.0,0.0,0.0,0.0,0.0,0.0,0.0,0.0,0.0,0.0,0.0,0.0,0.0,0.0,0.0,0.0,0.0,0.0,0.0,0.0,0.0,0.0,0.0,0.0,0.0,0.0,0.0,0.0,0.0,2.0112,2.0691,2.1231,2.1507,2.1507,2.1018,2.0705,0.0,0.0,0.0,0.0,0.0,0.0,0.0,0.0,0.0,0.0,0.0,0.0,0.0,0.0,0.0,0.0,0.0,0.0,0.0,0.0,0.0,0.0,0.0,0.0,0.0,0.0,0.0,0.0,0.0,0.0,0.0,0.0,0.0,0.0,0.0,0.0,0.0,0.0,0.0,0.0,0.0,0.0,0.0,0.0,0.0,0.0,0.0,0.0,0.0,0.0,0.0,0.0,0.0,0.0,0.0,0.0,0.0,0.0,0.0,0.0,0.0,0.0,0.0,0.0,0.0,0.0,0.0,0.0,0.0,0.0,0.0,0.0,0.0,0.0,0.0,0.0,0.0,0.0,0.0,0.0,0.0,0.0,0.0,0.0,0.0,0.0,0.0,0.0,0.0,0.0,0.0,0.0,0.0,0.0,0.0,0.0,0.0,0.0,0.0,0.0,0.0,0.0,0.0,0.0,0.0,0.0,0.0,0.0,0.0,2.1794,2.197,2.2071,2.2031,2.1532,2.1094,0.0,0.0,0.0,0.0,0.0,0.0,0.0,0.0,0.0,0.0,0.0,0.0,0.0,0.0,0.0,0.0,0.0,0.0,0.0,0.0,0.0,0.0,0.0,0.0,0.0,0.0,0.0,0.0,0.0,0.0,0.0,0.0,0.0,0.0,0.0,0.0,0.0,0.0,0.0,0.0,0.0,0.0,0.0,0.0,0.0,0.0,0.0,0.0,0.0,0.0,0.0,0.0,0.0,0.0,0.0,0.0,0.0,0.0,0.0,0.0,0.0,0.0,0.0,0.0,0.0,0.0,0.0,0.0,0.0,0.0,0.0,0.0,0.0,0.0,0.0,0.0,0.0,0.0,0.0,0.0,0.0,0.0,0.0,0.0,0.0,0.0,0.0,0.0,0.0,0.0,0.0,0.0,0.0,0.0,0.0,0.0,0.0,0.0,0.0,0.0,0.0,0.0,0.0,0.0,0.0,0.0,0.0,0.0,0.0,2.2569,2.2608,2.2594,2.2608,2.2071,2.1557,2.1005,0.0,0.0,0.0,0.0,0.0,0.0,0.0,0.0,0.0,0.0,0.0,0.0,0.0,0.0,0.0,0.0,0.0,0.0,0.0,0.0,0.0,0.0,0.0,0.0,0.0,0.0,0.0,0.0,0.0,0.0,0.0,0.0,0.0,0.0,0.0,0.0,0.0,0.0,0.0,0.0,0.0,0.0,0.0,0.0,0.0,0.0,0.0,0.0,0.0,0.0,0.0,0.0,0.0,0.0,0.0,0.0,0.0,0.0,0.0,0.0,0.0,0.0,0.0,0.0,0.0,0.0,0.0,0.0,0.0,0.0,0.0,0.0,0.0,0.0,0.0,0.0,0.0,0.0,0.0,0.0,0.0,0.0,0.0,0.0,0.0,0.0,0.0,0.0,0.0,0.0,0.0,0.0,0.0,0.0,0.0,0.0,0.0,0.0,0.0,0.0,0.0,0.0,0.0,0.0,0.0,0.0,0.0,0.0,2.3145,2.3195,2.317,2.3095,2.2583,2.2031,0.0,0.0,0.0,0.0,0.0,0.0,0.0,0.0,0.0,0.0,0.0,0.0,0.0,0.0,0.0,0.0,0.0,0.0,0.0,0.0,0.0,0.0,0.0,0.0,0.0,0.0,0.0,0.0,0.0,0.0,0.0,0.0,0.0,0.0,0.0,0.0,0.0,0.0,0.0,0.0,0.0,0.0,0.0,0.0,0.0,0.0,0.0,0.0,0.0,0.0,0.0,0.0,0.0,0.0,0.0,0.0,0.0,0.0,0.0,0.0,0.0,0.0,0.0,0.0,0.0,0.0,0.0,0.0,0.0,0.0,0.0,0.0,0.0,0.0,0.0,0.0,0.0,0.0,0.0,0.0,0.0,0.0,0.0,0.0,0.0,0.0,0.0,0.0,0.0,0.0,0.0,0.0,0.0,0.0,0.0,0.0,0.0,0.0,0.0,0.0,0.0,0.0,0.0,0.0,0.0,0.0,0.0,0.0,0.0,2.3753,2.4139,2.3948,2.312,2.2569,2.2046,0.0,0.0,0.0,0.0,0.0,0.0,0.0,0.0,0.0,0.0,0.0,0.0,0.0,0.0,0.0,0.0,0.0,0.0,0.0,0.0,0.0,0.0,0.0,0.0,0.0,0.0,0.0,0.0,0.0,0.0,0.0,0.0,0.0,0.0,0.0,0.0,0.0,0.0,0.0,0.0,0.0,0.0,0.0,0.0,0.0,0.0,0.0,0.0,0.0,0.0,0.0,0.0,0.0,0.0,0.0,0.0,0.0,0.0,0.0,0.0,0.0,0.0,0.0,0.0,0.0,0.0,0.0,0.0,0.0,0.0,0.0,0.0,0.0,0.0,0.0,0.0,0.0,0.0,0.0,0.0,0.0,0.0,0.0,0.0,0.0,0.0,0.0,0.0,0.0,0.0,0.0,0.0,0.0,0.0,0.0,0.0,0.0,0.0,0.0,0.0,0.0,0.0,0.0,0.0,0.0,0.0,0.0,0.0,2.3763,2.4315,2.4641,2.4474,2.3822,2.3301,2.2523,0.0,0.0,0.0,0.0,0.0,0.0,0.0,0.0,0.0,0.0,0.0,0.0,0.0,0.0,0.0,0.0,0.0,0.0,0.0,0.0,0.0,0.0,0.0,0.0,0.0,0.0,0.0,0.0,0.0,0.0,0.0,0.0,0.0,0.0,0.0,0.0,0.0,0.0,0.0,0.0,0.0,0.0,0.0,0.0,0.0,0.0,0.0,0.0,0.0,0.0,0.0,0.0,0.0,0.0,0.0,0.0,0.0,0.0,0.0,0.0,0.0,0.0,0.0,0.0,0.0,0.0,0.0,0.0,0.0,0.0,0.0,0.0,0.0,0.0,0.0,0.0,0.0,0.0,0.0,0.0,0.0,0.0,0.0,0.0,0.0,0.0,0.0,0.0,0.0,0.0,0.0,0.0,0.0,0.0,0.0,0.0,0.0,0.0,0.0,0.0,0.0,0.0,0.0,0.0,0.0,0.0,0.0,0.0,2.4371,2.4867,2.4942,2.4942,2.4867,2.4305,2.3251,0.0,0.0,0.0,0.0,0.0,0.0,0.0,0.0,0.0,0.0,0.0,0.0,0.0,0.0,0.0,0.0,0.0,0.0,0.0,0.0,0.0,0.0,0.0,0.0,0.0,0.0,0.0,0.0,0.0,0.0,0.0,0.0,0.0,0.0,0.0,0.0,0.0,0.0,0.0,0.0,0.0,0.0,0.0,0.0,0.0,0.0,0.0,0.0,0.0,0.0,0.0,0.0,0.0,0.0,0.0,0.0,0.0,0.0,0.0,0.0,0.0,0.0,0.0,0.0,0.0,0.0,0.0,0.0,0.0,0.0,0.0,0.0,0.0,0.0,0.0,0.0,0.0,0.0,0.0,0.0,0.0,0.0,0.0,0.0,0.0,0.0,0.0,0.0,0.0,0.0,0.0,0.0,0.0,0.0,0.0,0.0,0.0,0.0,0.0,0.0,0.0,0.0,0.0,0.0,0.0,0.0,0.0,0.0,2.498,2.5435,2.5904,2.5904,2.5435,2.4506,2.3627,0.0,0.0,0.0,0.0,0.0,0.0,0.0,0.0,0.0,0.0,0.0,0.0,0.0,0.0,0.0,0.0,0.0,0.0,0.0,0.0,0.0,0.0,0.0,0.0,0.0,0.0,0.0,0.0,0.0,0.0,0.0,0.0,0.0,0.0,0.0,0.0,0.0,0.0,0.0,0.0,0.0,0.0,0.0,0.0,0.0,0.0,0.0,0.0,2.536,0.0,0.0,0.0,0.0,0.0,0.0,0.0,0.0,0.0,0.0,0.0,0.0,0.0,0.0,0.0,0.0,0.0,0.0,0.0,0.0,0.0,0.0,0.0,0.0,0.0,0.0,0.0,0.0,0.0,0.0,0.0,0.0,0.0,0.0,0.0,0.0,0.0,0.0,0.0,0.0,0.0,0.0,0.0,0.0,0.0,0.0,0.0,0.0,0.0,0.0,0.0,0.0,0.0,0.0,0.0,0.0,0.0,0.0,0.0,2.5785,2.6526,2.7012,2.6984,2.6407,2.5603,2.4506,0.0,0.0,0.0,0.0,0.0,0.0,0.0,0.0,0.0,0.0,0.0,0.0,0.0,0.0,0.0,0.0,0.0,0.0,0.0,0.0,0.0,0.0,0.0,0.0,0.0,0.0,0.0,0.0,0.0,0.0,0.0,0.0,0.0,0.0,0.0,0.0,0.0,0.0,0.0,0.0,0.0,0.0,0.0,0.0,0.0,0.0,0.0,0.0,0.0,0.0,0.0,0.0,0.0,0.0,0.0,0.0,0.0,0.0,0.0,0.0,0.0,0.0,0.0,0.0,0.0,0.0,0.0,0.0,0.0,0.0,0.0,0.0,0.0,0.0,0.0,0.0,0.0,0.0,0.0,0.0,0.0,0.0,0.0,0.0,0.0,0.0,0.0,0.0,0.0,0.0,0.0,0.0,0.0,0.0,0.0,0.0,0.0,0.0,0.0,0.0,0.0,0.0,0.0,0.0,0.0,0.0,0.0,2.5935,2.6595,2.7551,2.7947,2.7864,2.7311,2.6776,2.5527,2.3461,0.0,0.0,0.0,0.0,0.0,0.0,0.0,0.0,0.0,0.0,0.0,0.0,0.0,0.0,0.0,0.0,0.0,0.0,0.0,0.0,0.0,0.0,0.0,0.0,0.0,0.0,0.0,0.0,0.0,0.0,0.0,0.0,0.0,0.0,0.0,0.0,0.0,0.0,2.3386,2.5276,0.0,0.0,0.0,0.0,0.0,0.0,0.0,0.0,2.8172,0.0,0.0,0.0,0.0,0.0,0.0,0.0,0.0,0.0,0.0,0.0,0.0,0.0,0.0,0.0,0.0,0.0,0.0,0.0,0.0,0.0,0.0,0.0,0.0,0.0,0.0,0.0,0.0,0.0,0.0,0.0,0.0,0.0,0.0,0.0,0.0,0.0,0.0,0.0,0.0,0.0,0.0,0.0,0.0,0.0,0.0,0.0,0.0,0.0,0.0,0.0,0.0,0.0,0.0,0.0,0.0,2.5735,2.673,2.7361,2.7594,2.8091,2.8019,2.7329,2.6758,2.5879,2.455,0.0,0.0,0.0,0.0,0.0,0.0,0.0,0.0,0.0,0.0,0.0,0.0,0.0,0.0,0.0,0.0,0.0,0.0,0.0,0.0,0.0,0.0,0.0,0.0,0.0,0.0,0.0,0.0,0.0,0.0,0.0,0.0,0.0,0.0,0.0,0.0,0.0,0.0,0.0,2.6273,2.6809,0.0,0.0,0.0,0.0,0.0,0.0,0.0,0.0,2.7971,0.0,0.0,0.0,0.0,0.0,0.0,0.0,0.0,0.0,0.0,0.0,0.0,0.0,0.0,0.0,0.0,0.0,0.0,0.0,0.0,0.0,0.0,0.0,0.0,0.0,0.0,0.0,0.0,0.0,0.0,0.0,0.0,0.0,0.0,0.0,0.0,0.0,0.0,0.0,0.0,0.0,0.0,0.0,0.0,0.0,0.0,0.0,0.0,0.0,0.0,0.0,0.0,0.0,0.0,0.0,2.672,2.7568,2.8274,2.89,2.9266,2.9126,2.8439,2.7916,2.6942,0.0,0.0,0.0,0.0,0.0,0.0,0.0,0.0,0.0,0.0,0.0,0.0,0.0,0.0,0.0,0.0,0.0,0.0,0.0,0.0,0.0,0.0,0.0,0.0,0.0,0.0,0.0,0.0,0.0,0.0,0.0,0.0,0.0,0.0,0.0,0.0,0.0,0.0,0.0,0.0,2.748,2.8417,2.89,0.0,0.0,0.0,0.0,0.0,0.0,2.998,2.9628,0.0,0.0,0.0,0.0,0.0,0.0,0.0,0.0,0.0,0.0,0.0,0.0,0.0,0.0,0.0,0.0,0.0,0.0,0.0,0.0,0.0,0.0,0.0,0.0,0.0,0.0,0.0,0.0,0.0,0.0,0.0,0.0,0.0,0.0,0.0,0.0,0.0,0.0,0.0,0.0,0.0,0.0,0.0,0.0,0.0,0.0,0.0,0.0,0.0,0.0,0.0,0.0,0.0,0.0,0.0,2.7729,2.8445,2.932,3.0361,3.0533,3.0307,2.9758,2.9108,2.7934,0.0,0.0,0.0,0.0,0.0,0.0,0.0,0.0,0.0,0.0,0.0,0.0,0.0,0.0,0.0,0.0,0.0,0.0,0.0,0.0,0.0,0.0,0.0,0.0,0.0,0.0,0.0,0.0,0.0,0.0,0.0,0.0,0.0,0.0,0.0,0.0,0.0,0.0,0.0,0.0,0.0,2.988,3.01,3.0854,0.0,0.0,0.0,0.0,3.1406,3.1406,0.0,0.0,0.0,0.0,0.0,0.0,0.0,0.0,0.0,0.0,0.0,0.0,0.0,0.0,0.0,0.0,0.0,0.0,0.0,0.0,0.0,0.0,0.0,0.0,0.0,0.0,0.0,0.0,0.0,0.0,0.0,0.0,0.0,0.0,0.0,0.0,0.0,0.0,0.0,0.0,0.0,0.0,0.0,0.0,0.0,0.0,0.0,0.0,0.0,0.0,0.0,0.0,0.0,0.0,0.0,0.0,2.814,2.942,3.0537,3.1364,3.1283,3.0996,3.0561,2.9533,2.8307,0.0,0.0,0.0,0.0,0.0,0.0,0.0,0.0,0.0,0.0,0.0,0.0,0.0,0.0,0.0,0.0,0.0,0.0,0.0,0.0,0.0,0.0,0.0,0.0,0.0,0.0,0.0,0.0,0.0,0.0,0.0,0.0,0.0,0.0,0.0,0.0,0.0,0.0,0.0,0.0,0.0,3.0131,3.1085,3.1331,3.1406,0.0,0.0,3.1406,3.1406,3.1406,0.0,0.0,0.0,0.0,0.0,0.0,0.0,0.0,0.0,0.0,0.0,0.0,0.0,0.0,0.0,0.0,0.0,0.0,0.0,0.0,0.0,0.0,0.0,0.0,0.0,0.0,0.0,0.0,0.0,0.0,0.0,0.0,0.0,0.0,0.0,0.0,0.0,0.0,0.0,0.0,0.0,0.0,0.0,0.0,0.0,0.0,0.0,0.0,0.0,0.0,0.0,0.0,0.0,0.0,0.0,2.798,2.9638,3.0643,3.168,3.2681,3.2697,3.2421,3.1906,3.0993,2.967,0.0,0.0,0.0,0.0,0.0,0.0,0.0,0.0,0.0,0.0,0.0,0.0,0.0,0.0,0.0,0.0,0.0,0.0,0.0,0.0,0.0,0.0,0.0,0.0,0.0,0.0,0.0,0.0,0.0,0.0,0.0,0.0,0.0,0.0,0.0,0.0,0.0,0.0,0.0,0.0,0.0,0.0,3.221,3.2638,0.0,0.0,0.0,3.3248,3.3269,0.0,0.0,0.0,0.0,0.0,0.0,0.0,0.0,0.0,0.0,0.0,0.0,0.0,0.0,0.0,0.0,0.0,0.0,0.0,0.0,0.0,0.0,0.0,0.0,0.0,0.0,0.0,0.0,0.0,0.0,0.0,0.0,0.0,0.0,0.0,0.0,0.0,0.0,0.0,0.0,0.0,0.0,0.0,0.0,0.0,0.0,0.0,0.0,0.0,0.0,0.0,0.0,0.0,0.0,0.0,0.0,0.0,3.0934,3.1797,3.2851,3.3983,3.4024,3.3829,3.3474,3.2413,0.0,0.0,0.0,0.0,0.0,0.0,0.0,0.0,0.0,0.0,0.0,0.0,0.0,0.0,0.0,0.0,0.0,0.0,0.0,0.0,0.0,0.0,0.0,0.0,0.0,0.0,0.0,1.9898,0.0,0.0,0.0,0.0,0.0,0.0,0.0,0.0,0.0,0.0,0.0,0.0,0.0,0.0,3.2185,3.3165,3.3771,3.4226,0.0,0.0,3.4703,3.4703,3.4352,3.3972,0.0,0.0,0.0,0.0,0.0,0.0,0.0,0.0,0.0,0.0,0.0,0.0,0.0,0.0,0.0,0.0,0.0,0.0,0.0,0.0,0.0,0.0,0.0,0.0,0.0,0.0,0.0,0.0,0.0,0.0,0.0,0.0,0.0,0.0,0.0,0.0,0.0,0.0,0.0,0.0,0.0,0.0,0.0,0.0,0.0,0.0,0.0,0.0,0.0,0.0,0.0,0.0,0.0,0.0,3.0117,3.1432,3.2792,3.4052,3.5232,3.4966,3.4973,3.5272,3.3431,3.229,0.0,0.0,0.0,0.0,0.0,0.0,0.0,0.0,0.0,0.0,0.0,0.0,0.0,0.0,0.0,0.0,0.0,0.0,0.0,0.0,0.0,0.0,0.0,0.0,0.0,0.0,0.0,0.0,0.0,0.0,0.0,0.0,0.0,0.0,0.0,0.0,0.0,0.0,0.0,0.0,0.0,3.3215,3.3771,3.4301,3.4678,0.0,3.4703,3.4703,3.4703,3.4703,3.4628,3.4577,0.0,0.0,0.0,0.0,0.0,0.0,0.0,0.0,0.0,0.0,0.0,0.0,0.0,0.0,0.0,0.0,0.0,0.0,0.0,0.0,0.0,0.0,0.0,0.0,0.0,0.0,0.0,0.0,0.0,0.0,0.0,0.0,0.0,0.0,0.0,0.0,0.0,0.0,0.0,0.0,0.0,0.0,0.0,0.0,0.0,0.0,0.0,0.0,0.0,0.0,0.0,0.0,0.0,3.144,3.3022,3.423,3.5397,3.6492,3.6579,3.6391,3.6079,3.5162,3.414,0.0,0.0,0.0,0.0,0.0,0.0,0.0,0.0,0.0,0.0,0.0,0.0,0.0,0.0,0.0,0.0,0.0,0.0,0.0,0.0,0.0,0.0,0.0,0.0,0.0,0.0,0.0,0.0,2.3487,2.4148,2.4148,0.0,0.0,0.0,0.0,0.0,0.0,0.0,0.0,0.0,0.0,3.3668,3.5225,3.5604,0.0,0.0,3.671,3.6735,3.6759,3.6458,3.6155,3.5803,3.5454,0.0,0.0,0.0,0.0,0.0,0.0,0.0,0.0,0.0,0.0,0.0,0.0,0.0,0.0,0.0,0.0,0.0,0.0,0.0,0.0,0.0,0.0,0.0,0.0,0.0,0.0,1.696,1.6952,0.0,0.0,0.0,0.0,0.0,0.0,0.0,0.0,0.0,0.0,0.0,0.0,0.0,0.0,0.0,0.0,0.0,0.0,0.0,0.0,0.0,0.0,0.0,0.0,3.2494,3.4354,3.5423,3.6471,3.7456,3.7744,3.7586,3.7043,3.6599,3.573,3.4445,0.0,0.0,0.0,0.0,0.0,0.0,0.0,0.0,0.0,0.0,0.0,0.0,0.0,0.0,0.0,0.0,0.0,0.0,0.0,0.0,0.0,0.0,0.0,0.0,0.0,0.0,0.0,2.485,2.5619,2.577,0.0,0.0,0.0,0.0,0.0,0.0,0.0,0.0,0.0,0.0,3.467,3.6204,3.6659,3.7136,3.7889,3.799,3.799,3.799,3.7663,3.7311,3.6934,0.0,0.0,0.0,0.0,0.0,0.0,0.0,0.0,0.0,0.0,0.0,0.0,0.0,0.0,0.0,0.0,0.0,0.0,0.0,0.0,0.0,0.0,0.0,0.0,0.0,0.0,0.0,1.9609,0.0,0.0,1.9708,0.0,0.0,0.0,0.0,0.0,0.0,0.0,0.0,0.0,0.0,0.0,0.0,0.0,0.0,0.0,0.0,0.0,0.0,0.0,0.0,0.0,0.0,3.3207,3.5152,3.6318,3.7217,3.7912,3.8282,3.8474,3.8427,3.75,3.6987,3.6872,0.0,0.0,0.0,0.0,0.0,0.0,0.0,0.0,0.0,0.0,0.0,0.0,0.0,0.0,0.0,0.0,0.0,0.0,0.0,0.0,0.0,0.0,0.0,0.0,0.0,0.0,2.546,2.6565,2.7419,0.0,0.0,0.0,0.0,0.0,0.0,0.0,0.0,0.0,3.314,3.4972,3.6331,3.6455,3.7287,3.8015,3.8065,3.804,3.804,3.809,3.804,3.7965,0.0,0.0,0.0,0.0,0.0,0.0,0.0,0.0,0.0,0.0,0.0,0.0,0.0,0.0,0.0,0.0,0.0,0.0,0.0,0.0,0.0,0.0,0.0,0.0,0.0,0.0,0.0,2.2293,2.2303,0.0,0.0,0.0,0.0,0.0,0.0,0.0,0.0,0.0,0.0,0.0,3.0193,3.0404,0.0,0.0,0.0,0.0,0.0,0.0,0.0,0.0,0.0,0.0,0.0,0.0,3.4944,3.6048,3.728,3.8383,3.9331,3.9506,3.9738,4.0018,3.9268,3.8274,3.6957,0.0,0.0,0.0,0.0,0.0,0.0,0.0,0.0,0.0,0.0,0.0,0.0,0.0,0.0,0.0,0.0,0.0,0.0,0.0,0.0,0.0,0.0,0.0,0.0,0.0,2.608,0.0,0.0,0.0,0.0,0.0,0.0,0.0,0.0,0.0,0.0,3.2638,3.3643,3.51,3.5952,3.6808,3.7889,3.8668,3.9245,0.0,0.0,0.0,0.0,0.0,0.0,0.0,0.0,0.0,0.0,0.0,0.0,0.0,3.8517,3.7789,3.7011,3.7037,3.7162,3.7186,0.0,0.0,0.0,0.0,0.0,0.0,0.0,0.0,0.0,0.0,0.0,0.0,0.0,0.0,2.4998,2.4998,2.4998,0.0,0.0,0.0,0.0,0.0,0.0,0.0,0.0,3.0865,3.1509,3.2542,3.2781,3.2901,3.2886,3.2901,3.2467,0.0,0.0,0.0,0.0,0.0,0.0,0.0,0.0,3.6028,3.7152,3.8212,3.9236,4.017,4.042,4.0691,4.0993,4.0294,3.9184,3.7606,3.6222,3.4877,0.0,0.0,0.0,0.0,0.0,0.0,0.0,0.0,0.0,0.0,0.0,0.0,0.0,0.0,0.0,0.0,0.0,0.0,0.0,0.0,0.0,0.0,0.0,2.8216,0.0,0.0,0.0,0.0,0.0,0.0,0.0,0.0,0.0,3.3668,3.4019,3.4871,3.6457,3.7185,3.7939,3.9019,0.0,0.0,0.0,0.0,0.0,0.0,0.0,4.1175,4.0826,4.0775,4.065,4.0299,4.0275,4.0275,4.0248,0.0,0.0,3.8793,3.8743,3.8843,3.8868,3.9346,3.9748,3.9722,4.045,4.1153,0.0,0.0,0.0,0.0,2.8424,0.0,0.0,0.0,2.7695,2.7615,0.0,2.7615,0.0,0.0,0.0,0.0,2.9651,2.9698,0.0,0.0,3.3275,3.3949,3.4607,3.522,3.5549,3.5533,3.5519,3.5519,3.537,3.2946,3.1989,0.0,0.0,0.0,0.0,0.0,3.6537,3.838,3.9122,3.9798,4.0487,4.1104,4.1433,4.1414,4.0617,3.9806,3.8911,3.7671,3.6419,3.5178,3.3894,0.0,0.0,0.0,0.0,0.0,0.0,0.0,0.0,0.0,0.0,0.0,0.0,0.0,0.0,0.0,0.0,0.0,0.0,0.0,0.0,2.9679,0.0,0.0,0.0,0.0,0.0,0.0,0.0,0.0,0.0,3.4803,3.4954,3.5755,3.6632,3.721,0.0,0.0,0.0,0.0,4.1327,4.1352,4.1352,4.1378,4.1378,4.1378,4.1378,4.1403,0.0,0.0,4.1401,4.1428,4.1453,4.1428,4.1451,4.1076,4.0099,4.0275,4.0524,4.0601,4.1001,4.1378,4.1428,4.1882,4.2436,3.259,0.0,0.0,0.0,0.0,2.9649,2.9442,2.922,2.9089,2.9022,2.9022,2.9039,0.0,0.0,0.0,0.0,0.0,0.0,3.3185,3.4636,3.534,3.5985,3.6567,3.6776,3.6866,3.6849,3.6866,3.6866,3.6819,3.6071,3.5353,3.4681,0.0,0.0,0.0,0.0,3.8554,3.914,4.0247,4.1164,4.1811,4.2021,4.2141,4.2111,4.1874,4.1398,4.0666,3.9384,3.8502,3.8132,3.6331,0.0,0.0,0.0,0.0,0.0,0.0,0.0,0.0,0.0,0.0,0.0,0.0,0.0,0.0,0.0,0.0,0.0,0.0,0.0,3.0281,3.1235,3.1913,0.0,0.0,0.0,0.0,0.0,0.0,0.0,0.0,0.0,3.809,3.7487,3.7487,0.0,0.0,3.9973,4.0725,4.148,4.1959,4.1959,4.2258,0.0,4.2509,4.2509,4.2635,4.3037,4.3413,4.3661,4.3661,4.3661,4.3661,4.3636,4.3636,4.3536,4.3209,4.2333,4.1909,4.2235,4.271,4.3087,4.3137,4.3539,4.3966,3.5065,3.3067,3.2835,3.2559,3.2253,3.2013,3.178,3.1544,3.1389,3.1349,3.1333,3.1333,3.156,3.1907,3.209,0.0,0.0,0.0,3.525,3.6297,3.7225,3.7853,3.8195,3.8733,3.899,3.899,3.899,3.899,3.9008,3.899,3.8601,3.7823,0.0,3.7392,3.7674,3.9062,3.9948,4.0217,4.1254,4.1991,4.2381,4.2631,4.275,4.275,4.2511,4.2201,4.1792,4.0756,4.0098,3.9798,3.8316,3.6875,0.0,0.0,0.0,0.0,0.0,0.0,0.0,0.0,0.0,0.0,0.0,2.6069,2.6789,0.0,0.0,0.0,3.0005,3.0934,3.2286,3.2871,0.0,0.0,0.0,0.0,0.0,0.0,0.0,3.6934,3.7738,3.8642,3.9823,3.932,3.9169,4.0224,4.0526,4.0929,4.158,0.0,4.2587,4.2813,4.3087,4.3388,4.3589,4.3639,4.374,4.4066,4.4392,4.4589,4.4589,4.4589,4.4589,4.4614,4.4765,4.5045,4.5217,4.4618,4.3994,4.3714,4.389,4.4192,4.4418,4.492,4.5317,3.6914,3.6634,3.6047,3.5587,3.5172,3.4802,3.4539,3.4376,3.4212,3.4167,3.4167,3.4167,3.4197,3.4258,3.4772,0.0,3.5748,3.6437,3.7079,3.7631,3.896,3.9571,3.9601,4.0786,4.1403,4.1403,4.1403,4.1403,4.1373,4.1373,4.1403,4.1343,3.9607,3.899,3.9589,4.0247,4.0846,4.1463,4.2141,4.2481,4.256,4.315,4.3469,4.3459,4.293,4.262,4.2511,4.1912,4.1235,4.0576,3.9918,3.8973,3.7704,0.0,0.0,0.0,0.0,0.0,0.0,0.0,0.0,0.0,0.0,0.0,0.0,0.0,0.0,3.1452,3.3068,0.0,3.4148,3.4625,0.0,0.0,0.0,3.5958,3.6533,3.7061,3.7612,3.814,0.0,0.0,4.0651,4.1127,4.1478,4.1553,4.1957,4.2288,4.2311,4.2813,4.3316,4.3765,4.3865,4.4041,4.4414,4.4564,4.4665,4.4794,4.4765,4.4916,4.4966,4.4966,4.489,4.4991,4.5347,4.5849,4.6351,4.6722,4.6672,4.5141,4.4916,4.5066,4.5623,4.61,4.6552,4.0104,3.9992,3.9491,3.8063,3.6113,3.616,3.6075,3.5922,3.5659,3.5503,3.5503,3.5503,3.5823,3.6309,3.6928,3.729,3.7452,3.8478,3.9011,3.9234,4.0381,4.0954,4.0954,4.1254,4.1403,4.1403,4.1403,4.1403,4.1403,4.1403,4.1403,4.1403,4.1422,4.1254,4.0935,4.1583,4.2002,4.2171,4.2761,4.3359,4.3838,4.4496,4.4825,4.4825,4.4676,4.4377,4.3868,4.319,4.2581,4.1942,4.1283,4.0546,3.9738,3.8913,0.0,0.0,0.0,0.0,0.0,0.0,0.0,0.0,0.0,3.0192,3.1609,0.0,3.1787,0.0,3.4402,3.5481,3.6331,3.6557,0.0,0.0,3.7413,3.7663,3.8216,3.8793,3.9295,3.9822,4.0499,4.1277,4.2283,4.2509,4.2911,4.3661,4.3212,4.2964,4.3338,4.389,4.4267,4.4364,4.4389,4.4439,4.4669,4.4995,4.5447,4.5849,4.622,4.6647,4.7023,4.7099,4.7099,4.7129,4.723,4.738,4.7506,4.7657,4.7606,4.723,4.7099,4.7154,4.7305,4.7456,4.7581,4.1324,4.1214,4.1194,4.0194,3.8673,3.818,3.7888,3.7717,3.7495,3.7384,3.7384,3.7273,3.7407,3.7693,3.8283,3.8656,3.8952,3.9844,4.0444,4.0758,4.1599,4.1986,4.1997,4.2171,4.2252,4.2252,4.2252,4.2252,4.2252,4.2551,4.2701,4.2701,4.3349,4.3499,4.3169,4.3229,4.3379,4.3708,4.4018,4.4356,4.4736,4.5095,4.5274,4.5274,4.5274,4.5125,4.4766,4.4386,4.4047,4.3678,4.2761,4.2102,4.1694,4.0546,3.9529,0.0,0.0,0.0,0.0,0.0,0.0,0.0,0.0,0.0,0.0,0.0,3.4027,3.5273,3.6108,3.6985,3.7889,3.7964,3.8241,3.9019,3.912,3.9346,3.9898,4.0224,4.0727,4.153,4.1882,4.2484,4.3564,4.3714,4.3915,4.4514,4.4317,4.4116,4.4166,4.4443,4.4719,4.4945,4.4995,4.5196,4.5618,4.62,4.6652,4.6954,4.728,4.755,4.7857,4.7908,4.7908,4.7933,4.8109,4.8385,4.8611,4.8862,4.9088,4.9339,4.9414,4.9238,4.8761,4.8661,4.8761,4.1806,4.1583,4.2004,4.2043,4.1723,4.0511,3.9866,3.9629,3.9453,3.9356,3.9324,3.9178,3.9031,3.9007,3.9408,3.9899,4.0448,4.106,4.1632,4.221,4.2652,4.287,4.288,4.3288,4.3509,4.3509,4.3598,4.3658,4.3658,4.4208,4.4477,4.4507,4.5026,4.5334,4.5394,4.4835,4.4825,4.5274,4.5415,4.5424,4.5424,4.5484,4.5544,4.5544,4.5544,4.5514,4.5424,4.5424,4.5394,4.5295,4.4177,4.3529,4.3499,4.1863,4.0857,0.0,3.9739,0.0,0.0,0.0,0.0,0.0,0.0,0.0,0.0,3.6032,3.6322,3.7436,3.8015,3.8567,3.917,3.922,3.9572,4.0474,4.0676,4.0901,4.1428,4.1578,4.203,4.3087,4.3215,4.3589,4.4539,4.4715,4.4715,4.5016,4.5422,4.5547,4.5171,4.5066,4.5217,4.5648,4.5748,4.6225,4.6923,4.75,4.7857,4.7958,4.8008,4.8058,4.8309,4.8309,4.8284,4.8435,4.8862,4.9321,4.9741,5.0193,5.0645,5.1021,5.1096,5.082,5.0067,4.9816,5.0142,4.3469,4.3363,4.3215,4.3098,4.3007,4.234,4.1805,4.1387,4.1029,4.0828,4.0695,4.0678,4.0956,4.1406,4.1527,4.1928,4.2607,4.2934,4.3187,4.3309,4.3606,4.3767,4.3797,4.4395,4.4658,4.4688,4.5223,4.5496,4.5496,4.5434,4.5413,4.5443,4.5348,4.5574,4.6061,0.0,0.0,0.0,4.5822,4.6121,4.6121,4.6629,4.6899,4.6899,4.692,0.0,4.6151,4.6091,4.5852,4.5334,4.5065,0.0,4.4915,0.0,0.0,0.0,0.0,0.0,0.0,0.0,0.0,0.0,3.9028,3.8054,3.7537,3.7937,3.8541,3.917,3.9722,4.0248,4.08,4.0851,4.0926,4.1152,4.158,4.2085,4.261,4.3062,4.3589,4.4188,4.4288,4.4568,4.5221,4.5321,4.5673,4.6421,4.6722,4.6923,4.7205,4.6798,4.6647,4.6798,4.7104,4.7481,4.7732,4.7883,4.8234,4.846,4.8642,4.8962,4.969,4.9859,5.0117,5.0444,5.0778,5.0803,5.0921,5.1071,5.1172,5.1272,5.1331,5.1255,5.0996,5.0946,5.1054,4.401,4.3883,4.3702,4.3553,0.0,4.3098,4.2822,4.2429,4.1932,4.1844,4.2126,4.2025,4.2387,4.3017,4.2859,4.3147,4.3818,4.3873,4.4087,4.439,4.4335,4.4469,4.4786,4.4956,4.5191,4.5495,4.5829,4.5981,4.6011,4.6243,4.6333,4.6333,4.6531,4.6738,4.6929,4.6843,4.6621,4.6292,4.6621,4.6779,4.6809,4.713,4.7309,4.7309,4.7309,0.0,0.0,0.0,0.0,0.0,0.0,0.0,0.0,4.5155,4.4564,4.4011,4.346,4.2851,4.2163,4.1454,4.1289,4.1736,4.1268,4.0415,3.9214,3.988,4.0356,4.0475,4.0725,4.1227,4.2057,4.2133,4.2331,4.2858,4.3212,4.3489,4.3765,4.4041,4.4389,4.497,4.5267,4.5673,4.6225,4.6552,4.6878,4.7405,4.7475,4.7606,4.7801,4.7682,4.7475,4.75,4.7983,4.8435,4.8711,4.9012,4.9339,4.9866,5.0049,5.0275,5.0745,5.0845,5.0946,5.1222,5.1306,5.1348,5.1649,5.1699,5.1774,5.2051,5.2302,5.2477,5.2452,5.2076,5.1774,4.4184,4.3971,4.4045,4.3916,4.3692,4.3763,4.3675,4.3442,4.275,0.0,0.0,4.3274,4.3557,4.4209,4.3881,4.412,4.4795,4.4579,4.4783,4.5309,4.5029,4.5148,4.5685,4.5618,4.5868,4.6346,4.6468,4.6509,4.6498,4.7005,4.7228,4.7289,4.7733,4.794,4.7847,4.761,4.7562,4.7682,4.757,4.7549,4.7638,4.7668,4.7638,4.7638,4.7638,4.7668,4.7638,4.7638,4.7638,4.7638,4.704,4.6659,4.6629,4.598,4.5436,4.5128,4.4874,4.4477,4.3876,4.3211,4.2818,4.2912,4.2902,4.2315,4.0978,4.1511,4.1853,4.1686,4.1706,4.2155,4.3162,4.3291,4.3614,4.4489,4.469,4.474,4.4794,4.4941,4.5292,4.5748,4.6276,4.6753,4.7149,4.755,4.7958,4.8033,4.8083,4.8184,4.8284,4.836,4.8309,4.8485,4.8987,4.9471,4.9816,5.0193,5.0745,5.1079,5.123,5.1322,5.1398,5.1423,5.1448,5.1649,5.1649,5.195,5.2302,5.2528,5.2678,5.313,5.3532,5.3858,5.3783,5.3181,5.2754,4.4298,4.4275,4.4619,4.4737,4.471,4.5094,4.5172,4.4931,4.4072,4.3945,4.4329,4.428,4.4581,4.5132,4.5063,4.5411,4.6014,4.5706,4.5638,4.5745,4.5909,4.6033,4.6188,4.7282,4.7816,4.778,4.8265,4.8461,4.8275,4.8129,4.8107,4.8086,4.8061,4.8259,4.8741,4.8563,4.8703,4.9245,4.8527,4.8468,4.9007,4.9007,4.9007,4.9007,4.8977,4.9007,4.9007,4.9007,4.9007,4.8977,4.8379,4.8027,4.7997,4.7173,4.6332,4.5605,4.5308,4.5083,4.4915,4.437,4.3931,4.3698,4.4116,4.3808,4.2449,4.2408,4.2669,4.3072,4.3277,4.3714,4.4288,4.4367,4.4414,4.464,4.5095,4.5401,4.5422,4.617,4.6697,4.6823,4.735,4.7682,4.7782,4.7933,4.8234,4.856,4.8786,4.9012,4.9665,4.9665,4.959,5.0017,5.0544,5.0954,5.0996,5.1071,5.1222,5.1306,5.1406,5.1624,5.2,5.2101,5.2251,5.2628,5.298,5.3281,5.3457,5.3944,5.4094,5.4245,5.4336,5.4471,5.4471,5.426,5.4245,4.5592,4.5524,4.5712,4.5726,4.5669,4.5806,4.6046,4.6282,4.5793,4.5554,4.5521,4.5537,4.5877,4.6458,4.6252,4.631,4.6615,4.6227,4.6271,4.6653,4.6695,4.7045,4.7673,4.8216,4.8559,4.8702,4.9013,4.9108,4.9006,4.878,4.8656,4.8666,4.8711,4.8877,4.916,4.9309,4.9618,5.0125,4.9269,4.8977,4.9277,4.9277,4.9277,4.9277,4.9277,4.9277,4.9277,4.9277,4.9277,4.9277,4.9007,4.8828,4.8828,4.8313,4.774,4.7199,4.6945,4.6608,4.6156,4.5689,4.5368,4.5249,4.5501,4.5474,4.4987,4.4197,4.3904,4.4269,4.4288,4.4468,4.502,4.5095,4.5321,4.5894,4.6225,4.6502,4.6778,4.7205,4.75,4.7575,4.8033,4.8416,4.8416,4.8887,4.9307,4.964,4.9924,5.0343,5.082,5.0946,5.0921,5.0921,5.1122,5.1431,5.1674,5.1724,5.185,5.2101,5.2427,5.2678,5.298,5.3155,5.3507,5.3758,5.4034,5.417,5.416,5.4396,5.4572,5.4647,5.4873,5.4999,5.5074,5.5239,5.5239,4.6712,4.6574,4.6683,4.676,4.6791,4.6686,4.6973,4.7442,4.7315,4.7091,4.6815,4.6733,4.6996,4.7437,4.7199,4.703,4.7011,4.6775,4.6984,4.7479,4.76,4.8147,4.898,4.9047,4.9178,4.941,4.9421,4.9412,4.9291,4.9128,4.913,4.9202,4.9383,4.9561,4.9855,5.0127,5.0506,5.0887,5.0193,4.9771,4.9726,4.9726,4.9726,4.9726,4.9726,4.9726,4.9726,4.9726,4.9726,4.9726,4.9576,4.9516,4.9494,4.9049,4.8709,4.8502,4.8196,4.7764,4.7204,4.6929,4.6753,4.6617,4.6652,4.6803,4.6947,4.5927,4.5226,4.5323,4.5085,4.5183,4.5753,4.5874,4.625,4.7149,4.7274,4.7375,4.7832,4.8008,4.8109,4.8184,4.8711,4.9163,4.9314,4.9992,5.0544,5.0619,5.1096,5.1448,5.1523,5.2,5.2226,5.1975,5.1749,5.1925,5.2352,5.2477,5.2729,5.3206,5.3607,5.3783,5.3909,5.4295,5.4547,5.4547,5.4697,5.4773,5.4798,5.4949,5.5024,5.5089,5.534,5.5566,5.5591,5.5842,5.5942,4.6819,4.6843,4.7334,4.782,4.8247,4.8249,4.8283,4.8349,4.8351,4.824,4.7932,4.7721,4.7539,4.7504,4.7453,4.7436,4.7501,4.771,4.7908,4.8081,4.8868,4.9341,4.9546,5.0083,5.0202,4.9892,4.9852,4.9693,4.9361,4.9342,4.948,4.9863,4.9925,5.0478,5.13,5.1264,5.1497,5.2116,5.1629,5.1282,5.105,5.1026,5.0996,5.105,5.0996,5.1026,5.0936,5.1026,5.102,5.0966,5.0428,5.0129,5.0023,4.9127,4.8525,4.8509,4.8092,4.7706,4.7538,4.7808,4.7797,4.7296,4.7296,4.7442,4.7691,4.7117,4.6573,4.6331,4.5984,4.6142,4.6828,4.6923,4.7149,4.7732,4.7832,4.7826,4.8058,4.8385,4.8686,4.8718,4.964,5.0268,5.0268,5.0795,5.1172,5.1297,5.1774,5.2126,5.2201,5.2879,5.3457,5.3331,5.308,5.3005,5.3381,5.3557,5.3708,5.421,5.4471,5.4522,5.4547,5.4597,5.4622,5.4949,5.5074,5.529,5.5415,5.5666,5.5968,5.5817,5.5942,5.6093,5.6118,5.6168,5.6093,4.8105,4.8124,4.8333,4.856,4.8783,4.8689,4.8675,4.8675,4.8547,4.8452,4.8372,4.8243,4.8017,4.7787,4.7687,4.7835,4.8278,4.8284,4.8783,4.9565,5.0022,5.0293,5.054,5.0779,5.0711,5.0324,5.0305,5.0258,5.0113,5.0242,5.0285,5.0279,5.0974,5.1561,5.1902,5.2193,5.2354,5.2298,5.2124,5.1826,5.1456,5.1299,5.1206,5.1206,5.1206,5.1206,5.1206,5.1206,5.1206,5.1176,5.0936,5.0717,5.0547,5.0011,4.9604,4.9468,4.9165,4.8944,4.8852,4.8804,4.881,4.8898,4.8241,4.8056,4.8499,4.8347,4.7999,4.747,4.7087,4.7086,4.7487,4.755,4.7807,4.8284,4.841,4.8661,4.9339,4.959,4.9841,5.0218,5.0645,5.0921,5.0996,5.1423,5.1875,5.2201,5.2703,5.3005,5.3105,5.3733,5.417,5.4185,5.4009,5.3984,5.4185,5.421,5.4371,5.4572,5.4898,5.5039,5.5089,5.5365,5.5541,5.5552,5.5666,5.5817,5.5867,5.5993,5.6219,5.6244,5.6219,5.6219,5.6219,5.6219,5.6319,4.9018,4.9018,4.9018,4.9018,4.9003,4.8894,4.8848,4.8848,4.8689,4.8626,4.8612,4.8764,4.8738,4.8446,4.8233,4.8414,4.8875,4.91,4.9735,5.0719,5.0913,5.1143,5.1355,5.1387,5.1129,5.082,5.0781,5.082,5.0877,5.097,5.1083,5.1194,5.2029,5.2442,5.2443,5.2883,5.29,5.2555,5.2397,5.2147,5.1803,5.1456,5.1276,5.1229,5.1206,5.1206,5.1206,5.1206,5.1206,5.1206,5.1206,5.1058,5.0822,5.0762,5.0632,5.0392,5.0205,5.0058,4.9956,4.9585,4.9553,4.983,4.9,4.8725,4.9169,4.9179,4.8949,4.8655,4.835,4.8252,4.8121,4.8134,4.8385,4.8944,4.9113,4.959,5.0235,5.0486,5.0795,5.123,5.1348,5.1607,5.1774,5.2226,5.2729,5.308,5.3557,5.3934,5.4044,5.4446,5.4823,5.4823,5.4924,5.4974,5.4873,5.4823,5.4848,5.5099,5.5415,5.5616,5.5616,5.5993,5.6194,5.5892,5.6143,5.6194,5.6093,5.6168,5.6369,5.6445,5.6545,5.6646,5.6821,5.6696,5.6846,4.9018,4.9018,4.9018,4.9018,4.9018,4.9003,4.9003,4.8987,4.8987,4.891,4.892,4.951,4.97,4.9506,4.9376,4.9211,4.9309,5.0278,5.0867,5.1113,5.151,5.1747,5.1762,5.1776,5.1573,5.1199,5.1162,5.1262,5.1492,5.1427,5.1821,5.2818,5.2796,5.2928,5.319,5.3179,5.3078,5.2966,5.2577,5.2306,5.2215,5.1803,5.1456,5.1276,5.1206,5.1206,5.1206,5.1206,5.1206,5.1206,5.1236,5.1088,5.0911,5.1157,5.1252,5.1128,5.0918,5.0637,5.0382,5.0119,4.9995,4.9996,4.9486,4.9338,4.9842,4.9551,4.9365,4.9651,4.9583,4.9379,4.8888,4.8868,4.9012,4.9515,5.0042,5.0318,5.0436,5.0996,5.1222,5.1456,5.185,5.2327,5.2804,5.3271,5.3532,5.3758,5.4195,5.4572,5.4647,5.5049,5.529,5.544,5.5666,5.5942,5.5491,5.534,5.5566,5.5742,5.5867,5.6118,5.6168,5.6194,5.6244,5.6294,5.6445,5.6445,5.6294,5.6369,5.662,5.6897,5.7323,5.7524,5.7399,5.77,5.7801,4.9018,4.9018,4.9018,4.9018,4.9018,4.9018,4.9018,4.9018,4.9018,4.9258,4.9616,4.992,5.0196,5.0505,5.0943,5.0978,5.086,5.1204,5.1582,5.1996,5.2134,5.2104,5.1995,5.1977,5.1868,5.161,5.1462,5.1537,5.188,5.2577,5.3091,5.3279,5.3619,5.3765,5.3661,5.3593,5.3418,5.3109,5.2877,5.2676,5.2329,5.2147,5.1872,5.1456,5.1299,5.1206,5.1206,5.1206,5.1409,5.1828,5.1834,5.1822,5.1797,5.1619,5.1428,5.1257,5.1325,5.1266,5.1007,5.0734,5.0768,5.1043,5.0216,4.9924,5.0395,5.0342,5.0092,4.9924,5.0153,5.0092,4.996,4.9841,4.9891,5.0142,5.0619,5.1096,5.1423,5.1699,5.1925,5.2327,5.2804,5.3331,5.3758,5.417,5.427,5.4346,5.4773,5.5074,5.5225,5.5566,5.5892,5.5917,5.6068,5.6143,5.5993,5.5917,5.5993,5.6093,5.6194,5.6219,5.6269,5.6584,5.6709,5.6846,5.6897,5.7072,5.7072,5.7198,5.7349,5.7474,5.7926,5.8102,5.7876,5.8127,5.8252,4.9018,4.9018,4.9018,4.9018,4.9018,4.9018,4.9018,4.9052,4.9255,4.9627,5.0117,5.0574,5.1051,5.151,5.2219,5.2505,5.232,5.2098,5.2227,5.2643,5.2518,5.2391,5.2266,5.2194,5.2086,5.1919,5.1964,5.2238,5.2838,5.3688,5.4046,5.4005,5.4274,5.4263,5.3995,5.3876,5.3593,5.3255,5.3153,5.2855,5.2495,5.2352,5.2246,5.2036,5.1793,5.1629,5.1528,5.1505,5.1804,5.2396,5.2516,5.2573,5.2648,5.2238,5.1841,5.1707,5.19,5.1866,5.1522,5.1265,5.1348,5.1706,5.0922,5.054,5.1067,5.0947,5.056,5.029,5.0537,5.0761,5.059,5.0712,5.0896,5.082,5.1197,5.1674,5.2051,5.2251,5.2569,5.308,5.3607,5.4145,5.4522,5.4748,5.4848,5.4873,5.5351,5.5616,5.5717,5.5942,5.6319,5.6408,5.6458,5.6646,5.6746,5.6846,5.662,5.6646,5.6821,5.6721,5.6696,5.7035,5.7261,5.7374,5.7549,5.7801,5.7951,5.8052,5.8127,5.8152,5.8453,5.8704,5.8579,5.8478,5.8654,4.9018,4.9018,4.9018,4.9018,4.9018,4.9018,4.9018,4.9187,4.9778,5.0117,5.0523,5.1589,5.2114,5.2452,5.301,5.3416,5.3264,5.2975,5.282,5.2886,5.2694,5.2589,5.2553,5.2445,5.2332,5.2214,5.2692,5.3534,5.4443,5.4485,5.4653,5.489,5.4601,5.4454,5.4391,5.4017,5.3693,5.3452,5.3233,5.2997,5.2698,5.2503,5.2582,5.2875,5.2685,5.2509,5.2294,5.2217,5.2516,5.3109,5.3198,5.3258,5.3297,5.288,5.2625,5.2583,5.265,5.2383,5.187,5.1766,5.1735,5.1867,5.1298,5.1123,5.1539,5.1207,5.0794,5.0747,5.1017,5.111,5.0801,5.1373,5.1749,5.1448,5.1774,5.2126,5.2302,5.2653,5.3155,5.3708,5.426,5.4572,5.4748,5.5125,5.539,5.5491,5.5867,5.6219,5.6244,5.6369,5.6545,5.6835,5.701,5.7136,5.7524,5.7851,5.7462,5.7261,5.7499,5.7575,5.7524,5.7725,5.7851,5.7951,5.8152,5.8378,5.8453,5.8554,5.8679,5.878,5.9081,5.9232,5.9131,5.9031,5.9182,4.9018,4.9018,4.9018,4.9018,4.9018,4.9018,4.9255,4.9729,5.0049,5.0676,5.1555,5.2097,5.2604,5.3078,5.3399,5.3501,5.3501,5.3348,5.3246,5.3076,5.2903,5.2729,5.2606,5.2587,5.2674,5.3031,5.4025,5.4629,5.4907,5.5232,5.5369,5.5266,5.5031,5.4707,5.4433,5.4263,5.406,5.3693,5.3431,5.321,5.3028,5.316,5.3247,5.323,5.3422,5.3645,5.3826,5.3211,5.3204,5.3862,5.3892,5.3913,5.3887,5.3523,5.3061,5.2759,5.2707,5.2558,5.2184,5.196,5.2146,5.2433,5.1961,5.1796,5.2154,5.1707,5.1314,5.1171,5.1325,5.1391,5.1615,5.185,5.2051,5.1875,5.2352,5.2829,5.3155,5.3683,5.426,5.4762,5.5013,5.5265,5.5591,5.5917,5.5942,5.5993,5.6383,5.6734,5.6784,5.7072,5.7374,5.7625,5.765,5.7688,5.8052,5.8328,5.8278,5.8052,5.8152,5.8252,5.8227,5.8278,5.8403,5.8529,5.873,5.8855,5.893,5.9006,5.9106,5.9182,5.9332,5.9433,5.9483,5.9508,5.9508,4.9018,4.9018,4.9018,4.9018,4.9052,4.9255,4.9677,5.0184,5.071,5.1454,5.2232,5.2638,5.301,5.3433,5.3501,5.3501,5.3501,5.3501,5.3416,5.3297,5.3093,5.2938,5.2866,5.2959,5.3464,5.4192,5.5038,5.5446,5.5548,5.5837,5.5866,5.5584,5.534,5.5051,5.4665,5.4475,5.4221,5.3941,5.3649,5.3533,5.3556,5.3703,5.3883,5.4042,5.427,5.4552,5.4882,5.431,5.4156,5.4441,5.4375,5.4281,5.4248,5.3759,5.3266,5.2869,5.2855,5.2842,5.238,5.2458,5.2613,5.2972,5.2466,5.2189,5.2439,5.2128,5.1834,5.1486,5.1837,5.2053,5.2085,5.2327,5.2452,5.2703,5.3005,5.3457,5.3959,5.4547,5.4938,5.529,5.5541,5.5867,5.6118,5.6408,5.6458,5.6559,5.696,5.7311,5.7424,5.765,5.7901,5.8102,5.8202,5.8328,5.8504,5.8755,5.8981,5.8855,5.878,5.878,5.878,5.888,5.9006,5.9031,5.9182,5.9182,5.9257,5.9307,5.9382,5.9483,5.9508,5.9508,5.9508,5.9508,5.9508,4.9018,4.9018,4.9018,4.9052,4.9187,4.9763,5.0184,5.0507,5.1589,5.2266,5.257,5.3112,5.3433,5.3501,5.3501,5.3501,5.3501,5.3501,5.3501,5.345,5.3416,5.338,5.3362,5.3786,5.4589,5.5514,5.5729,5.5955,5.6276,5.6297,5.6205,5.5806,5.5564,5.5319,5.5031,5.4644,5.4348,5.4124,5.3929,5.3956,5.4106,5.4264,5.4561,5.5167,5.5061,5.5183,5.5445,5.52,5.5085,5.5099,5.4603,5.4296,5.42,5.3789,5.3237,5.2789,5.3252,5.3045,5.2715,5.2982,5.3323,5.3159,5.2816,5.2642,5.2594,5.2465,5.2224,5.1806,5.2452,5.2766,5.2396,5.2653,5.3155,5.3683,5.3884,5.4135,5.4597,5.5125,5.544,5.5566,5.5892,5.6244,5.6294,5.6684,5.6885,5.7161,5.7575,5.7876,5.7976,5.8152,5.8278,5.8478,5.873,5.883,5.8981,5.9056,5.9257,5.9207,5.9131,5.9156,5.9156,5.9282,5.9357,5.9408,5.9433,5.9483,5.9508,5.9508,5.9508,5.9508,5.9508,5.9508,5.9508,5.9508,5.9508,4.9018,4.9018,4.9018,4.9323,4.9796,5.0049,5.0744,5.1691,5.2097,5.2672,5.3145,5.3416,5.3501,5.3501,5.3501,5.3501,5.3501,5.3501,5.3501,5.3602,5.4059,5.4107,5.4272,5.5049,5.5618,5.5988,5.6364,5.6649,5.6603,5.6466,5.6251,5.6026,5.5806,5.5483,5.5113,5.4843,5.4592,5.4401,5.4478,5.4464,5.4496,5.5162,5.5549,5.5527,5.5646,5.5736,5.5855,5.5431,5.5204,5.5154,5.4641,5.4304,5.4252,5.3789,5.3266,5.2957,5.3253,5.3328,5.2906,5.3226,5.3451,5.317,5.2788,5.2682,5.2884,5.2634,5.2582,5.2591,5.2982,5.302,5.2849,5.3181,5.3884,5.4762,5.4888,5.4963,5.5189,5.5641,5.5993,5.6018,5.6143,5.6394,5.6684,5.696,5.7211,5.765,5.8102,5.8504,5.8529,5.8755,5.8956,5.9106,5.9282,5.9332,5.9408,5.9433,5.9458,5.9433,5.9408,5.9382,5.9382,5.9408,5.9458,5.9483,5.9458,5.9483,5.9508,5.9508,5.9508,5.9508,5.9508,5.9508,5.9508,5.9508,5.9508,4.9018,4.9018,4.9018,4.9424,5.0117,5.0455,5.1217,5.2232,5.2672,5.3044,5.3433,5.3501,5.3501,5.3501,5.3501,5.3501,5.3501,5.3501,5.3687,5.416,5.5074,5.5443,5.5556,5.6151,5.6352,5.6519,5.6844,5.6839,5.6699,5.6564,5.6408,5.6225,5.6026,5.5726,5.5421,5.5083,5.4994,5.4985,5.5087,5.5125,5.5334,5.5891,5.6193,5.6115,5.6091,5.5929,5.5656,5.5355,5.5234,5.5078,5.4667,5.4304,5.4252,5.3815,5.3353,5.3106,5.3624,5.3725,5.3348,5.3637,5.3691,5.3207,5.2799,5.2784,5.2917,5.2885,5.303,5.3038,5.3297,5.3258,5.3126,5.3607,5.4436,5.5164,5.5591,5.5717,5.5717,5.5993,5.6194,5.6244,5.642,5.6609,5.701,5.7387,5.7826,5.8227,5.8679,5.893,5.9056,5.9357,5.9508,5.9508,5.9508,5.9483,5.9458,5.9483,5.9508,5.9508,5.9508,5.9508,5.9508,5.9508,5.9508,5.9508,5.9508,5.9508,5.9508,5.9508,5.9508,5.9508,5.9508,5.9508,5.9508,5.9508,5.9508,4.9018,4.9018,4.907,4.9526,5.0304,5.0998,5.1792,5.2503,5.3129,5.3433,5.3501,5.3501,5.3501,5.3501,5.3501,5.3501,5.3501,5.3687,5.4262,5.504,5.6021,5.6646,5.6745,5.672,5.6942,5.7159,5.7139,5.6949,5.6796,5.6719,5.6564,5.6382,5.6185,5.5986,5.573,5.5395,5.5471,5.5687,5.5823,5.5973,5.6238,5.649,5.6652,5.6601,5.6183,5.5755,5.5406,5.5179,5.5179,5.5128,5.4615,5.4304,5.42,5.3765,5.3586,5.3676,5.4056,5.4234,5.379,5.4079,5.4104,5.3224,5.2822,5.2806,5.3065,5.3235,5.3348,5.3338,5.3681,5.358,5.3529,5.4084,5.4863,5.5491,5.5942,5.6168,5.6219,5.6219,5.6219,5.6319,5.6734,5.696,5.7412,5.7964,5.8704,5.8704,5.9106,5.9207,5.9307,5.9408,5.9508,5.9508,5.9508,5.9508,5.9483,5.9508,5.9508,5.9508,5.9508,5.9508,5.9508,5.9508,5.9508,5.9508,5.9508,5.9508,5.9508,5.9508,5.9508,5.9508,5.9508,5.9508,5.9508,5.9508,5.9508,4.9018,4.9052,4.9643,5.0304,5.1032,5.1758,5.2503,5.3213,5.3416,5.3501,5.3501,5.3501,5.3501,5.3501,5.3501,5.3501,5.3687,5.4194,5.504,5.6292,5.6562,5.7171,5.7509,5.7523,5.7548,5.7514,5.7327,5.7139,5.6949,5.6757,5.6583,5.6388,5.6225,5.6019,5.5864,5.593,5.5877,5.5997,5.6621,5.6821,5.6667,5.7004,5.7048,5.6761,5.6274,5.5755,5.5305,5.5234,5.5108,5.4849,5.4539,5.4226,5.4088,5.3965,5.3859,5.3963,5.4429,5.4514,5.3928,5.4159,5.4041,5.3002,5.3072,5.3323,5.3299,5.3492,5.3668,5.3723,5.3734,5.3849,5.419,5.4787,5.5365,5.5842,5.6093,5.6219,5.6219,5.6244,5.642,5.6684,5.696,5.7336,5.8177,5.839,5.8905,5.9207,5.9357,5.9483,5.9508,5.9508,5.9508,5.9508,5.9508,5.9508,5.9508,5.9508,5.9508,5.9508,5.9508,5.9508,5.9508,5.9508,5.9508,5.9508,5.9508,5.9508,5.9508,5.9508,5.9508,5.9508,5.9508,5.9508,5.9508,5.9508,5.9508,4.9018,4.9086,4.9812,5.0541,5.1269,5.1995,5.2773,5.3399,5.3501,5.3501,5.3501,5.3501,5.3501,5.3501,5.3501,5.3653,5.4228,5.5175,5.6021,5.6765,5.7103,5.7509,5.7798,5.7881,5.779,5.7588,5.7402,5.7195,5.6987,5.6796,5.6641,5.6505,5.6264,5.6295,5.6343,5.639,5.6562,5.685,5.7346,5.7471,5.7136,5.7277,5.7091,5.6567,5.6127,5.5755,5.5285,5.5234,5.4976,5.4641,5.441,5.4351,5.4331,5.4178,5.4123,5.4566,5.4686,5.4736,5.4346,5.4297,5.412,5.3108,5.3334,5.3562,5.366,5.3751,5.3775,5.3928,5.4022,5.4176,5.4884,5.5139,5.5641,5.6068,5.6219,5.6319,5.6483,5.6559,5.6634,5.706,5.7487,5.7989,5.8516,5.8817,5.9081,5.9382,5.9408,5.9508,5.9508,5.9508,5.9508,5.9508,5.9508,5.9508,5.9508,5.9508,5.9508,5.9508,5.9508,5.9508,5.9508,5.9508,5.9508,5.9508,5.9508,5.9508,5.9508,5.9508,5.9533,5.9533,5.9533,5.9508,5.9533,5.9608,5.9583,4.9052,4.9255,4.9965,5.071,5.1404,5.2198,5.2909,5.3433,5.3501,5.3501,5.3501,5.3501,5.3501,5.3501,5.3687,5.4126,5.5108,5.5987,5.6765,5.7103,5.7561,5.7762,5.7845,5.7808,5.7717,5.7551,5.7383,5.7195,5.6987,5.6815,5.668,5.6655,5.6468,5.6545,5.6902,5.701,5.7162,5.765,5.7968,5.7847,5.7496,5.7441,5.7019,5.625,5.6028,5.5731,5.5335,5.5154,5.4926,5.4355,5.4392,5.4652,5.4722,5.4473,5.4498,5.5366,5.514,5.4816,5.4564,5.446,5.4169,5.3535,5.3596,5.3784,5.4027,5.3944,5.3889,5.4014,5.4148,5.4577,5.5311,5.5541,5.5767,5.6093,5.6219,5.647,5.686,5.706,5.7186,5.7437,5.7964,5.8491,5.888,5.9182,5.9357,5.9508,5.9508,5.9508,5.9508,5.9508,5.9508,5.9508,5.9508,5.9508,5.9508,5.9558,5.9558,5.9659,5.9633,5.9709,5.9759,5.9985,6.0035,5.9558,5.9508,5.9558,5.9684,5.9784,5.9784,5.9659,5.9834,6.0111,6.0035,5.9784,5.9809,4.9357,4.9981,5.0694,5.1454,5.2164,5.2942,5.3332,5.3467,5.3501,5.3501,5.3501,5.3501,5.3501,5.3653,5.4194,5.5108,5.6071,5.6711,5.7135,5.7507,5.7811,5.779,5.7662,5.7643,5.7532,5.7402,5.7289,5.7176,5.7006,5.6815,5.668,5.6735,5.683,5.7003,5.7319,5.7737,5.7969,5.8089,5.8393,5.8268,5.7668,5.7401,5.6995,5.6127,5.6003,5.5706,5.533,5.5179,5.4926,5.444,5.4864,5.5163,5.5147,5.475,5.4906,5.531,5.522,5.4887,5.4639,5.4339,5.3978,5.3722,5.3884,5.4096,5.4164,5.4063,5.397,5.4108,5.4347,5.4794,5.5351,5.5742,5.6043,5.6194,5.6244,5.6433,5.696,5.7424,5.7901,5.8278,5.8629,5.888,5.9156,5.9332,5.9433,5.9508,5.9508,5.9508,5.9508,5.9508,5.9508,5.9508,5.9508,5.9508,5.9508,5.9583,5.9659,5.9885,5.9985,6.0211,6.0362,6.0713,6.0638,6.0161,5.9859,5.9885,5.9985,6.0136,6.0311,6.0412,6.0638,6.0839,6.0638,6.0437,6.0613,4.9424,5.0184,5.0897,5.1607,5.2367,5.3145,5.3501,5.3501,5.3501,5.3501,5.3501,5.3501,5.3501,5.3687,5.4262,5.536,5.6419,5.6966,5.7251,5.7588,5.7588,5.7551,5.7439,5.7458,5.7327,5.7195,5.7139,5.7101,5.6987,5.6796,5.6674,5.6631,5.6914,5.7204,5.7575,5.8054,5.8461,5.8505,5.8623,5.8381,5.7543,5.7306,5.6706,5.625,5.5979,5.5706,5.5305,5.5234,5.4926,5.455,5.4923,5.5283,5.53,5.5299,5.5309,5.5681,5.5356,5.4906,5.4633,5.435,5.4171,5.4046,5.432,5.4549,5.4491,5.434,5.4151,5.429,5.4445,5.4949,5.5742,5.6043,5.6168,5.6219,5.6244,5.6646,5.7273,5.77,5.8303,5.893,5.9106,5.9232,5.9332,5.9458,5.9483,5.9508,5.9508,5.9508,5.9508,5.9508,5.9508,5.9684,5.9759,5.9935,5.9985,6.006,6.0085,6.0211,6.0437,6.0688,6.0864,6.1165,6.1065,6.0727,6.0487,6.0512,6.0563,6.0788,6.0989,6.114,6.114,6.1165,6.114,6.1165,6.1316,4.9661,5.0371,5.1116,5.1844,5.2604,5.3163,5.345,5.3416,5.3365,5.3348,5.3365,5.3399,5.345,5.3838,5.4597,5.5606,5.6673,5.713,5.7279,5.7346,5.7346,5.7308,5.7252,5.7214,5.7139,5.6968,5.693,5.6949,5.6872,5.6699,5.6643,5.683,5.7084,5.7548,5.8102,5.8497,5.8759,5.878,5.8724,5.8243,5.759,5.705,5.6543,5.6077,5.6003,5.5731,5.5255,5.5133,5.4968,5.4846,5.5083,5.5464,5.5509,5.5618,5.588,5.6079,5.5409,5.4906,5.4628,5.4378,5.422,5.4218,5.4525,5.4774,5.4875,5.4583,5.4312,5.4547,5.4773,5.5175,5.5942,5.6194,5.6219,5.6244,5.6369,5.6721,5.7499,5.8102,5.8579,5.9056,5.9382,5.9508,5.9508,5.9508,5.9508,5.9508,5.9508,5.9508,5.9508,5.9508,5.9583,5.9859,6.0085,6.0412,6.0588,6.0763,6.0763,6.0788,6.104,6.1316,6.1416,6.1567,6.1416,6.1441,6.1542,6.1567,6.1492,6.1391,6.1592,6.1642,6.1542,6.1592,6.1818,6.1843,6.1893,5.0405,5.1133,5.1844,5.2638,5.323,5.3247,5.323,5.3213,5.3059,5.2955,5.3007,5.3006,5.3359,5.4163,5.5353,5.6374,5.6992,5.717,5.7233,5.7233,5.7233,5.7158,5.7063,5.7044,5.693,5.6757,5.6738,5.6719,5.676,5.6638,5.6803,5.7191,5.7609,5.8111,5.8581,5.884,5.9123,5.8972,5.8701,5.822,5.7543,5.7026,5.6519,5.6151,5.5954,5.5731,5.5259,5.5091,5.4993,5.5185,5.5539,5.5781,5.5869,5.6136,5.6137,5.5874,5.526,5.4637,5.4626,5.4335,5.428,5.4395,5.4599,5.4827,5.4794,5.4799,5.4539,5.4603,5.4999,5.5491,5.6043,5.6194,5.6219,5.6369,5.6559,5.7072,5.7775,5.8278,5.878,5.9156,5.9458,5.9508,5.9508,5.9508,5.9508,5.9508,5.9508,5.9508,5.9558,5.9608,5.9885,6.0236,6.0663,6.0989,6.119,6.1366,6.1466,6.1441,6.1642,6.1918,6.1969,6.2094,6.237,6.2421,6.2446,6.2295,6.2044,6.1994,6.2169,6.222,6.2169,6.237,6.2647,6.2556,6.2355,5.0622,5.0975,5.1732,5.2472,5.3127,5.3059,5.3024,5.3007,5.2938,5.2886,5.2886,5.2903,5.3522,5.4642,5.5673,5.6419,5.6967,5.7025,5.6968,5.6968,5.6949,5.6911,5.6853,5.6815,5.6719,5.6564,5.6571,5.6738,5.6797,5.6975,5.7146,5.7257,5.7999,5.8463,5.8756,5.8964,5.8953,5.8678,5.8266,5.7723,5.7282,5.6803,5.6397,5.6028,5.5855,5.5556,5.5319,5.5343,5.5242,5.5483,5.5926,5.6192,5.6043,5.6165,5.6193,5.57,5.5024,5.4803,5.4954,5.4495,5.444,5.4671,5.4806,5.4771,5.464,5.4535,5.4578,5.4617,5.5099,5.5616,5.6068,5.6194,5.6219,5.6369,5.6709,5.7273,5.7826,5.8378,5.8855,5.9207,5.9508,5.9508,5.9508,5.9508,5.9508,5.9508,5.9508,5.9533,5.9684,5.9885,6.0261,6.0763,6.119,6.1617,6.1818,6.1994,6.2195,6.222,6.222,6.2446,6.2496,6.2647,6.2756,6.2781,6.2697,6.2571,6.2471,6.2471,6.2521,6.2606,6.2822,6.2781,6.2781,6.2756,6.2606,5.086,5.0927,5.1714,5.2401,5.2886,5.2851,5.2816,5.2816,5.2764,5.2764,5.2898,5.318,5.4082,5.5132,5.5836,5.6478,5.6877,5.6719,5.6641,5.6603,5.6564,5.6525,5.6505,5.6505,5.6447,5.631,5.6343,5.6553,5.6991,5.729,5.7384,5.7341,5.8235,5.8691,5.8709,5.8752,5.8746,5.8381,5.7778,5.7346,5.706,5.6658,5.6323,5.6003,5.5731,5.5481,5.5294,5.5418,5.5433,5.5807,5.6199,5.6374,5.619,5.6251,5.602,5.5496,5.4847,5.4934,5.5063,5.4893,5.4767,5.4908,5.4978,5.4619,5.4209,5.4243,5.4445,5.4607,5.529,5.5767,5.6093,5.6219,5.6219,5.6445,5.6872,5.7349,5.7876,5.8504,5.8981,5.9282,5.9508,5.9508,5.9508,5.9508,5.9508,5.9508,5.9533,5.9558,5.9859,6.0186,6.0738,6.1291,6.1768,6.2169,6.2295,6.2496,6.2747,6.2781,6.2781,6.2781,6.2747,6.2747,6.2797,6.2781,6.2781,6.2772,6.2647,6.2747,6.2781,6.2781,6.2781,6.2781,6.2781,6.2781,6.2781,5.1266,5.1334,5.2346,5.2802,5.2868,5.2694,5.2624,5.2606,5.2498,5.246,5.2725,5.3735,5.4744,5.5539,5.6117,5.6547,5.668,5.6505,5.6427,5.6362,5.6264,5.6225,5.6225,5.6225,5.6185,5.6126,5.6217,5.6469,5.6873,5.7393,5.7975,5.8754,5.8604,5.8817,5.8809,5.8673,5.8358,5.7965,5.7448,5.7132,5.6916,5.6609,5.625,5.5979,5.5731,5.5456,5.5239,5.5408,5.5742,5.6166,5.647,5.6498,5.6365,5.6366,5.5962,5.5173,5.4926,5.5092,5.5254,5.4925,5.473,5.4875,5.4813,5.4436,5.4082,5.4641,5.4849,5.4733,5.5415,5.5993,5.6194,5.6219,5.6219,5.642,5.6872,5.7449,5.8027,5.873,5.9156,5.9408,5.9508,5.9508,5.9508,5.9508,5.9508,5.9508,5.9558,5.9608,6.0261,6.0663,6.1266,6.1818,6.2345,6.2606,6.2656,6.2781,6.2781,6.2781,6.2781,6.2781,6.2756,6.2781,6.2781,6.2781,6.2781,6.2781,6.2781,6.2781,6.2781,6.2781,6.2781,6.2781,6.2781,6.2781,6.2781,5.1176,5.1655,5.2062,5.2358,5.2604,5.2516,5.248,5.2445,5.2284,5.2386,5.2756,5.4119,5.4974,5.5421,5.5961,5.6343,5.6323,5.6264,5.6225,5.6205,5.6126,5.6106,5.6086,5.6026,5.6046,5.6017,5.6189,5.6591,5.7074,5.7485,5.8192,5.8685,5.8703,5.8729,5.8728,5.8404,5.7941,5.7543,5.7234,5.6988,5.6609,5.6372,5.6028,5.5755,5.5481,5.557,5.5756,5.5864,5.6273,5.665,5.6827,5.6675,5.6423,5.6394,5.5816,5.5021,5.4943,5.5212,5.5193,5.4744,5.458,5.484,5.4575,5.4166,5.4014,5.4493,5.4708,5.4959,5.5541,5.6168,5.6219,5.6219,5.6244,5.642,5.6821,5.7424,5.8052,5.873,5.9232,5.9408,5.9483,5.9508,5.9508,5.9508,5.9508,5.9508,5.9583,5.9784,6.0462,6.104,6.1567,6.2094,6.2556,6.2731,6.2781,6.2781,6.2781,6.2781,6.2781,6.2781,6.2781,6.2781,6.2781,6.2781,6.2781,6.2781,6.2781,6.2781,6.2781,6.2781,6.2781,6.2781,6.2781,6.2781,6.2781,5.1321,5.178,5.178,5.1977,5.2212,5.2212,5.223,5.2194,5.2068,5.2499,5.3203,5.4415,5.5155,5.545,5.5811,5.6106,5.6106,5.6046,5.6026,5.5947,5.5866,5.5826,5.5786,5.5718,5.5653,5.5819,5.6115,5.6519,5.7441,5.7692,5.817,5.8604,5.8724,5.8532,5.8395,5.7941,5.7472,5.7211,5.6995,5.6827,5.6445,5.6151,5.588,5.5691,5.5566,5.5662,5.602,5.6255,5.6667,5.6925,5.7006,5.6849,5.6566,5.6193,5.5642,5.5219,5.5039,5.5279,5.4965,5.489,5.4804,5.5015,5.4443,5.4098,5.4082,5.4338,5.4582,5.4697,5.5516,5.6219,5.6219,5.6219,5.6219,5.6344,5.6734,5.7323,5.7876,5.8504,5.9006,5.9408,5.9458,5.9508,5.9508,5.9508,5.9508,5.9508,5.9533,5.9935,6.0763,6.1266,6.1667,6.222,6.2747,6.2781,6.2781,6.2781,6.2781,6.2781,6.2781,6.2781,6.2781,6.2781,6.2781,6.2781,6.2781,6.2781,6.2781,6.2781,6.2781,6.2781,6.2781,6.2781,6.2781,6.2781,6.2781,5.1743,5.178,5.1776,5.1743,5.1762,5.1831,5.1817,5.1919,5.1995,5.266,5.3795,5.4698,5.5332,5.5758,5.5854,5.5866,5.5866,5.5766,5.5706,5.5604,5.5401,5.5196,5.5198,5.5201,5.549,5.5762,5.6167,5.6872,5.7744,5.7732,5.8078,5.8214,5.8173,5.8011,5.8096,5.7488,5.7132,5.706,5.6875,5.664,5.6372,5.6077,5.5805,5.5802,5.59,5.597,5.634,5.6675,5.6998,5.7077,5.7014,5.6794,5.6451,5.6135,5.5553,5.4784,5.5243,5.5303,5.5028,5.5336,5.5281,5.498,5.4335,5.403,5.4057,5.4322,5.4597,5.4672,5.5566,5.6118,5.6219,5.6219,5.6219,5.6319,5.6721,5.7161,5.775,5.8177,5.8679,5.9307,5.9458,5.9508,5.9508,5.9508,5.9508,5.9508,5.9508,6.0035,6.0889,6.1366,6.1692,6.2295,6.2781,6.2781,6.2781,6.2781,6.2781,6.2781,6.2781,6.2781,6.2781,6.2781,6.2781,6.2781,6.2781,6.2781,6.2781,6.2781,6.2781,6.2781,6.2781,6.2781,6.2781,6.2781,6.2781,5.1199,5.1181,5.1067,5.0978,5.1105,5.1592,5.178,5.194,5.2627,5.3363,5.4004,5.4762,5.5081,5.5225,5.5278,5.531,5.529,5.5196,5.5146,5.5146,5.4948,5.4906,5.4951,5.5261,5.557,5.5964,5.6453,5.6902,5.7371,5.7602,5.7719,5.7793,5.7629,5.7448,5.7393,5.7132,5.7067,5.6875,5.6664,5.6397,5.6127,5.591,5.5842,5.5926,5.6128,5.64,5.6796,5.7185,5.7238,5.7257,5.7133,5.6709,5.6337,5.6019,5.5348,5.4918,5.5254,5.5761,5.5575,5.5538,5.508,5.4705,5.4335,5.3929,5.3784,5.4309,5.4517,5.4823,5.5591,5.6068,5.6219,5.6219,5.6219,5.6219,5.657,5.7072,5.7549,5.7901,5.8353,5.9106,5.9508,5.9508,5.9508,5.9508,5.9508,5.9508,5.9508,6.006,6.0864,6.1215,6.1567,6.232,6.2781,6.2781,6.2781,6.2781,6.2781,6.2781,6.2781,6.2781,6.2781,6.2781,6.2781,6.2781,6.2781,6.2781,6.2781,6.2781,6.2781,6.2781,6.2781,6.2781,6.2781,6.2781,6.2781,5.0781,5.0781,5.0666,5.0608,5.0685,5.1181,5.1485,5.1902,5.3032,5.3753,5.4034,5.4668,5.4927,5.4854,5.4813,5.4813,5.4813,5.4813,5.4813,5.4792,5.4676,5.4867,5.5144,5.5345,5.5703,5.6169,5.6689,5.7158,5.739,5.7628,5.7574,5.7393,5.7156,5.7036,5.6971,5.6875,5.6851,5.6689,5.647,5.6225,5.5954,5.5771,5.5812,5.6119,5.6392,5.6716,5.7256,5.746,5.7451,5.744,5.7078,5.6623,5.625,5.5729,5.5142,5.4971,5.4978,5.5491,5.5595,5.5445,5.4905,5.4368,5.4098,5.3827,5.3715,5.4204,5.4492,5.4898,5.5641,5.6018,5.6219,5.6219,5.6219,5.6219,5.6394,5.6872,5.7298,5.765,5.8202,5.8956,5.9483,5.9483,5.9508,5.9508,5.9508,5.9508,5.9508,6.0136,6.0738,6.104,6.1416,6.2169,6.2747,6.2756,6.2756,6.2781,6.2781,6.2781,6.2781,6.2781,6.2781,6.2781,6.2781,6.2781,6.2781,6.2781,6.2781,6.2781,6.2781,6.2781,6.2781,6.2781,6.2781,6.2781,6.2781,5.0589,5.057,5.057,5.0531,5.055,5.0678,5.1113,5.1805,5.3137,5.3713,5.38,5.4515,5.4687,5.4708,5.4708,5.4666,5.4624,5.4624,5.4624,5.4613,5.4486,5.4835,5.5065,5.5257,5.583,5.6404,5.6854,5.7175,5.7425,5.7417,5.7306,5.7163,5.7019,5.6803,5.6664,5.6592,5.6592,5.6421,5.625,5.6003,5.5731,5.5732,5.5977,5.6342,5.6706,5.701,5.7424,5.7592,5.7494,5.7247,5.6766,5.6509,5.6078,5.5496,5.4995,5.4693,5.4521,5.5018,5.5432,5.5272,5.4738,5.42,5.3997,5.3759,5.3757,5.4058,5.4482,5.4924,5.5541,5.5917,5.6219,5.6219,5.6219,5.6219,5.6219,5.662,5.7035,5.7512,5.8102,5.8704,5.9257,5.9433,5.9483,5.9508,5.9508,5.9508,5.9533,5.9709,6.0286,6.0763,6.1215,6.1943,6.2421,6.2681,6.2731,6.2781,6.2781,6.2781,6.2781,6.2781,6.2781,6.2781,6.2781,6.2781,6.2781,6.2781,6.2781,6.2781,6.2781,6.2781,6.2781,6.2781,6.2781,6.2781,6.2781,5.003,4.9892,4.9721,4.9673,4.983,5.071,5.1857,5.3088,5.3565,5.3855,5.421,5.4264,5.4231,5.4092,5.3888,5.3835,5.3813,5.377,5.377,5.3895,5.4307,5.4511,5.4934,5.5556,5.6152,5.6598,5.6934,5.7073,5.7117,5.7115,5.7026,5.6875,5.6706,5.6519,5.6397,5.6299,5.6201,5.6102,5.5954,5.5841,5.5792,5.5882,5.6269,5.6747,5.7107,5.7409,5.7727,5.7744,5.7557,5.7021,5.6623,5.6337,5.6048,5.5259,5.4653,5.4867,5.49,5.5138,5.5413,5.5039,5.4503,5.4064,5.3793,5.3418,5.3473,5.3913,5.4522,5.4913,5.5541,5.6043,5.6219,5.6219,5.6219,5.6219,5.6244,5.647,5.686,5.7336,5.7951,5.8654,5.9182,5.9458,5.9483,5.9508,5.9508,5.9508,5.9533,5.9633,5.9885,6.0362,6.0964,6.1692,6.2169,6.2471,6.2706,6.2781,6.2781,6.2781,6.2781,6.2781,6.2781,6.2781,6.2781,6.2781,6.2781,6.2781,6.2781,6.2781,6.2781,6.2781,6.2781,6.2781,6.2781,6.2781,6.2781,4.9613,4.9493,4.934,4.9592,5.0227,5.1256,5.247,5.3429,5.3587,5.3756,5.3975,5.3878,5.3758,5.3649,5.354,5.3443,5.3465,5.3518,5.3612,5.4081,5.4229,5.4857,5.5436,5.5914,5.6365,5.6746,5.6955,5.706,5.6923,5.673,5.6616,5.647,5.6299,5.6201,5.6053,5.5904,5.578,5.5706,5.5661,5.5682,5.5886,5.6119,5.6615,5.7209,5.7538,5.7715,5.7941,5.7781,5.736,5.6936,5.6566,5.6221,5.5843,5.5128,5.4603,5.4777,5.4981,5.514,5.5267,5.4846,5.4376,5.403,5.3682,5.3341,5.3479,5.3893,5.4346,5.4798,5.5566,5.6219,5.6219,5.6219,5.6219,5.6219,5.6294,5.6333,5.6734,5.7223,5.7876,5.8566,5.9056,5.9382,5.9508,5.9508,5.9508,5.9508,5.9508,5.9533,5.9759,6.0136,6.0738,6.1416,6.1868,6.2245,6.2521,6.2756,6.2781,6.2781,6.2781,6.2781,6.2781,6.2781,6.2781,6.2781,6.2781,6.2781,6.2781,6.2781,6.2781,6.2781,6.2781,6.2781,6.2781,6.2781,6.2781,4.9199,4.9189,4.9272,4.9978,5.1285,5.1927,5.257,5.3258,5.3227,5.3334,5.3399,5.3377,5.3409,5.3387,5.3299,5.3246,5.3317,5.3379,5.3699,5.4402,5.4623,5.516,5.5767,5.6263,5.647,5.6762,5.6851,5.6689,5.6664,5.6494,5.6274,5.6003,5.5979,5.5904,5.5755,5.5606,5.5571,5.5681,5.5731,5.5852,5.6124,5.638,5.6728,5.7446,5.7535,5.7471,5.7662,5.7501,5.7163,5.6822,5.6509,5.6077,5.5459,5.5212,5.4809,5.4717,5.4975,5.5168,5.5101,5.4679,5.4309,5.3997,5.3657,5.3273,5.335,5.3959,5.4471,5.4798,5.5516,5.6093,5.6219,5.6219,5.6219,5.6219,5.6244,5.6294,5.647,5.7072,5.7901,5.8579,5.9131,5.9433,5.9508,5.9508,5.9508,5.9508,5.9508,5.9508,5.9608,5.9935,6.0387,6.104,6.1466,6.1893,6.2395,6.2606,6.2756,6.2781,6.2781,6.2781,6.2781,6.2781,6.2781,6.2781,6.2781,6.2781,6.2781,6.2781,6.2781,6.2781,6.2781,6.2781,6.2781,6.2781,6.2781,4.8469,4.8384,4.8882,4.9839,5.1031,5.1245,5.1725,5.2337,5.2337,5.2765,5.3268,5.3233,5.3144,5.31,5.2922,5.2877,5.3001,5.3349,5.3688,5.4306,5.4769,5.5325,5.5919,5.619,5.6401,5.6402,5.6372,5.625,5.6201,5.6127,5.6077,5.5979,5.583,5.5631,5.5586,5.5461,5.555,5.5803,5.6102,5.6184,5.6346,5.7004,5.7562,5.7703,5.7635,5.7599,5.7613,5.7276,5.6908,5.6509,5.625,5.5642,5.4875,5.5056,5.4889,5.4575,5.502,5.5215,5.4961,5.4537,5.4132,5.3827,5.3487,5.317,5.3281,5.412,5.4672,5.4974,5.5365,5.5892,5.6219,5.6219,5.6219,5.6219,5.6219,5.6219,5.6219,5.7022,5.7876,5.8504,5.9106,5.9357,5.9433,5.9508,5.9508,5.9508,5.9508,5.9508,5.9508,5.9684,5.9935,6.0487,6.1014,6.1492,6.2094,6.2455,6.2647,6.2797,6.2781,6.2781,6.2781,6.2781,6.2781,6.2781,6.2781,6.2781,6.2781,6.2781,6.2781,6.2781,6.2781,6.2781,6.2781,6.2781,6.2781,4.8274,4.8563,4.9482,5.0302,5.097,5.1304,5.1668,5.1941,5.2025,5.2269,5.2721,5.2676,5.2639,5.2608,5.2458,5.268,5.2833,5.3185,5.3828,5.4463,5.4915,5.5411,5.5828,5.6085,5.6152,5.6176,5.6077,5.5979,5.5855,5.5805,5.5805,5.5681,5.5481,5.5461,5.5466,5.555,5.5803,5.6192,5.6597,5.6788,5.6791,5.7351,5.7732,5.7751,5.7768,5.7697,5.736,5.7022,5.6709,5.6164,5.5671,5.5114,5.4649,5.4828,5.4777,5.473,5.4949,5.5372,5.4872,5.4402,5.3963,5.3657,5.3282,5.2929,5.303,5.3758,5.4346,5.4697,5.5591,5.6168,5.6194,5.6219,5.6219,5.6219,5.6219,5.6219,5.6369,5.6846,5.7549,5.8152,5.8704,5.9182,5.9307,5.9508,5.9508,5.9508,5.9508,5.9508,5.9508,5.9508,5.9709,5.996,6.0487,6.124,6.1969,6.2295,6.2471,6.2621,6.2772,6.2781,6.2781,6.2781,6.2781,6.2781,6.2781,6.2781,6.2781,6.2781,6.2781,6.2781,6.2781,6.2781,6.2781,6.2781,6.2781,4.8378,4.9194,5.0283,5.0857,5.1001,5.1522,5.1741,5.1741,5.1795,5.1787,5.1834,5.1857,5.1857,5.2002,5.2177,5.2572,5.302,5.3516,5.4168,5.4661,5.5056,5.5548,5.5804,5.5948,5.5929,5.588,5.5805,5.5681,5.5556,5.5531,5.5456,5.5229,5.5234,5.5264,5.5504,5.5837,5.6256,5.6665,5.71,5.7538,5.7662,5.7697,5.7753,5.7772,5.7725,5.7445,5.7078,5.6766,5.6509,5.5932,5.5231,5.472,5.4448,5.46,5.461,5.4639,5.503,5.5068,5.4645,5.4241,5.3861,5.3512,5.3101,5.2955,5.302,5.3406,5.3959,5.4723,5.5591,5.6118,5.6143,5.6219,5.6219,5.6219,5.6219,5.6219,5.6445,5.6659,5.7248,5.7826,5.8353,5.8855,5.9156,5.9357,5.9508,5.9508,5.9508,5.9508,5.9508,5.9508,5.9583,5.9709,5.9985,6.0788,6.1567,6.2094,6.227,6.2471,6.2621,6.2747,6.2781,6.2781,6.2781,6.2781,6.2781,6.2781,6.2781,6.2781,6.2781,6.2781,6.2781,6.2781,6.2781,6.2781,6.2781,4.8303,4.9423,4.9713,5.0099,5.0573,5.0781,5.0787,5.0811,5.0834,5.0876,5.1065,5.1105,5.1316,5.2009,5.2609,5.3011,5.325,5.3849,5.4382,5.4916,5.5334,5.5717,5.5874,5.5706,5.5531,5.5481,5.5431,5.533,5.5355,5.5305,5.5255,5.5204,5.5234,5.5444,5.5957,5.629,5.6575,5.7044,5.7393,5.7707,5.7735,5.7768,5.7801,5.7696,5.7529,5.7248,5.6908,5.6623,5.6336,5.5816,5.5141,5.4589,5.4416,5.4396,5.4485,5.4625,5.5037,5.4842,5.4477,5.4106,5.3759,5.3444,5.3101,5.2895,5.3046,5.3331,5.3909,5.4522,5.5326,5.5817,5.5968,5.6143,5.6219,5.6219,5.6219,5.6219,5.6319,5.6646,5.701,5.7575,5.8064,5.8491,5.8842,5.9156,5.9508,5.9508,5.9508,5.9508,5.9508,5.9508,5.9508,5.9583,5.9659,5.996,6.0563,6.1642,6.2019,6.227,6.2521,6.2722,6.2781,6.2781,6.2781,6.2781,6.2781,6.2781,6.2781,6.2781,6.2781,6.2781,6.2781,6.2781,6.2781,6.2781,6.2781]},{"header":{"parameterUnit":"m.s-1","parameterCategory":1,"la1":31.0,"la2":29.5877,"lo1":-88.7671,"lo2":-86.6584,"dx":0.0162,"dy":0.0185,"nx":115,"ny":88,"refTime":"2022-11-05T06:00:00:Z","depth":0,"parameterNumber":3,"parameterNumberName":"V-component_of_WINDS"},"data":[0.0,0.0,0.0,0.0,0.0,0.0,0.0,0.0,0.0,0.0,0.0,0.0,0.0,0.0,0.0,0.0,0.0,0.0,0.0,0.0,0.0,0.0,0.0,0.0,0.0,0.0,0.0,0.0,0.0,0.0,0.0,0.0,0.0,0.0,0.0,0.0,0.0,0.0,0.0,0.0,0.0,0.0,0.0,0.0,0.0,0.0,0.0,0.0,0.0,0.0,0.0,0.0,0.0,0.0,0.0,0.0,0.0,0.0,0.0,0.0,0.0,0.0,0.0,0.0,0.0,0.0,0.0,0.0,0.0,0.0,0.0,0.0,0.0,0.0,0.0,0.0,0.0,0.0,0.0,0.0,0.0,0.0,0.0,0.0,0.0,0.0,0.0,0.0,0.0,0.0,0.0,0.0,0.0,0.0,0.0,0.0,0.0,0.0,0.0,0.0,0.0,0.0,0.0,0.0,0.0,0.0,0.0,0.0,0.0,0.0,0.0,0.0,0.0,0.0,0.0,0.0,0.0,0.0,0.0,0.0,0.0,0.0,0.0,0.0,0.0,0.0,0.0,0.0,0.0,0.0,0.0,0.0,0.0,0.0,0.0,0.0,0.0,0.0,0.0,0.0,0.0,0.0,0.0,0.0,0.0,0.0,0.0,0.0,0.0,0.0,0.0,0.0,0.0,0.0,0.0,0.0,0.0,0.0,0.0,0.0,0.0,0.0,0.0,0.0,0.0,0.0,0.0,0.0,0.0,0.0,0.0,0.0,0.0,0.0,0.0,0.0,0.0,0.0,0.0,0.0,0.0,0.0,0.0,0.0,0.0,0.0,0.0,0.0,0.0,0.0,0.0,0.0,0.0,0.0,0.0,0.0,0.0,0.0,0.0,0.0,0.0,0.0,0.0,0.0,0.0,0.0,0.0,0.0,0.0,0.0,0.0,0.0,0.0,0.0,0.0,0.0,0.0,0.0,0.0,0.0,0.0,0.0,0.0,0.0,0.0,0.0,0.0,0.0,0.0,0.0,0.0,0.0,0.0,0.0,0.0,0.0,0.0,0.0,0.0,0.0,0.0,0.0,0.0,0.0,0.0,0.0,0.0,0.0,0.0,0.0,0.0,0.0,0.0,0.0,0.0,0.0,0.0,0.0,0.0,0.0,0.0,0.0,0.0,0.0,0.0,0.0,0.0,0.0,0.0,0.0,0.0,0.0,0.0,0.0,0.0,0.0,0.0,0.0,0.0,0.0,0.0,0.0,0.0,0.0,0.0,0.0,0.0,0.0,0.0,0.0,0.0,0.0,0.0,0.0,0.0,0.0,0.0,0.0,0.0,0.0,0.0,0.0,0.0,0.0,0.0,0.0,0.0,0.0,0.0,0.0,0.0,0.0,0.0,0.0,0.0,0.0,0.0,0.0,0.0,0.0,0.0,0.0,0.0,0.0,0.0,0.0,0.0,0.0,0.0,0.0,0.0,0.0,0.0,0.0,0.0,0.0,0.0,0.0,0.0,0.0,0.0,0.0,0.0,0.0,0.0,0.0,0.0,0.0,0.0,0.0,0.0,0.0,0.0,0.0,0.0,0.0,0.0,0.0,0.0,0.0,0.0,0.0,0.0,0.0,0.0,0.0,0.0,0.0,0.0,0.0,0.0,0.0,0.0,0.0,0.0,0.0,0.0,0.0,0.0,0.0,0.0,0.0,0.0,0.0,0.0,0.0,0.0,0.0,0.0,0.0,0.0,0.0,0.0,0.0,0.0,0.0,0.0,0.0,0.0,0.0,0.0,0.0,0.0,0.0,0.0,0.0,0.0,0.0,0.0,0.0,0.0,0.0,0.0,0.0,0.0,0.0,0.0,0.0,0.0,0.0,0.0,0.0,0.0,0.0,0.0,0.0,0.0,0.0,0.0,0.0,0.0,0.0,0.0,0.0,0.0,0.0,0.0,0.0,0.0,0.0,0.0,0.0,0.0,0.0,0.0,0.0,0.0,0.0,0.0,0.0,0.0,0.0,0.0,0.0,0.0,0.0,0.0,0.0,0.0,0.0,0.0,0.0,0.0,0.0,0.0,0.0,0.0,0.0,0.0,0.0,0.0,0.0,0.0,0.0,0.0,0.0,0.0,0.0,0.0,0.0,0.0,0.0,0.0,0.0,0.0,0.0,0.0,0.0,0.0,0.0,0.0,0.0,0.0,0.0,0.0,0.0,0.0,0.0,0.0,0.0,0.0,0.0,0.0,0.0,0.0,0.0,0.0,0.0,0.0,0.0,0.0,0.0,0.0,0.0,0.0,0.0,0.0,0.0,0.0,0.0,0.0,0.0,0.0,0.0,0.0,0.0,0.0,0.0,0.0,0.0,0.0,0.0,0.0,0.0,0.0,0.0,0.0,0.0,0.0,0.0,0.0,0.0,0.0,0.0,0.0,0.0,0.0,0.0,0.0,0.0,0.0,0.0,0.0,0.0,0.0,0.0,0.0,0.0,0.0,0.0,0.0,0.0,0.0,0.0,0.0,0.0,0.0,0.0,0.0,0.0,0.0,0.0,0.0,0.0,0.0,0.0,0.0,0.0,0.0,0.0,0.0,0.0,0.0,0.0,0.0,0.0,0.0,0.0,0.0,0.0,0.0,0.0,0.0,0.0,0.0,0.0,0.0,0.0,0.0,0.0,0.0,0.0,0.0,0.0,0.0,0.0,0.0,0.0,0.0,0.0,0.0,0.0,0.0,0.0,0.0,0.0,0.0,0.0,0.0,0.0,0.0,0.0,0.0,0.0,0.0,0.0,0.0,0.0,0.0,0.0,0.0,0.0,0.0,0.0,0.0,0.0,0.0,0.0,0.0,0.0,0.0,0.0,0.0,0.0,0.0,0.0,0.0,0.0,0.0,0.0,0.0,0.0,0.0,0.0,0.0,0.0,0.0,0.0,0.0,0.0,0.0,0.0,0.0,0.0,0.0,0.0,0.0,0.0,0.0,0.0,0.0,0.0,0.0,0.0,0.0,0.0,0.0,0.0,0.0,0.0,0.0,0.0,0.0,0.0,0.0,0.0,0.0,0.0,0.0,0.0,0.0,0.0,0.0,0.0,0.0,0.0,0.0,0.0,0.0,0.0,0.0,0.0,0.0,0.0,0.0,0.0,0.0,0.0,0.0,0.0,0.0,0.0,0.0,0.0,0.0,0.0,0.0,0.0,0.0,0.0,0.0,0.0,0.0,0.0,0.0,0.0,0.0,0.0,0.0,0.0,0.0,0.0,0.0,0.0,0.0,0.0,0.0,0.0,0.0,0.0,0.0,0.0,0.0,0.0,0.0,0.0,0.0,0.0,0.0,0.0,0.0,0.0,0.0,0.0,0.0,0.0,0.0,0.0,0.0,0.0,0.0,0.0,0.0,0.0,0.0,0.0,0.0,0.0,0.0,0.0,0.0,0.0,0.0,0.0,0.0,0.0,0.0,0.0,0.0,0.0,0.0,0.0,0.0,0.0,0.0,0.0,0.0,0.0,0.0,0.0,0.0,0.0,0.0,0.0,0.0,0.0,0.0,0.0,0.0,0.0,0.0,0.0,0.0,0.0,0.0,0.0,0.0,0.0,0.0,0.0,0.0,0.0,0.0,0.0,0.0,0.0,0.0,0.0,0.0,0.0,0.0,0.0,0.0,0.0,0.0,0.0,0.0,0.0,0.0,0.0,0.0,0.0,0.0,0.0,0.0,0.0,0.0,0.0,0.0,0.0,0.0,0.0,0.0,0.0,0.0,0.0,0.0,0.0,0.0,0.0,0.0,0.0,0.0,0.0,0.0,0.0,0.0,0.0,0.0,0.0,0.0,0.0,0.0,0.0,0.0,0.0,0.0,0.0,0.0,0.0,0.0,0.0,0.0,0.0,0.0,0.0,0.0,0.0,0.0,0.0,0.0,0.0,0.0,0.0,0.0,0.0,0.0,0.0,0.0,0.0,0.0,0.0,0.0,0.0,0.0,0.0,0.0,0.0,0.0,0.0,0.0,0.0,0.0,0.0,0.0,0.0,0.0,0.0,0.0,0.0,0.0,0.0,0.0,0.0,0.0,0.0,0.0,0.0,0.0,0.0,0.0,0.0,0.0,0.0,0.0,0.0,0.0,0.0,0.0,0.0,0.0,0.0,0.0,0.0,0.0,0.0,0.0,0.0,0.0,0.0,0.0,0.0,0.0,0.0,0.0,0.0,0.0,0.0,0.0,0.0,0.0,0.0,0.0,0.0,0.0,0.0,0.0,0.0,0.0,0.0,0.0,0.0,2.3071,0.0,0.0,0.0,2.1734,0.0,0.0,0.0,0.0,0.0,0.0,0.0,0.0,0.0,0.0,0.0,0.0,0.0,0.0,0.0,0.0,0.0,0.0,0.0,0.0,0.0,0.0,0.0,0.0,0.0,0.0,0.0,0.0,0.0,0.0,0.0,0.0,0.0,0.0,0.0,0.0,0.0,0.0,0.0,0.0,0.0,0.0,0.0,0.0,0.0,0.0,0.0,0.0,0.0,0.0,0.0,0.0,0.0,0.0,0.0,0.0,0.0,0.0,0.0,0.0,0.0,0.0,0.0,0.0,0.0,0.0,0.0,0.0,0.0,0.0,0.0,0.0,0.0,0.0,0.0,0.0,0.0,0.0,0.0,0.0,0.0,0.0,0.0,0.0,0.0,0.0,0.0,0.0,0.0,0.0,0.0,0.0,0.0,0.0,0.0,0.0,0.0,0.0,0.0,0.0,0.0,0.0,0.0,0.0,0.0,0.0,0.0,0.0,0.0,0.0,2.346,2.3201,2.3161,2.3041,2.2712,0.0,0.0,0.0,0.0,0.0,0.0,0.0,0.0,0.0,0.0,0.0,0.0,0.0,0.0,0.0,0.0,0.0,0.0,0.0,0.0,0.0,0.0,0.0,0.0,0.0,0.0,0.0,0.0,0.0,0.0,0.0,0.0,0.0,0.0,0.0,0.0,0.0,0.0,0.0,0.0,0.0,0.0,0.0,0.0,0.0,0.0,0.0,0.0,0.0,0.0,0.0,0.0,0.0,0.0,0.0,0.0,0.0,0.0,0.0,0.0,0.0,0.0,0.0,0.0,0.0,0.0,0.0,0.0,0.0,0.0,0.0,0.0,0.0,0.0,0.0,0.0,0.0,0.0,0.0,0.0,0.0,0.0,0.0,0.0,0.0,0.0,0.0,0.0,0.0,0.0,0.0,0.0,0.0,0.0,0.0,0.0,0.0,0.0,0.0,0.0,0.0,0.0,0.0,0.0,0.0,0.0,0.0,0.0,0.0,0.0,0.0,0.0,2.3599,2.352,2.3381,0.0,0.0,0.0,0.0,0.0,0.0,0.0,0.0,0.0,0.0,0.0,0.0,0.0,0.0,0.0,0.0,0.0,0.0,0.0,0.0,0.0,0.0,0.0,0.0,0.0,0.0,0.0,0.0,0.0,0.0,0.0,0.0,0.0,0.0,0.0,0.0,0.0,0.0,0.0,0.0,0.0,0.0,0.0,0.0,0.0,0.0,0.0,0.0,0.0,0.0,0.0,0.0,0.0,0.0,0.0,0.0,0.0,0.0,0.0,0.0,0.0,0.0,0.0,0.0,0.0,0.0,0.0,0.0,0.0,0.0,0.0,0.0,0.0,0.0,0.0,0.0,0.0,0.0,0.0,0.0,0.0,0.0,0.0,0.0,0.0,0.0,0.0,0.0,0.0,0.0,0.0,0.0,0.0,0.0,0.0,0.0,0.0,0.0,0.0,0.0,0.0,0.0,0.0,0.0,0.0,0.0,0.0,0.0,0.0,0.0,2.3599,2.3599,2.3599,0.0,2.2793,0.0,0.0,0.0,0.0,0.0,0.0,0.0,0.0,0.0,0.0,0.0,0.0,0.0,0.0,0.0,0.0,0.0,0.0,0.0,0.0,0.0,0.0,0.0,0.0,0.0,0.0,0.0,0.0,0.0,0.0,0.0,0.0,0.0,0.0,0.0,0.0,0.0,0.0,0.0,0.0,0.0,0.0,0.0,0.0,0.0,0.0,0.0,0.0,0.0,0.0,0.0,0.0,0.0,0.0,0.0,0.0,0.0,0.0,0.0,0.0,0.0,0.0,0.0,0.0,0.0,0.0,0.0,0.0,0.0,0.0,0.0,0.0,0.0,0.0,0.0,0.0,0.0,0.0,0.0,0.0,0.0,0.0,0.0,0.0,0.0,0.0,0.0,0.0,0.0,0.0,0.0,0.0,0.0,0.0,0.0,0.0,0.0,0.0,0.0,0.0,0.0,0.0,0.0,0.0,0.0,0.0,0.0,0.0,0.0,0.0,2.3599,2.3599,2.3599,2.349,0.0,0.0,0.0,0.0,0.0,0.0,0.0,0.0,0.0,0.0,0.0,0.0,0.0,0.0,0.0,0.0,0.0,0.0,0.0,0.0,0.0,0.0,0.0,0.0,0.0,0.0,0.0,0.0,0.0,0.0,0.0,0.0,0.0,0.0,0.0,0.0,0.0,0.0,0.0,0.0,0.0,0.0,0.0,0.0,0.0,0.0,0.0,0.0,0.0,0.0,0.0,0.0,0.0,0.0,0.0,0.0,0.0,0.0,0.0,0.0,0.0,0.0,0.0,0.0,0.0,0.0,0.0,0.0,0.0,0.0,0.0,0.0,0.0,0.0,0.0,0.0,0.0,0.0,0.0,0.0,0.0,0.0,0.0,0.0,0.0,0.0,0.0,0.0,0.0,0.0,0.0,0.0,0.0,0.0,0.0,0.0,0.0,0.0,0.0,0.0,0.0,0.0,0.0,0.0,0.0,0.0,0.0,0.0,0.0,0.0,2.3599,2.3599,2.3599,2.3599,2.3599,2.3599,0.0,0.0,0.0,0.0,0.0,0.0,0.0,0.0,0.0,0.0,0.0,0.0,0.0,0.0,0.0,0.0,0.0,0.0,0.0,0.0,0.0,0.0,0.0,0.0,0.0,0.0,0.0,0.0,0.0,0.0,0.0,0.0,0.0,0.0,0.0,0.0,0.0,0.0,0.0,0.0,0.0,0.0,0.0,0.0,0.0,0.0,0.0,0.0,0.0,0.0,0.0,0.0,0.0,0.0,0.0,0.0,0.0,0.0,0.0,0.0,0.0,0.0,0.0,0.0,0.0,0.0,0.0,0.0,0.0,0.0,0.0,0.0,0.0,0.0,0.0,0.0,0.0,0.0,0.0,0.0,0.0,0.0,0.0,0.0,0.0,0.0,0.0,0.0,0.0,0.0,0.0,0.0,0.0,0.0,0.0,0.0,0.0,0.0,0.0,0.0,0.0,0.0,0.0,0.0,0.0,0.0,0.0,0.0,2.358,2.361,2.361,2.3599,2.361,2.361,0.0,0.0,0.0,0.0,0.0,0.0,0.0,0.0,0.0,0.0,0.0,0.0,0.0,0.0,0.0,0.0,0.0,0.0,0.0,0.0,0.0,0.0,0.0,0.0,0.0,0.0,0.0,0.0,0.0,0.0,0.0,0.0,0.0,0.0,0.0,0.0,0.0,0.0,0.0,0.0,0.0,0.0,0.0,0.0,0.0,0.0,0.0,0.0,0.0,0.0,0.0,0.0,0.0,0.0,0.0,0.0,0.0,0.0,0.0,0.0,0.0,0.0,0.0,0.0,0.0,0.0,0.0,0.0,0.0,0.0,0.0,0.0,0.0,0.0,0.0,0.0,0.0,0.0,0.0,0.0,0.0,0.0,0.0,0.0,0.0,0.0,0.0,0.0,0.0,0.0,0.0,0.0,0.0,0.0,0.0,0.0,0.0,0.0,0.0,0.0,0.0,0.0,0.0,0.0,0.0,0.0,0.0,0.0,0.0,2.358,2.4018,2.4246,2.4257,2.4257,2.4048,0.0,0.0,0.0,0.0,0.0,0.0,0.0,0.0,0.0,0.0,0.0,0.0,0.0,0.0,0.0,0.0,0.0,0.0,0.0,0.0,0.0,0.0,0.0,0.0,0.0,0.0,0.0,0.0,0.0,0.0,0.0,0.0,0.0,0.0,0.0,0.0,0.0,0.0,0.0,0.0,0.0,0.0,0.0,0.0,0.0,0.0,0.0,0.0,0.0,0.0,0.0,0.0,0.0,0.0,0.0,0.0,0.0,0.0,0.0,0.0,0.0,0.0,0.0,0.0,0.0,0.0,0.0,0.0,0.0,0.0,0.0,0.0,0.0,0.0,0.0,0.0,0.0,0.0,0.0,0.0,0.0,0.0,0.0,0.0,0.0,0.0,0.0,0.0,0.0,0.0,0.0,0.0,0.0,0.0,0.0,0.0,0.0,0.0,0.0,0.0,0.0,0.0,0.0,0.0,0.0,0.0,0.0,0.0,0.0,2.3898,2.4586,2.4945,2.4903,2.4713,2.4395,0.0,0.0,0.0,0.0,0.0,0.0,0.0,0.0,0.0,0.0,0.0,0.0,0.0,0.0,0.0,0.0,0.0,0.0,0.0,0.0,0.0,0.0,0.0,0.0,0.0,0.0,0.0,0.0,0.0,0.0,0.0,0.0,0.0,0.0,0.0,0.0,0.0,0.0,0.0,0.0,0.0,0.0,0.0,0.0,0.0,0.0,0.0,0.0,0.0,0.0,0.0,0.0,0.0,0.0,0.0,0.0,0.0,0.0,0.0,0.0,0.0,0.0,0.0,0.0,0.0,0.0,0.0,0.0,0.0,0.0,0.0,0.0,0.0,0.0,0.0,0.0,0.0,0.0,0.0,0.0,0.0,0.0,0.0,0.0,0.0,0.0,0.0,0.0,0.0,0.0,0.0,0.0,0.0,0.0,0.0,0.0,0.0,0.0,0.0,0.0,0.0,0.0,0.0,0.0,0.0,0.0,0.0,0.0,2.3969,2.4605,2.5274,2.5603,2.5603,2.4993,2.4593,0.0,0.0,0.0,0.0,0.0,0.0,0.0,0.0,0.0,0.0,0.0,0.0,0.0,0.0,0.0,0.0,0.0,0.0,0.0,0.0,0.0,0.0,0.0,0.0,0.0,0.0,0.0,0.0,0.0,0.0,0.0,0.0,0.0,0.0,0.0,0.0,0.0,0.0,0.0,0.0,0.0,0.0,0.0,0.0,0.0,0.0,0.0,0.0,0.0,0.0,0.0,0.0,0.0,0.0,0.0,0.0,0.0,0.0,0.0,0.0,0.0,0.0,0.0,0.0,0.0,0.0,0.0,0.0,0.0,0.0,0.0,0.0,0.0,0.0,0.0,0.0,0.0,0.0,0.0,0.0,0.0,0.0,0.0,0.0,0.0,0.0,0.0,0.0,0.0,0.0,0.0,0.0,0.0,0.0,0.0,0.0,0.0,0.0,0.0,0.0,0.0,0.0,0.0,0.0,0.0,0.0,0.0,0.0,0.0,2.5974,2.6183,2.6303,2.6285,2.5633,2.5083,0.0,0.0,0.0,0.0,0.0,0.0,0.0,0.0,0.0,0.0,0.0,0.0,0.0,0.0,0.0,0.0,0.0,0.0,0.0,0.0,0.0,0.0,0.0,0.0,0.0,0.0,0.0,0.0,0.0,0.0,0.0,0.0,0.0,0.0,0.0,0.0,0.0,0.0,0.0,0.0,0.0,0.0,0.0,0.0,0.0,0.0,0.0,0.0,0.0,0.0,0.0,0.0,0.0,0.0,0.0,0.0,0.0,0.0,0.0,0.0,0.0,0.0,0.0,0.0,0.0,0.0,0.0,0.0,0.0,0.0,0.0,0.0,0.0,0.0,0.0,0.0,0.0,0.0,0.0,0.0,0.0,0.0,0.0,0.0,0.0,0.0,0.0,0.0,0.0,0.0,0.0,0.0,0.0,0.0,0.0,0.0,0.0,0.0,0.0,0.0,0.0,0.0,0.0,0.0,0.0,0.0,0.0,0.0,0.0,2.6956,2.6973,2.6986,2.6973,2.6303,2.5663,2.5005,0.0,0.0,0.0,0.0,0.0,0.0,0.0,0.0,0.0,0.0,0.0,0.0,0.0,0.0,0.0,0.0,0.0,0.0,0.0,0.0,0.0,0.0,0.0,0.0,0.0,0.0,0.0,0.0,0.0,0.0,0.0,0.0,0.0,0.0,0.0,0.0,0.0,0.0,0.0,0.0,0.0,0.0,0.0,0.0,0.0,0.0,0.0,0.0,0.0,0.0,0.0,0.0,0.0,0.0,0.0,0.0,0.0,0.0,0.0,0.0,0.0,0.0,0.0,0.0,0.0,0.0,0.0,0.0,0.0,0.0,0.0,0.0,0.0,0.0,0.0,0.0,0.0,0.0,0.0,0.0,0.0,0.0,0.0,0.0,0.0,0.0,0.0,0.0,0.0,0.0,0.0,0.0,0.0,0.0,0.0,0.0,0.0,0.0,0.0,0.0,0.0,0.0,0.0,0.0,0.0,0.0,0.0,0.0,2.7645,2.7705,2.7675,2.7585,2.6944,2.6285,0.0,0.0,0.0,0.0,0.0,0.0,0.0,0.0,0.0,0.0,0.0,0.0,0.0,0.0,0.0,0.0,0.0,0.0,0.0,0.0,0.0,0.0,0.0,0.0,0.0,0.0,0.0,0.0,0.0,0.0,0.0,0.0,0.0,0.0,0.0,0.0,0.0,0.0,0.0,0.0,0.0,0.0,0.0,0.0,0.0,0.0,0.0,0.0,0.0,0.0,0.0,0.0,0.0,0.0,0.0,0.0,0.0,0.0,0.0,0.0,0.0,0.0,0.0,0.0,0.0,0.0,0.0,0.0,0.0,0.0,0.0,0.0,0.0,0.0,0.0,0.0,0.0,0.0,0.0,0.0,0.0,0.0,0.0,0.0,0.0,0.0,0.0,0.0,0.0,0.0,0.0,0.0,0.0,0.0,0.0,0.0,0.0,0.0,0.0,0.0,0.0,0.0,0.0,0.0,0.0,0.0,0.0,0.0,0.0,2.8308,2.88,2.8603,2.7615,2.6956,2.6273,0.0,0.0,0.0,0.0,0.0,0.0,0.0,0.0,0.0,0.0,0.0,0.0,0.0,0.0,0.0,0.0,0.0,0.0,0.0,0.0,0.0,0.0,0.0,0.0,0.0,0.0,0.0,0.0,0.0,0.0,0.0,0.0,0.0,0.0,0.0,0.0,0.0,0.0,0.0,0.0,0.0,0.0,0.0,0.0,0.0,0.0,0.0,0.0,0.0,0.0,0.0,0.0,0.0,0.0,0.0,0.0,0.0,0.0,0.0,0.0,0.0,0.0,0.0,0.0,0.0,0.0,0.0,0.0,0.0,0.0,0.0,0.0,0.0,0.0,0.0,0.0,0.0,0.0,0.0,0.0,0.0,0.0,0.0,0.0,0.0,0.0,0.0,0.0,0.0,0.0,0.0,0.0,0.0,0.0,0.0,0.0,0.0,0.0,0.0,0.0,0.0,0.0,0.0,0.0,0.0,0.0,0.0,0.0,2.8351,2.9009,2.9398,2.9232,2.8453,2.7769,2.6841,0.0,0.0,0.0,0.0,0.0,0.0,0.0,0.0,0.0,0.0,0.0,0.0,0.0,0.0,0.0,0.0,0.0,0.0,0.0,0.0,0.0,0.0,0.0,0.0,0.0,0.0,0.0,0.0,0.0,0.0,0.0,0.0,0.0,0.0,0.0,0.0,0.0,0.0,0.0,0.0,0.0,0.0,0.0,0.0,0.0,0.0,0.0,0.0,0.0,0.0,0.0,0.0,0.0,0.0,0.0,0.0,0.0,0.0,0.0,0.0,0.0,0.0,0.0,0.0,0.0,0.0,0.0,0.0,0.0,0.0,0.0,0.0,0.0,0.0,0.0,0.0,0.0,0.0,0.0,0.0,0.0,0.0,0.0,0.0,0.0,0.0,0.0,0.0,0.0,0.0,0.0,0.0,0.0,0.0,0.0,0.0,0.0,0.0,0.0,0.0,0.0,0.0,0.0,0.0,0.0,0.0,0.0,0.0,2.9013,2.9668,2.9758,2.9758,2.9668,2.8966,2.7709,0.0,0.0,0.0,0.0,0.0,0.0,0.0,0.0,0.0,0.0,0.0,0.0,0.0,0.0,0.0,0.0,0.0,0.0,0.0,0.0,0.0,0.0,0.0,0.0,0.0,0.0,0.0,0.0,0.0,0.0,0.0,0.0,0.0,0.0,0.0,0.0,0.0,0.0,0.0,0.0,0.0,0.0,0.0,0.0,0.0,0.0,0.0,0.0,0.0,0.0,0.0,0.0,0.0,0.0,0.0,0.0,0.0,0.0,0.0,0.0,0.0,0.0,0.0,0.0,0.0,0.0,0.0,0.0,0.0,0.0,0.0,0.0,0.0,0.0,0.0,0.0,0.0,0.0,0.0,0.0,0.0,0.0,0.0,0.0,0.0,0.0,0.0,0.0,0.0,0.0,0.0,0.0,0.0,0.0,0.0,0.0,0.0,0.0,0.0,0.0,0.0,0.0,0.0,0.0,0.0,0.0,0.0,0.0,2.9573,3.0313,3.0837,3.0837,3.0313,2.9205,2.8158,0.0,0.0,0.0,0.0,0.0,0.0,0.0,0.0,0.0,0.0,0.0,0.0,0.0,0.0,0.0,0.0,0.0,0.0,0.0,0.0,0.0,0.0,0.0,0.0,0.0,0.0,0.0,0.0,0.0,0.0,0.0,0.0,0.0,0.0,0.0,0.0,0.0,0.0,0.0,0.0,0.0,0.0,0.0,0.0,0.0,0.0,0.0,0.0,3.0223,0.0,0.0,0.0,0.0,0.0,0.0,0.0,0.0,0.0,0.0,0.0,0.0,0.0,0.0,0.0,0.0,0.0,0.0,0.0,0.0,0.0,0.0,0.0,0.0,0.0,0.0,0.0,0.0,0.0,0.0,0.0,0.0,0.0,0.0,0.0,0.0,0.0,0.0,0.0,0.0,0.0,0.0,0.0,0.0,0.0,0.0,0.0,0.0,0.0,0.0,0.0,0.0,0.0,0.0,0.0,0.0,0.0,0.0,0.0,3.0324,3.1334,3.2049,3.2123,3.1435,3.0478,2.9205,0.0,0.0,0.0,0.0,0.0,0.0,0.0,0.0,0.0,0.0,0.0,0.0,0.0,0.0,0.0,0.0,0.0,0.0,0.0,0.0,0.0,0.0,0.0,0.0,0.0,0.0,0.0,0.0,0.0,0.0,0.0,0.0,0.0,0.0,0.0,0.0,0.0,0.0,0.0,0.0,0.0,0.0,0.0,0.0,0.0,0.0,0.0,0.0,0.0,0.0,0.0,0.0,0.0,0.0,0.0,0.0,0.0,0.0,0.0,0.0,0.0,0.0,0.0,0.0,0.0,0.0,0.0,0.0,0.0,0.0,0.0,0.0,0.0,0.0,0.0,0.0,0.0,0.0,0.0,0.0,0.0,0.0,0.0,0.0,0.0,0.0,0.0,0.0,0.0,0.0,0.0,0.0,0.0,0.0,0.0,0.0,0.0,0.0,0.0,0.0,0.0,0.0,0.0,0.0,0.0,0.0,0.0,2.9835,3.0968,3.2258,3.3049,3.317,3.2512,3.1839,3.0388,2.7991,0.0,0.0,0.0,0.0,0.0,0.0,0.0,0.0,0.0,0.0,0.0,0.0,0.0,0.0,0.0,0.0,0.0,0.0,0.0,0.0,0.0,0.0,0.0,0.0,0.0,0.0,0.0,0.0,0.0,0.0,0.0,0.0,0.0,0.0,0.0,0.0,0.0,0.0,2.7902,3.0089,0.0,0.0,0.0,0.0,0.0,0.0,0.0,0.0,3.3574,0.0,0.0,0.0,0.0,0.0,0.0,0.0,0.0,0.0,0.0,0.0,0.0,0.0,0.0,0.0,0.0,0.0,0.0,0.0,0.0,0.0,0.0,0.0,0.0,0.0,0.0,0.0,0.0,0.0,0.0,0.0,0.0,0.0,0.0,0.0,0.0,0.0,0.0,0.0,0.0,0.0,0.0,0.0,0.0,0.0,0.0,0.0,0.0,0.0,0.0,0.0,0.0,0.0,0.0,0.0,0.0,2.8708,2.9915,3.113,3.2272,3.2927,3.2988,3.2497,3.1854,3.0807,2.9322,0.0,0.0,0.0,0.0,0.0,0.0,0.0,0.0,0.0,0.0,0.0,0.0,0.0,0.0,0.0,0.0,0.0,0.0,0.0,0.0,0.0,0.0,0.0,0.0,0.0,0.0,0.0,0.0,0.0,0.0,0.0,0.0,0.0,0.0,0.0,0.0,0.0,0.0,0.0,3.1241,3.1914,0.0,0.0,0.0,0.0,0.0,0.0,0.0,0.0,3.3335,0.0,0.0,0.0,0.0,0.0,0.0,0.0,0.0,0.0,0.0,0.0,0.0,0.0,0.0,0.0,0.0,0.0,0.0,0.0,0.0,0.0,0.0,0.0,0.0,0.0,0.0,0.0,0.0,0.0,0.0,0.0,0.0,0.0,0.0,0.0,0.0,0.0,0.0,0.0,0.0,0.0,0.0,0.0,0.0,0.0,0.0,0.0,0.0,0.0,0.0,0.0,0.0,0.0,0.0,0.0,2.8654,3.0316,3.1678,3.2846,3.3667,3.384,3.3297,3.2613,3.1545,0.0,0.0,0.0,0.0,0.0,0.0,0.0,0.0,0.0,0.0,0.0,0.0,0.0,0.0,0.0,0.0,0.0,0.0,0.0,0.0,0.0,0.0,0.0,0.0,0.0,0.0,0.0,0.0,0.0,0.0,0.0,0.0,0.0,0.0,0.0,0.0,0.0,0.0,0.0,0.0,3.2676,3.3828,3.4442,0.0,0.0,0.0,0.0,0.0,0.0,3.5729,3.531,0.0,0.0,0.0,0.0,0.0,0.0,0.0,0.0,0.0,0.0,0.0,0.0,0.0,0.0,0.0,0.0,0.0,0.0,0.0,0.0,0.0,0.0,0.0,0.0,0.0,0.0,0.0,0.0,0.0,0.0,0.0,0.0,0.0,0.0,0.0,0.0,0.0,0.0,0.0,0.0,0.0,0.0,0.0,0.0,0.0,0.0,0.0,0.0,0.0,0.0,0.0,0.0,0.0,0.0,0.0,2.8558,3.0571,3.2208,3.3425,3.4322,3.4521,3.412,3.3338,3.2134,0.0,0.0,0.0,0.0,0.0,0.0,0.0,0.0,0.0,0.0,0.0,0.0,0.0,0.0,0.0,0.0,0.0,0.0,0.0,0.0,0.0,0.0,0.0,0.0,0.0,0.0,0.0,0.0,0.0,0.0,0.0,0.0,0.0,0.0,0.0,0.0,0.0,0.0,0.0,0.0,0.0,3.5609,3.5832,3.6729,0.0,0.0,0.0,0.0,3.7387,3.7387,0.0,0.0,0.0,0.0,0.0,0.0,0.0,0.0,0.0,0.0,0.0,0.0,0.0,0.0,0.0,0.0,0.0,0.0,0.0,0.0,0.0,0.0,0.0,0.0,0.0,0.0,0.0,0.0,0.0,0.0,0.0,0.0,0.0,0.0,0.0,0.0,0.0,0.0,0.0,0.0,0.0,0.0,0.0,0.0,0.0,0.0,0.0,0.0,0.0,0.0,0.0,0.0,0.0,0.0,0.0,0.0,2.8263,3.0399,3.225,3.3671,3.4065,3.4274,3.4505,3.3381,3.2171,0.0,0.0,0.0,0.0,0.0,0.0,0.0,0.0,0.0,0.0,0.0,0.0,0.0,0.0,0.0,0.0,0.0,0.0,0.0,0.0,0.0,0.0,0.0,0.0,0.0,0.0,0.0,0.0,0.0,0.0,0.0,0.0,0.0,0.0,0.0,0.0,0.0,0.0,0.0,0.0,0.0,3.5908,3.7045,3.7298,3.7387,0.0,0.0,3.7387,3.7387,3.7387,0.0,0.0,0.0,0.0,0.0,0.0,0.0,0.0,0.0,0.0,0.0,0.0,0.0,0.0,0.0,0.0,0.0,0.0,0.0,0.0,0.0,0.0,0.0,0.0,0.0,0.0,0.0,0.0,0.0,0.0,0.0,0.0,0.0,0.0,0.0,0.0,0.0,0.0,0.0,0.0,0.0,0.0,0.0,0.0,0.0,0.0,0.0,0.0,0.0,0.0,0.0,0.0,0.0,0.0,0.0,2.6581,2.8746,3.0676,3.2343,3.3658,3.4455,3.4768,3.4553,3.3748,3.2629,0.0,0.0,0.0,0.0,0.0,0.0,0.0,0.0,0.0,0.0,0.0,0.0,0.0,0.0,0.0,0.0,0.0,0.0,0.0,0.0,0.0,0.0,0.0,0.0,0.0,0.0,0.0,0.0,0.0,0.0,0.0,0.0,0.0,0.0,0.0,0.0,0.0,0.0,0.0,0.0,0.0,0.0,3.8344,3.8853,0.0,0.0,0.0,3.9667,3.9649,0.0,0.0,0.0,0.0,0.0,0.0,0.0,0.0,0.0,0.0,0.0,0.0,0.0,0.0,0.0,0.0,0.0,0.0,0.0,0.0,0.0,0.0,0.0,0.0,0.0,0.0,0.0,0.0,0.0,0.0,0.0,0.0,0.0,0.0,0.0,0.0,0.0,0.0,0.0,0.0,0.0,0.0,0.0,0.0,0.0,0.0,0.0,0.0,0.0,0.0,0.0,0.0,0.0,0.0,0.0,0.0,0.0,2.8972,3.0841,3.2389,3.3578,3.4585,3.4993,3.4739,3.397,0.0,0.0,0.0,0.0,0.0,0.0,0.0,0.0,0.0,0.0,0.0,0.0,0.0,0.0,0.0,0.0,0.0,0.0,0.0,0.0,0.0,0.0,0.0,0.0,0.0,0.0,0.0,2.374,0.0,0.0,0.0,0.0,0.0,0.0,0.0,0.0,0.0,0.0,0.0,0.0,0.0,0.0,3.8315,3.9481,4.0247,4.0834,0.0,0.0,4.1403,4.1403,4.0984,4.0487,0.0,0.0,0.0,0.0,0.0,0.0,0.0,0.0,0.0,0.0,0.0,0.0,0.0,0.0,0.0,0.0,0.0,0.0,0.0,0.0,0.0,0.0,0.0,0.0,0.0,0.0,0.0,0.0,0.0,0.0,0.0,0.0,0.0,0.0,0.0,0.0,0.0,0.0,0.0,0.0,0.0,0.0,0.0,0.0,0.0,0.0,0.0,0.0,0.0,0.0,0.0,0.0,0.0,0.0,2.7207,2.8489,3.0646,3.2384,3.358,3.4025,3.4632,3.5272,3.3798,3.3003,0.0,0.0,0.0,0.0,0.0,0.0,0.0,0.0,0.0,0.0,0.0,0.0,0.0,0.0,0.0,0.0,0.0,0.0,0.0,0.0,0.0,0.0,0.0,0.0,0.0,0.0,0.0,0.0,0.0,0.0,0.0,0.0,0.0,0.0,0.0,0.0,0.0,0.0,0.0,0.0,0.0,3.9541,4.0247,4.0924,4.1373,0.0,4.1403,4.1403,4.1403,4.1403,4.1313,4.1254,0.0,0.0,0.0,0.0,0.0,0.0,0.0,0.0,0.0,0.0,0.0,0.0,0.0,0.0,0.0,0.0,0.0,0.0,0.0,0.0,0.0,0.0,0.0,0.0,0.0,0.0,0.0,0.0,0.0,0.0,0.0,0.0,0.0,0.0,0.0,0.0,0.0,0.0,0.0,0.0,0.0,0.0,0.0,0.0,0.0,0.0,0.0,0.0,0.0,0.0,0.0,0.0,0.0,2.7481,2.9055,3.0753,3.2258,3.3549,3.4373,3.4799,3.4841,3.4328,3.3586,0.0,0.0,0.0,0.0,0.0,0.0,0.0,0.0,0.0,0.0,0.0,0.0,0.0,0.0,0.0,0.0,0.0,0.0,0.0,0.0,0.0,0.0,0.0,0.0,0.0,0.0,0.0,0.0,2.8021,2.8843,2.8843,0.0,0.0,0.0,0.0,0.0,0.0,0.0,0.0,0.0,0.0,4.0079,4.1934,4.2432,0.0,0.0,4.3798,4.3828,4.3808,4.3449,4.304,4.2622,4.2252,0.0,0.0,0.0,0.0,0.0,0.0,0.0,0.0,0.0,0.0,0.0,0.0,0.0,0.0,0.0,0.0,0.0,0.0,0.0,0.0,0.0,0.0,0.0,0.0,0.0,0.0,1.4184,1.4193,0.0,0.0,0.0,0.0,0.0,0.0,0.0,0.0,0.0,0.0,0.0,0.0,0.0,0.0,0.0,0.0,0.0,0.0,0.0,0.0,0.0,0.0,0.0,0.0,2.7875,2.9667,3.0997,3.2231,3.3357,3.4322,3.4668,3.4392,3.4466,3.3907,3.2651,0.0,0.0,0.0,0.0,0.0,0.0,0.0,0.0,0.0,0.0,0.0,0.0,0.0,0.0,0.0,0.0,0.0,0.0,0.0,0.0,0.0,0.0,0.0,0.0,0.0,0.0,0.0,2.9681,3.0566,3.0746,0.0,0.0,0.0,0.0,0.0,0.0,0.0,0.0,0.0,0.0,4.1227,4.305,4.3688,4.4257,4.5155,4.5274,4.5274,4.5274,4.4885,4.4416,4.3967,0.0,0.0,0.0,0.0,0.0,0.0,0.0,0.0,0.0,0.0,0.0,0.0,0.0,0.0,0.0,0.0,0.0,0.0,0.0,0.0,0.0,0.0,0.0,0.0,0.0,0.0,0.0,1.6436,0.0,0.0,1.65,0.0,0.0,0.0,0.0,0.0,0.0,0.0,0.0,0.0,0.0,0.0,0.0,0.0,0.0,0.0,0.0,0.0,0.0,0.0,0.0,0.0,0.0,2.8424,3.0056,3.1397,3.2388,3.2957,3.372,3.4152,3.4147,3.3951,3.3818,3.3713,0.0,0.0,0.0,0.0,0.0,0.0,0.0,0.0,0.0,0.0,0.0,0.0,0.0,0.0,0.0,0.0,0.0,0.0,0.0,0.0,0.0,0.0,0.0,0.0,0.0,0.0,3.0342,3.1659,3.2677,0.0,0.0,0.0,0.0,0.0,0.0,0.0,0.0,0.0,3.9451,4.1586,4.325,4.3349,4.4436,4.5304,4.5364,4.5334,4.5334,4.5394,4.5334,4.5295,0.0,0.0,0.0,0.0,0.0,0.0,0.0,0.0,0.0,0.0,0.0,0.0,0.0,0.0,0.0,0.0,0.0,0.0,0.0,0.0,0.0,0.0,0.0,0.0,0.0,0.0,0.0,1.8706,1.8694,0.0,0.0,0.0,0.0,0.0,0.0,0.0,0.0,0.0,0.0,0.0,2.5335,2.5569,0.0,0.0,0.0,0.0,0.0,0.0,0.0,0.0,0.0,0.0,0.0,0.0,2.9517,3.045,3.1595,3.271,3.3704,3.404,3.4429,3.494,3.4551,3.3788,3.2625,0.0,0.0,0.0,0.0,0.0,0.0,0.0,0.0,0.0,0.0,0.0,0.0,0.0,0.0,0.0,0.0,0.0,0.0,0.0,0.0,0.0,0.0,0.0,0.0,0.0,3.1046,0.0,0.0,0.0,0.0,0.0,0.0,0.0,0.0,0.0,0.0,3.8853,4.0049,4.1784,4.2751,4.3818,4.5104,4.6031,4.677,0.0,0.0,0.0,0.0,0.0,0.0,0.0,0.0,0.0,0.0,0.0,0.0,0.0,4.5903,4.5035,4.4157,4.4187,4.4337,4.4317,0.0,0.0,0.0,0.0,0.0,0.0,0.0,0.0,0.0,0.0,0.0,0.0,0.0,0.0,2.0952,2.0952,2.0952,0.0,0.0,0.0,0.0,0.0,0.0,0.0,0.0,2.587,2.644,2.7336,2.7537,2.7638,2.7656,2.7638,2.7243,0.0,0.0,0.0,0.0,0.0,0.0,0.0,0.0,3.0231,3.114,3.2064,3.3032,3.4044,3.4294,3.4638,3.5127,3.4681,3.3875,3.2654,3.1626,3.0553,0.0,0.0,0.0,0.0,0.0,0.0,0.0,0.0,0.0,0.0,0.0,0.0,0.0,0.0,0.0,0.0,0.0,0.0,0.0,0.0,0.0,0.0,0.0,3.3589,0.0,0.0,0.0,0.0,0.0,0.0,0.0,0.0,0.0,4.0079,4.0498,4.1466,4.3399,4.4267,4.5164,4.645,0.0,0.0,0.0,0.0,0.0,0.0,0.0,4.9179,4.8708,4.8648,4.8498,4.8079,4.7997,4.7997,4.8019,0.0,0.0,4.6232,4.6172,4.6343,4.6322,4.689,4.7317,4.7339,4.8207,4.9045,0.0,0.0,0.0,0.0,2.2182,0.0,0.0,0.0,2.3085,2.312,0.0,2.312,0.0,0.0,0.0,0.0,2.4825,2.4892,0.0,0.0,2.7921,2.8455,2.9007,2.9553,2.9829,2.9849,2.9804,2.9804,2.9679,2.7706,2.6901,0.0,0.0,0.0,0.0,0.0,3.0658,3.2169,3.2864,3.3395,3.3972,3.4452,3.4728,3.4751,3.4423,3.411,3.3713,3.2639,3.1519,3.0445,2.9302,0.0,0.0,0.0,0.0,0.0,0.0,0.0,0.0,0.0,0.0,0.0,0.0,0.0,0.0,0.0,0.0,0.0,0.0,0.0,0.0,3.537,0.0,0.0,0.0,0.0,0.0,0.0,0.0,0.0,0.0,4.1523,4.1703,4.2611,4.3609,4.4296,0.0,0.0,0.0,0.0,4.9307,4.9337,4.9337,4.9366,4.9366,4.9366,4.9366,4.9396,0.0,0.0,4.9449,4.9426,4.9456,4.9426,4.9509,4.9007,4.7788,4.7997,4.8349,4.8386,4.8917,4.9366,4.9426,4.9912,5.0518,2.3327,0.0,0.0,0.0,0.0,2.3531,2.3789,2.4061,2.422,2.4299,2.4299,2.434,0.0,0.0,0.0,0.0,0.0,0.0,2.7846,2.9095,2.9654,3.0161,3.0683,3.0859,3.0934,3.0954,3.0934,3.0934,3.0929,3.0301,2.9698,2.9101,0.0,0.0,0.0,0.0,3.2386,3.2842,3.3771,3.4502,3.5006,3.5182,3.5282,3.5257,3.5175,3.4891,3.4426,3.3341,3.263,3.2281,3.0961,0.0,0.0,0.0,0.0,0.0,0.0,0.0,0.0,0.0,0.0,0.0,0.0,0.0,0.0,0.0,0.0,0.0,0.0,0.0,3.6088,3.7225,3.8033,0.0,0.0,0.0,0.0,0.0,0.0,0.0,0.0,0.0,4.5394,4.4676,4.4625,0.0,0.0,4.7638,4.8588,4.9434,4.9949,4.9949,5.0361,0.0,5.0661,5.0661,5.081,5.1289,5.1738,5.2091,5.2091,5.2091,5.2091,5.2061,5.2061,5.1941,5.1552,5.0451,4.989,5.0278,5.09,5.1349,5.1409,5.1887,5.2396,2.4015,2.3532,2.3856,2.423,2.4637,2.5011,2.5307,2.5601,2.5789,2.59,2.5858,2.5858,2.6074,2.639,2.6659,0.0,0.0,0.0,2.9578,3.0457,3.1235,3.1763,3.2085,3.2537,3.2717,3.2717,3.2717,3.2717,3.2696,3.2717,3.239,3.1738,0.0,3.1341,3.1612,3.2813,3.352,3.3746,3.4577,3.5157,3.5483,3.5732,3.5832,3.5832,3.5631,3.5332,3.5029,3.4198,3.3646,3.3395,3.2365,3.1286,0.0,0.0,0.0,0.0,0.0,0.0,0.0,0.0,0.0,0.0,0.0,2.814,3.028,0.0,0.0,0.0,3.5759,3.6866,3.8434,3.9218,0.0,0.0,0.0,0.0,0.0,0.0,0.0,4.3967,4.4925,4.6052,4.7459,4.686,4.6732,4.7938,4.8297,4.8723,4.9553,0.0,5.0697,5.0966,5.1349,5.1708,5.1947,5.2007,5.2127,5.2516,5.2905,5.3198,5.3198,5.3198,5.3198,5.3228,5.3408,5.3683,5.3947,5.3174,5.2372,5.2097,5.2306,5.2665,5.2935,5.3533,5.4067,2.4202,2.4623,2.5475,2.5915,2.6085,2.6705,2.7107,2.7313,2.7519,2.7637,2.7637,2.7637,2.7662,2.7711,2.8441,0.0,2.9896,3.0473,3.1044,3.1541,3.2692,3.3241,3.3266,3.4223,3.4703,3.4703,3.4703,3.4703,3.4678,3.4678,3.4703,3.4653,3.3197,3.2717,3.3219,3.3771,3.4274,3.4753,3.5282,3.5606,3.5633,3.6207,3.6556,3.6507,3.5983,3.5683,3.5631,3.513,3.46,3.4048,3.3495,3.2738,3.1637,0.0,0.0,0.0,0.0,0.0,0.0,0.0,0.0,0.0,0.0,0.0,0.0,0.0,0.0,3.74,3.9409,0.0,4.0696,4.1265,0.0,0.0,0.0,4.29,4.3539,4.4167,4.4775,4.5454,0.0,0.0,4.8446,4.9067,4.9486,4.9576,5.0002,5.0285,5.0368,5.0966,5.1565,5.2157,5.2276,5.2486,5.2989,5.3169,5.3288,5.3384,5.3408,5.3588,5.3648,5.3648,5.3558,5.3677,5.4042,5.464,5.5239,5.5743,5.5683,5.3857,5.3588,5.3767,5.4371,5.494,5.5478,2.5672,2.5847,2.6606,2.6683,2.6388,2.7372,2.7932,2.8129,2.8524,2.8718,2.8718,2.8718,2.8944,2.9337,2.9937,3.0298,3.0532,3.1683,3.2265,3.2486,3.3734,3.4327,3.4327,3.4577,3.4703,3.4703,3.4703,3.4703,3.4703,3.4703,3.4703,3.4703,3.468,3.4577,3.4349,3.4853,3.5205,3.5307,3.5881,3.6383,3.6784,3.7337,3.7613,3.7613,3.7487,3.7236,3.681,3.6281,3.573,3.5155,3.4603,3.4022,3.3345,3.2688,0.0,0.0,0.0,0.0,0.0,0.0,0.0,0.0,0.0,3.22,3.5299,0.0,3.7013,0.0,4.1044,4.2331,4.325,4.3519,0.0,0.0,4.4636,4.4885,4.5544,4.6181,4.683,4.751,4.8319,4.9247,5.0391,5.0661,5.1139,5.2091,5.1498,5.1146,5.1648,5.2306,5.2755,5.2929,5.2959,5.3019,5.3234,5.3623,5.4162,5.464,5.5144,5.5653,5.6102,5.6192,5.6192,5.6166,5.6286,5.6466,5.6615,5.6795,5.6735,5.6286,5.6192,5.6196,5.6376,5.6555,5.6705,2.601,2.6256,2.7008,2.7239,2.7174,2.7995,2.8454,2.868,2.9097,2.924,2.924,2.9318,2.9589,2.9983,3.0622,3.1094,3.1473,3.2481,3.3044,3.3338,3.4406,3.4919,3.4967,3.5307,3.5454,3.5454,3.5454,3.5454,3.5454,3.5705,3.583,3.583,3.6334,3.6459,3.6183,3.6234,3.6359,3.6635,3.6935,3.7261,3.7538,3.7839,3.799,3.799,3.799,3.7864,3.7563,3.7286,3.696,3.661,3.5881,3.5328,3.5024,3.4022,3.3169,0.0,0.0,0.0,0.0,0.0,0.0,0.0,0.0,0.0,0.0,0.0,3.9621,4.1944,4.308,4.4077,4.5104,4.5194,4.5574,4.6552,4.6621,4.689,4.7549,4.7938,4.8536,4.9494,4.9912,5.0631,5.1917,5.2097,5.2336,5.3109,5.2815,5.2576,5.2636,5.2965,5.3294,5.3563,5.3623,5.3862,5.4426,5.5059,5.5598,5.5957,5.6346,5.6731,5.7034,5.7094,5.7094,5.7124,5.7334,5.7663,5.7932,5.8231,5.8501,5.88,5.889,5.868,5.8112,5.7992,5.8112,2.5902,2.6332,2.705,2.7565,2.7977,2.8498,2.8865,2.9124,2.9427,2.9556,2.9599,2.9792,2.9984,3.0271,3.0963,3.1666,3.2355,3.3028,3.3563,3.4029,3.4848,3.526,3.5309,3.6042,3.6387,3.6387,3.6462,3.6512,3.6512,3.7012,3.7238,3.7263,3.7739,3.804,3.809,3.7663,3.7613,3.799,3.8065,3.8115,3.8115,3.8165,3.8216,3.8216,3.8216,3.8191,3.8115,3.8115,3.809,3.7965,3.711,3.6606,3.6581,3.5127,3.4321,0.0,3.4128,0.0,0.0,0.0,0.0,0.0,0.0,0.0,0.0,4.1087,4.2387,4.4515,4.5304,4.5963,4.6629,4.6689,4.716,4.8289,4.8476,4.8798,4.9426,4.9606,5.0145,5.1349,5.1445,5.1947,5.3139,5.3348,5.3348,5.3707,5.4132,5.4281,5.3832,5.3767,5.3947,5.4401,5.4521,5.5089,5.5983,5.6671,5.7034,5.7154,5.7214,5.7274,5.7573,5.7573,5.7543,5.7723,5.8231,5.8713,5.9279,5.9817,6.0356,6.0805,6.0894,6.0565,5.9668,5.9368,5.9757,2.6703,2.6801,2.7332,2.7589,2.773,2.8458,2.9171,2.976,3.0187,3.0523,3.0701,3.0723,3.1003,3.1379,3.1542,3.1919,3.251,3.343,3.3931,3.4028,3.5036,3.5521,3.5545,3.6111,3.6406,3.6431,3.6826,3.7048,3.7048,3.737,3.7518,3.7543,3.7841,3.8241,3.8693,0.0,0.0,0.0,3.8492,3.8743,3.8743,3.917,3.9396,3.9396,3.9371,0.0,3.8768,3.8718,3.8517,3.804,3.7814,0.0,3.7688,0.0,0.0,0.0,0.0,0.0,0.0,0.0,0.0,0.0,4.0724,4.1212,4.1735,4.3883,4.5678,4.6629,4.7339,4.8019,4.8678,4.8738,4.8828,4.9097,4.9553,5.0099,5.078,5.1319,5.1947,5.2719,5.2839,5.3114,5.3892,5.4012,5.4431,5.5384,5.5743,5.5983,5.6256,5.5833,5.5653,5.5833,5.6137,5.6585,5.6885,5.7064,5.7483,5.7752,5.7905,5.8351,5.9219,5.9485,5.9727,6.0116,6.0448,6.0478,6.0685,6.0864,6.0984,6.1104,6.1106,6.1016,6.0775,6.0715,6.0777,2.664,2.6924,2.7143,2.7381,0.0,2.8021,2.8511,2.9024,2.9737,3.0262,3.0606,3.0744,3.1044,3.1505,3.1786,3.2183,3.2721,3.3362,3.3791,3.4101,3.4872,3.5333,3.5624,3.6162,3.6555,3.68,3.707,3.7193,3.7218,3.7614,3.7813,3.7813,3.8187,3.8613,3.9117,3.9219,3.912,3.8843,3.912,3.9296,3.9321,3.9546,3.9697,3.9697,3.9697,0.0,0.0,0.0,0.0,0.0,0.0,0.0,0.0,3.7889,3.756,3.7547,3.753,3.787,3.8635,3.9338,4.0354,4.1736,4.3392,4.4347,4.4323,4.6334,4.7776,4.8237,4.8588,4.9187,5.0122,5.0212,5.0504,5.1133,5.1498,5.1828,5.2157,5.2486,5.2959,5.3593,5.4007,5.4431,5.5089,5.5478,5.5867,5.6496,5.6641,5.6735,5.703,5.6825,5.6641,5.6671,5.7184,5.7723,5.8052,5.8411,5.88,5.9428,5.958,5.985,6.0475,6.0595,6.0715,6.1044,6.1076,6.1194,6.1553,6.1613,6.1702,6.2032,6.2331,6.254,6.251,6.2061,6.1702,2.6352,2.6781,2.6958,2.7242,2.7601,2.778,2.7992,2.8279,2.9107,0.0,0.0,3.0477,3.089,3.1389,3.1845,3.2313,3.2845,3.3138,3.3518,3.3988,3.4552,3.5036,3.5492,3.6084,3.6648,3.7114,3.7211,3.7285,3.7361,3.7852,3.8074,3.8123,3.8567,3.8995,3.9355,3.9641,3.9821,3.9921,3.9872,3.9898,3.9973,3.9998,3.9973,3.9973,3.9973,3.9998,3.9973,3.9973,3.9973,3.9973,3.9471,3.9195,3.917,3.8668,3.8464,3.8586,3.888,3.9393,4.0293,4.1005,4.2031,4.343,4.5557,4.679,4.6881,4.8229,4.9221,4.9515,4.9703,5.0295,5.1439,5.1535,5.1977,5.3079,5.3318,5.3378,5.3384,5.3618,5.4037,5.4521,5.5149,5.5718,5.6252,5.6731,5.7154,5.7244,5.7304,5.7423,5.7543,5.7633,5.7573,5.7782,5.8381,5.8892,5.9368,5.9817,6.0475,6.0807,6.0986,6.1164,6.1253,6.1283,6.1313,6.1553,6.1553,6.1912,6.2331,6.26,6.278,6.3318,6.3797,6.4186,6.4096,6.3378,6.2869,2.6159,2.6275,2.7142,2.7549,2.7667,2.8452,2.8986,2.9214,2.9171,2.9642,3.0466,3.0468,3.0927,3.1638,3.1737,3.2056,3.2557,3.3055,3.3348,3.3465,3.436,3.4846,3.4964,3.5913,3.6566,3.687,3.7328,3.7649,3.7887,3.8198,3.8352,3.8378,3.8659,3.9036,3.9558,3.9899,4.0282,4.073,4.0494,4.0625,4.1076,4.1076,4.1076,4.1076,4.1051,4.1076,4.1076,4.1076,4.1076,4.1051,4.0549,4.03,4.0275,3.9979,3.9702,3.9469,3.969,4.0415,4.1701,4.2337,4.3739,4.6149,4.7257,4.7808,4.7927,4.9054,5.0014,5.0543,5.1291,5.2097,5.2839,5.2875,5.2989,5.3258,5.3743,5.4047,5.4132,5.5085,5.5713,5.5863,5.6492,5.6825,5.6944,5.7124,5.7483,5.7872,5.8141,5.8411,5.9189,5.9189,5.9099,5.9608,6.0236,6.0657,6.0775,6.0864,6.1044,6.1076,6.1196,6.1523,6.1972,6.2091,6.2271,6.272,6.3139,6.3498,6.3707,6.4216,6.4396,6.4575,6.4755,6.4845,6.4845,6.4665,6.4575,2.6655,2.6849,2.7297,2.7577,2.7747,2.8346,2.8773,2.9132,2.9174,2.9618,3.0237,3.0283,3.0618,3.1226,3.1529,3.1791,3.2037,3.2594,3.3005,3.3277,3.3887,3.4534,3.5196,3.5841,3.6426,3.695,3.7186,3.7385,3.7518,3.7812,3.7971,3.8022,3.8659,3.914,3.9411,3.9974,4.0584,4.132,4.1068,4.1051,4.1302,4.1302,4.1302,4.1302,4.1302,4.1302,4.1302,4.1302,4.1302,4.1302,4.1076,4.0926,4.0926,4.0991,4.1,4.1029,4.126,4.1874,4.2947,4.4122,4.5616,4.7423,4.8475,4.9247,4.9745,5.0397,5.1065,5.1832,5.2431,5.2995,5.3653,5.3743,5.4012,5.4755,5.5089,5.5418,5.5748,5.6256,5.6671,5.6761,5.7244,5.7636,5.7636,5.8261,5.8827,5.9159,5.9431,5.9997,6.0565,6.0715,6.0685,6.0685,6.0924,6.1225,6.1583,6.1642,6.1792,6.2091,6.248,6.278,6.3139,6.3348,6.3767,6.4066,6.4395,6.4486,6.4545,6.4755,6.4964,6.5054,6.5323,6.5473,6.5562,6.5832,6.5832,2.7139,2.7298,2.7498,2.7751,2.808,2.833,2.8609,2.8966,2.9173,2.9533,2.9968,3.0096,3.041,3.0806,3.124,3.1424,3.1523,3.2148,3.267,3.3053,3.3562,3.4343,3.526,3.5634,3.6183,3.6854,3.6904,3.6982,3.7143,3.7358,3.7613,3.784,3.8626,3.9158,3.9479,4.0141,4.0854,4.1623,4.1606,4.1624,4.1679,4.1679,4.1679,4.1679,4.1679,4.1679,4.1679,4.1679,4.1679,4.1679,4.1553,4.1503,4.153,4.1753,4.197,4.2209,4.25,4.3101,4.4115,4.5816,4.7214,4.8221,4.943,5.0465,5.1289,5.1683,5.2142,5.2833,5.3138,5.3669,5.4466,5.467,5.5119,5.6252,5.6402,5.6521,5.7004,5.7214,5.7334,5.7423,5.8052,5.859,5.877,5.9578,6.0236,6.0326,6.0894,6.1313,6.1403,6.1972,6.2241,6.1942,6.1672,6.1882,6.2391,6.254,6.2839,6.3408,6.3887,6.4096,6.4246,6.4635,6.4934,6.4934,6.5114,6.5203,6.5233,6.5413,6.5503,6.5652,6.5951,6.6221,6.6251,6.655,6.667,2.7031,2.7147,2.7778,2.8415,2.8918,2.8991,2.9011,2.9051,2.9124,2.9309,2.9661,3.0146,3.0505,3.0776,3.0853,3.0879,3.0995,3.1954,3.2429,3.2661,3.3861,3.4549,3.4733,3.5191,3.5767,3.6332,3.6386,3.6603,3.6985,3.714,3.754,3.8262,3.8438,3.9128,4.017,4.0595,4.1055,4.1594,4.2136,4.2557,4.2836,4.2864,4.2838,4.2836,4.2838,4.2864,4.2788,4.2864,4.2811,4.2813,4.2361,4.211,4.2114,4.2144,4.2182,4.2261,4.2735,4.3571,4.5014,4.6929,4.8269,4.8923,5.0058,5.1098,5.1932,5.2558,5.2989,5.3356,5.3603,5.4444,5.5807,5.5983,5.6252,5.6885,5.7004,5.706,5.7274,5.7663,5.8022,5.7995,5.9159,5.9907,5.9907,6.0535,6.0984,6.1134,6.1702,6.2121,6.2211,6.3019,6.3707,6.3558,6.3258,6.3169,6.3617,6.3827,6.4006,6.4605,6.4845,6.4904,6.4934,6.4994,6.5024,6.5413,6.5562,6.5892,6.6041,6.634,6.67,6.652,6.667,6.6849,6.6879,6.6939,6.6849,2.7773,2.7819,2.8081,2.839,2.8628,2.8787,2.8887,2.8887,2.9026,2.9185,2.9317,2.9527,2.9895,3.0334,3.049,3.0695,3.1016,3.1581,3.2174,3.269,3.3345,3.3923,3.4532,3.4736,3.5179,3.573,3.5758,3.589,3.6159,3.6713,3.7379,3.8103,3.8674,3.9386,4.0096,4.0549,4.1042,4.1553,4.1834,4.2203,4.2653,4.2902,4.3014,4.3014,4.3014,4.3014,4.3014,4.3014,4.3014,4.2989,4.2788,4.2746,4.2886,4.3092,4.3263,4.3478,4.4463,4.5342,4.5955,4.7699,4.897,4.9542,5.0669,5.1647,5.2409,5.3343,5.4074,5.4488,5.4768,5.5436,5.653,5.6731,5.6974,5.7543,5.7693,5.7992,5.88,5.9099,5.9398,5.9847,6.0356,6.0685,6.0775,6.1283,6.1822,6.2211,6.281,6.3169,6.3288,6.4036,6.4486,6.4575,6.4366,6.4336,6.4575,6.4605,6.4725,6.4964,6.5353,6.5592,6.5652,6.5981,6.6191,6.6131,6.634,6.652,6.658,6.6729,6.6999,6.7029,6.6999,6.6999,6.6999,6.6999,6.7119,2.8301,2.8301,2.8301,2.8301,2.8327,2.8514,2.8594,2.8594,2.8787,2.8893,2.8993,2.912,2.9466,2.9943,3.0212,3.0584,3.1025,3.1544,3.2144,3.278,3.2984,3.3491,3.4233,3.4255,3.4568,3.5091,3.5146,3.5296,3.5624,3.644,3.7284,3.8055,3.8896,3.9518,3.9969,4.0487,4.0913,4.1292,4.1492,4.1806,4.2231,4.2653,4.293,4.2986,4.3014,4.3014,4.3014,4.3014,4.3014,4.3014,4.3014,4.3129,4.3406,4.3836,4.4403,4.5026,4.6106,4.6782,4.6891,4.8409,4.9553,5.0048,5.1186,5.2252,5.2959,5.3906,5.4903,5.5787,5.6051,5.6496,5.7221,5.7363,5.7663,5.8264,5.853,5.9099,5.9934,6.0234,6.0535,6.0986,6.1194,6.1435,6.1702,6.2241,6.2839,6.3258,6.3827,6.4276,6.4336,6.4815,6.5263,6.5263,6.5383,6.5443,6.5323,6.5263,6.5293,6.5592,6.6041,6.6281,6.6281,6.6729,6.6969,6.661,6.6909,6.6969,6.6849,6.6939,6.7178,6.7268,6.7388,6.7508,6.7717,6.7567,6.7747,2.8301,2.8301,2.8301,2.8301,2.8301,2.8327,2.8327,2.8354,2.8354,2.8488,2.878,2.9164,2.9532,2.9857,3.0147,3.0415,3.0849,3.1876,3.2406,3.2602,3.3212,3.3565,3.3614,3.3664,3.3974,3.4534,3.459,3.5067,3.5972,3.6471,3.7263,3.8418,3.8845,3.9389,4.0082,4.0484,4.0682,4.0826,4.1263,4.1606,4.172,4.2231,4.2653,4.293,4.3014,4.3014,4.3014,4.3014,4.3014,4.3014,4.3039,4.3154,4.3482,4.4275,4.5294,4.6544,4.7119,4.7478,4.7863,4.9091,4.9995,5.0269,5.1694,5.2909,5.3507,5.4254,5.5369,5.6991,5.7102,5.7433,5.8005,5.8175,5.8411,5.9009,5.9638,5.9967,6.0174,6.0775,6.1044,6.1255,6.1792,6.2361,6.2929,6.3557,6.3797,6.4066,6.4516,6.4964,6.5054,6.5532,6.5892,6.6071,6.634,6.667,6.6131,6.5951,6.6221,6.643,6.658,6.6879,6.6939,6.6969,6.7029,6.7089,6.7268,6.7268,6.7089,6.7178,6.7478,6.7807,6.8315,6.8555,6.8405,6.8764,6.8884,2.8301,2.8301,2.8301,2.8301,2.8301,2.8301,2.8301,2.8301,2.8301,2.8511,2.8827,2.9003,2.9384,2.9936,3.0346,3.0668,3.1014,3.1648,3.2076,3.2372,3.2815,3.3154,3.3324,3.3353,3.3523,3.3918,3.4142,3.4803,3.5823,3.6601,3.7434,3.818,3.8644,3.9242,3.9843,4.0065,4.0299,4.0706,4.0942,4.1201,4.1578,4.1806,4.2146,4.2653,4.2902,4.3014,4.3014,4.3014,4.3137,4.3489,4.3542,4.3919,4.473,4.5468,4.6154,4.6866,4.76,4.8121,4.8509,4.9747,5.0768,5.1211,5.2456,5.3537,5.422,5.5119,5.6186,5.7116,5.7694,5.8263,5.9145,5.9398,5.9458,5.9757,6.0326,6.0894,6.1283,6.1613,6.1882,6.2361,6.2929,6.3558,6.4066,6.4486,6.4605,6.4695,6.5203,6.5562,6.5742,6.6221,6.661,6.664,6.6819,6.6909,6.6729,6.664,6.6729,6.6849,6.6969,6.6999,6.7059,6.7508,6.7658,6.7747,6.7807,6.8016,6.8016,6.8166,6.8345,6.8495,6.9034,6.9243,6.8974,6.9273,6.9423,2.8301,2.8301,2.8301,2.8301,2.8301,2.8301,2.8301,2.832,2.8437,2.8652,2.8898,2.9199,2.9623,3.0077,3.0568,3.0851,3.1088,3.1459,3.1848,3.2141,3.242,3.2698,3.2898,3.3012,3.3182,3.3515,3.3948,3.4739,3.5808,3.6641,3.7362,3.8035,3.8535,3.9019,3.9455,3.9684,4.0065,4.045,4.0648,4.0971,4.143,4.1549,4.1932,4.2563,4.2981,4.3178,4.3237,4.3266,4.3517,4.3966,4.4066,4.4604,4.5716,4.642,4.7037,4.7589,4.8186,4.8737,4.9214,5.0433,5.1348,5.1819,5.3078,5.4138,5.4822,5.5782,5.671,5.7471,5.8136,5.8976,5.9891,6.0503,6.0655,6.0565,6.1014,6.1583,6.2032,6.2271,6.2718,6.3258,6.3887,6.4456,6.4904,6.5174,6.5293,6.5323,6.5891,6.6281,6.64,6.667,6.7119,6.7299,6.7359,6.7508,6.7627,6.7747,6.7478,6.7508,6.7717,6.7597,6.7567,6.8047,6.8317,6.8375,6.8585,6.8884,6.9064,6.9183,6.9273,6.9303,6.9662,6.9961,6.9812,6.9692,6.9901,2.8301,2.8301,2.8301,2.8301,2.8301,2.8301,2.8301,2.8398,2.8703,2.8898,2.9133,2.9785,3.0126,3.0322,3.0683,3.0918,3.1024,3.1439,3.1698,3.1816,3.2133,3.2305,3.2363,3.2612,3.2939,3.3344,3.3974,3.4973,3.6078,3.6578,3.7168,3.7858,3.841,3.8752,3.8841,3.9426,3.9867,4.0188,4.0479,4.085,4.1172,4.1483,4.2013,4.277,4.3189,4.3526,4.3783,4.3815,4.4066,4.4514,4.4589,4.5186,4.6279,4.6991,4.7801,4.8713,4.9043,4.9385,5.0036,5.1093,5.1735,5.2265,5.3528,5.4823,5.545,5.6128,5.6973,5.8057,5.8754,5.9448,6.0275,6.1224,6.1672,6.1313,6.1702,6.2121,6.2331,6.275,6.3348,6.4006,6.4665,6.4964,6.5174,6.5622,6.6011,6.6131,6.658,6.6999,6.7029,6.7178,6.7388,6.7808,6.8017,6.8167,6.8555,6.8944,6.8556,6.8317,6.8525,6.8615,6.8555,6.8794,6.8944,6.9064,6.9303,6.9572,6.9662,6.9782,6.9931,7.0051,7.041,7.059,7.047,7.035,7.053,2.8301,2.8301,2.8301,2.8301,2.8301,2.8301,2.8437,2.8711,2.8859,2.9258,2.9766,3.0078,3.0371,3.0644,3.0869,3.0928,3.0928,3.1112,3.1286,3.1498,3.1787,3.2076,3.2277,3.2383,3.2835,3.3662,3.4501,3.5223,3.587,3.6514,3.7084,3.7585,3.7998,3.8395,3.8782,3.9019,3.9367,3.9867,4.0217,4.0508,4.0874,4.1533,4.2118,4.2578,4.3212,4.3928,4.4568,4.4452,4.4644,4.5196,4.5221,4.5742,4.6792,4.7561,4.825,4.8983,4.9096,4.9712,5.0835,5.1508,5.2317,5.3298,5.4516,5.5423,5.6051,5.6676,5.7556,5.8672,5.9107,5.9773,6.1173,6.1792,6.2032,6.1822,6.2391,6.2959,6.3348,6.3977,6.4665,6.5263,6.5562,6.5862,6.6251,6.664,6.667,6.6729,6.7269,6.7688,6.7748,6.8016,6.8375,6.8675,6.8704,6.8826,6.9183,6.9512,6.9453,6.9183,6.9303,6.9423,6.9393,6.9453,6.9602,6.9752,6.9991,7.0141,7.0231,7.032,7.044,7.053,7.0709,7.0829,7.0889,7.0919,7.0919,2.8301,2.8301,2.8301,2.8301,2.832,2.8437,2.8645,2.8937,2.9277,2.9707,3.0156,3.0391,3.0605,3.0888,3.0928,3.0928,3.0928,3.0928,3.0995,3.1199,3.1469,3.173,3.2001,3.2374,3.3044,3.3945,3.4727,3.5323,3.5816,3.6304,3.6758,3.7184,3.7547,3.7968,3.8455,3.8723,3.9078,3.9596,3.9925,4.034,4.0956,4.1534,4.2193,4.2939,4.3654,4.4423,4.5191,4.527,4.5392,4.5783,4.5981,4.6514,4.7209,4.7824,4.8489,4.8979,4.9396,5.0036,5.1249,5.2116,5.29,5.4082,5.5167,5.5966,5.648,5.7138,5.8139,5.8967,5.9697,6.0544,6.1798,6.2361,6.251,6.281,6.3169,6.3707,6.4306,6.4934,6.5473,6.5892,6.6191,6.658,6.6879,6.7299,6.7359,6.7479,6.7958,6.8377,6.8435,6.8704,6.9004,6.9243,6.9363,6.9512,6.9722,7.0021,7.029,7.0141,7.0051,7.0051,7.0051,7.0171,7.032,7.035,7.053,7.053,7.062,7.0679,7.0769,7.0889,7.0919,7.0919,7.0919,7.0919,7.0919,2.8301,2.8301,2.8301,2.832,2.8398,2.873,2.8937,2.916,2.9785,3.0176,3.0351,3.0664,3.0888,3.0928,3.0928,3.0928,3.0928,3.0928,3.0928,3.1015,3.1229,3.1444,3.1629,3.2518,3.3452,3.4186,3.4654,3.5177,3.5766,3.5951,3.6239,3.685,3.7214,3.7577,3.7998,3.8485,3.8901,3.9279,3.9678,4.0428,4.133,4.1638,4.2341,4.3783,4.429,4.4886,4.5553,4.591,4.617,4.6336,4.6739,4.7095,4.7324,4.785,4.8463,4.9065,4.9658,5.0503,5.1521,5.2752,5.3791,5.4391,5.5535,5.6451,5.6709,5.757,5.8576,5.9465,6.0405,6.1373,6.2098,6.275,6.3348,6.3977,6.4216,6.4515,6.4994,6.5622,6.6071,6.6221,6.661,6.7029,6.7089,6.7628,6.7868,6.8197,6.8615,6.8974,6.9093,6.9303,6.9453,6.9692,6.9991,7.0111,7.029,7.038,7.062,7.056,7.047,7.05,7.05,7.0649,7.0739,7.0799,7.0829,7.0889,7.0919,7.0919,7.0919,7.0919,7.0919,7.0919,7.0919,7.0919,7.0919,2.8301,2.8301,2.8301,2.8476,2.875,2.8859,2.9297,2.9844,3.0078,3.041,3.0684,3.084,3.0928,3.0928,3.0928,3.0928,3.0928,3.0928,3.0928,3.0986,3.1289,3.1594,3.2008,3.2995,3.3791,3.4309,3.4667,3.5098,3.5541,3.5757,3.6095,3.6514,3.685,3.7335,3.7878,3.8268,3.8626,3.9028,3.9854,4.0531,4.1205,4.2136,4.2914,4.3578,4.4561,4.5134,4.5483,4.5999,4.6271,4.6331,4.6874,4.7205,4.7265,4.785,4.8489,4.9114,4.9714,5.0773,5.2218,5.3226,5.4214,5.536,5.5993,5.668,5.7398,5.7945,5.9042,6.0233,6.1083,6.1669,6.2636,6.3378,6.4216,6.5263,6.5413,6.5503,6.5772,6.6311,6.6729,6.6759,6.6909,6.7208,6.7628,6.7958,6.8257,6.8704,6.9243,6.9722,6.9752,7.0021,7.026,7.044,7.0649,7.0709,7.0799,7.0829,7.0859,7.0829,7.0799,7.0769,7.0769,7.0799,7.0859,7.0889,7.0859,7.0889,7.0919,7.0919,7.0919,7.0919,7.0919,7.0919,7.0919,7.0919,7.0919,2.8301,2.8301,2.8301,2.8535,2.8898,2.9094,2.957,3.0156,3.041,3.0625,3.0888,3.0928,3.0928,3.0928,3.0928,3.0928,3.0928,3.0928,3.0996,3.1269,3.1797,3.2172,3.2521,3.3282,3.386,3.4339,3.4706,3.5087,3.5387,3.5603,3.5849,3.6208,3.6514,3.6972,3.7426,3.7991,3.8462,3.895,3.9748,4.0558,4.165,4.2404,4.3167,4.3842,4.4817,4.5392,4.5726,4.609,4.6296,4.6421,4.6845,4.7205,4.7265,4.7821,4.8568,4.9414,5.006,5.1206,5.2827,5.3754,5.4636,5.5703,5.625,5.6852,5.7686,5.835,5.948,6.0879,6.1379,6.2083,6.2964,6.3887,6.4874,6.5742,6.6251,6.64,6.64,6.6729,6.6969,6.7029,6.7238,6.7538,6.8017,6.8466,6.8914,6.9393,6.9931,7.0231,7.038,7.0739,7.0919,7.0919,7.0919,7.0889,7.0859,7.0889,7.0919,7.0919,7.0919,7.0919,7.0919,7.0919,7.0919,7.0919,7.0919,7.0919,7.0919,7.0919,7.0919,7.0919,7.0919,7.0919,7.0919,7.0919,7.0919,2.8301,2.8301,2.8367,2.8594,2.9043,2.9481,2.9902,3.0312,3.0713,3.0888,3.0928,3.0928,3.0928,3.0928,3.0928,3.0928,3.0928,3.0996,3.1328,3.1777,3.2344,3.2746,3.2886,3.3161,3.3709,3.426,3.4673,3.4984,3.5232,3.5356,3.5603,3.5963,3.627,3.6575,3.7106,3.7673,3.8392,3.9038,3.9726,4.0854,4.2138,4.2713,4.3274,4.4172,4.489,4.5605,4.6029,4.6301,4.6301,4.6361,4.6904,4.7205,4.7324,4.7935,4.8834,4.989,5.0685,5.1861,5.338,5.4197,5.4997,5.5903,5.6336,5.6938,5.7974,5.8929,6.0034,6.1291,6.1821,6.2527,6.3442,6.4455,6.5383,6.6131,6.667,6.6939,6.6999,6.6999,6.6999,6.7119,6.7688,6.7958,6.8496,6.9155,6.9961,6.9961,7.044,7.056,7.0679,7.0799,7.0919,7.0919,7.0919,7.0919,7.0889,7.0919,7.0919,7.0919,7.0919,7.0919,7.0919,7.0919,7.0919,7.0919,7.0919,7.0919,7.0919,7.0919,7.0919,7.0919,7.0919,7.0919,7.0919,7.0919,7.0919,2.8301,2.832,2.8625,2.9043,2.95,2.9883,3.0312,3.0723,3.084,3.0928,3.0928,3.0928,3.0928,3.0928,3.0928,3.0928,3.0996,3.1289,3.1777,3.25,3.2656,3.3008,3.3203,3.3336,3.3603,3.4047,3.436,3.4673,3.4984,3.5294,3.5572,3.588,3.6208,3.6597,3.6975,3.7859,3.8628,3.9209,4.0155,4.1283,4.2412,4.3004,4.3528,4.4347,4.4963,4.5605,4.615,4.6296,4.6446,4.6691,4.6993,4.7294,4.7748,4.859,4.9461,5.0212,5.1314,5.2471,5.3518,5.4337,5.5113,5.622,5.6851,5.7684,5.8871,5.9801,6.0794,6.1733,6.2292,6.3119,6.4367,6.5293,6.5981,6.655,6.6849,6.6999,6.6999,6.7029,6.7238,6.7628,6.7958,6.8407,6.9333,6.9664,7.0201,7.056,7.0739,7.0889,7.0919,7.0919,7.0919,7.0919,7.0919,7.0919,7.0919,7.0919,7.0919,7.0919,7.0919,7.0919,7.0919,7.0919,7.0919,7.0919,7.0919,7.0919,7.0919,7.0919,7.0919,7.0919,7.0919,7.0919,7.0919,7.0919,7.0919,2.8301,2.834,2.8723,2.918,2.9637,3.0019,3.0469,3.0869,3.0928,3.0928,3.0928,3.0928,3.0928,3.0928,3.0928,3.0976,3.1309,3.1855,3.2344,3.2773,3.2969,3.3203,3.3328,3.3418,3.3576,3.3922,3.4235,3.4579,3.4922,3.5232,3.5479,3.5695,3.6147,3.6602,3.7028,3.7946,3.8874,3.9761,4.0482,4.1516,4.2763,4.3161,4.3857,4.4594,4.5147,4.5605,4.6235,4.6296,4.6541,4.6874,4.7142,4.7508,4.8121,4.8996,4.9867,5.0883,5.1669,5.2916,5.3874,5.4475,5.5254,5.6764,5.7194,5.8261,5.9335,6.0355,6.1116,6.1969,6.2765,6.3713,6.5263,6.5712,6.6311,6.6819,6.6999,6.7119,6.7389,6.7479,6.7568,6.8077,6.8586,6.9185,6.9814,7.0173,7.041,7.0769,7.0799,7.0919,7.0919,7.0919,7.0919,7.0919,7.0919,7.0919,7.0919,7.0919,7.0919,7.0919,7.0919,7.0919,7.0919,7.0919,7.0919,7.0919,7.0919,7.0919,7.0919,7.0919,7.0949,7.0949,7.0949,7.0919,7.0949,7.1038,7.1009,2.832,2.8437,2.8848,2.9277,2.9715,3.0137,3.0547,3.0888,3.0928,3.0928,3.0928,3.0928,3.0928,3.0928,3.0996,3.125,3.1816,3.2324,3.2773,3.2969,3.3191,3.3391,3.3481,3.3544,3.3702,3.3985,3.4267,3.4579,3.4922,3.5201,3.5418,3.5531,3.6191,3.6721,3.7174,3.8003,3.9103,4.032,4.0684,4.1596,4.2934,4.3334,4.395,4.4994,4.527,4.5635,4.6175,4.6331,4.6601,4.7146,4.7282,4.7876,4.8681,4.9426,5.0267,5.1686,5.2326,5.3283,5.4208,5.4699,5.5425,5.7221,5.7538,5.8375,5.974,6.0706,6.1381,6.2204,6.312,6.4398,6.5772,6.6191,6.646,6.6849,6.6999,6.7298,6.7838,6.8077,6.8227,6.8526,6.9155,6.9784,7.0171,7.053,7.0739,7.0919,7.0919,7.0919,7.0919,7.0919,7.0919,7.0919,7.0919,7.0919,7.0919,7.0979,7.0979,7.1098,7.1068,7.1158,7.1218,7.1487,7.1547,7.0979,7.0919,7.0979,7.1128,7.1248,7.1248,7.1098,7.1308,7.1637,7.1547,7.1248,7.1278,2.8496,2.882,2.9305,2.9707,3.0117,3.0566,3.083,3.0908,3.0928,3.0928,3.0928,3.0928,3.0928,3.0976,3.1289,3.1816,3.2413,3.2866,3.307,3.3285,3.3461,3.3576,3.3796,3.3827,3.4016,3.4235,3.4423,3.461,3.4891,3.5201,3.5418,3.5624,3.6423,3.7018,3.7535,3.8533,3.9655,4.058,4.103,4.1947,4.2965,4.3451,4.3982,4.5147,4.53,4.5666,4.612,4.6301,4.6601,4.7168,4.7692,4.8537,4.9437,5.0224,5.1033,5.186,5.2977,5.3937,5.452,5.4875,5.5774,5.7045,5.791,5.8778,6.009,6.1175,6.188,6.2588,6.3773,6.5084,6.5891,6.643,6.6789,6.6969,6.7029,6.7329,6.7958,6.8435,6.9004,6.9453,6.9871,7.0171,7.05,7.0709,7.0829,7.0919,7.0919,7.0919,7.0919,7.0919,7.0919,7.0919,7.0919,7.0919,7.0919,7.1009,7.1098,7.1368,7.1487,7.1757,7.1936,7.2355,7.2265,7.1697,7.1338,7.1368,7.1487,7.1667,7.1876,7.1996,7.2265,7.2505,7.2265,7.2026,7.2235,2.8535,2.8937,2.9422,2.9833,3.0234,3.0684,3.0928,3.0928,3.0928,3.0928,3.0928,3.0928,3.0928,3.0996,3.1328,3.2083,3.2903,3.3514,3.3723,3.3922,3.3922,3.3985,3.4173,3.4141,3.436,3.4579,3.4673,3.4735,3.4922,3.5232,3.55,3.5861,3.6652,3.7282,3.7928,3.9112,4.0179,4.0871,4.1383,4.2125,4.3263,4.3576,4.4354,4.4994,4.5331,4.5666,4.615,4.6296,4.6601,4.7159,4.7744,4.8696,4.9793,5.0839,5.1633,5.2322,5.3399,5.4251,5.4692,5.5247,5.6402,5.7705,5.8571,5.9529,6.0584,6.1555,6.2499,6.3565,6.41,6.5413,6.643,6.6789,6.6939,6.6999,6.7029,6.7508,6.8256,6.8764,6.9482,7.0231,7.044,7.059,7.0709,7.0859,7.0889,7.0919,7.0919,7.0919,7.0919,7.0919,7.0919,7.1128,7.1218,7.1427,7.1487,7.1577,7.1607,7.1757,7.2026,7.2325,7.2535,7.2894,7.2774,7.2292,7.2086,7.2116,7.2176,7.2445,7.2684,7.2864,7.2864,7.2894,7.2864,7.2894,7.3073,2.8672,2.9082,2.9512,2.997,3.0371,3.081,3.1015,3.0995,3.1083,3.1112,3.1083,3.1102,3.1171,3.1358,3.184,3.2591,3.355,3.4158,3.4289,3.4329,3.4329,3.4392,3.4485,3.4548,3.4673,3.4953,3.5015,3.4984,3.5108,3.5387,3.5696,3.6205,3.6894,3.7685,3.8548,3.9642,4.0573,4.1158,4.1646,4.2316,4.32,4.3974,4.4625,4.5208,4.53,4.5635,4.621,4.6416,4.6792,4.7415,4.8094,4.8963,5.0145,5.13,5.2166,5.2754,5.3625,5.4251,5.4807,5.5821,5.6949,5.8079,5.9179,6.017,6.1079,6.1966,6.3032,6.4576,6.5203,6.5682,6.667,6.6969,6.6999,6.7029,6.7178,6.7597,6.8525,6.9243,6.9812,7.038,7.0769,7.0919,7.0919,7.0919,7.0919,7.0919,7.0919,7.0919,7.0919,7.0919,7.1009,7.1338,7.1607,7.1996,7.2206,7.2415,7.2415,7.2445,7.2744,7.3073,7.3193,7.3373,7.3193,7.3223,7.3343,7.3373,7.3283,7.3163,7.3402,7.3462,7.3343,7.3402,7.3672,7.3702,7.3762,2.9101,2.9559,2.997,3.0391,3.0849,3.1131,3.1238,3.1267,3.1527,3.1701,3.1614,3.1692,3.1863,3.2344,3.3095,3.3747,3.416,3.4394,3.4517,3.4517,3.4517,3.4641,3.4797,3.4828,3.5015,3.5294,3.5325,3.5356,3.5511,3.5779,3.6101,3.6655,3.7591,3.8463,3.9097,4.011,4.0872,4.1293,4.1678,4.2348,4.3263,4.4005,4.4656,4.5117,4.5361,4.5635,4.6266,4.6587,4.7124,4.7918,4.876,4.9841,5.1026,5.2005,5.2578,5.3197,5.3891,5.4578,5.4865,5.6081,5.7324,5.8395,5.9324,6.0227,6.1257,6.2349,6.3506,6.4785,6.5473,6.6131,6.6789,6.6969,6.6999,6.7178,6.7479,6.8016,6.8854,6.9453,7.0051,7.05,7.0859,7.0919,7.0919,7.0919,7.0919,7.0919,7.0919,7.0919,7.0979,7.1038,7.1368,7.1787,7.2295,7.2684,7.2924,7.3133,7.3253,7.3223,7.3462,7.3791,7.3851,7.4001,7.433,7.439,7.442,7.424,7.3941,7.3881,7.4091,7.4151,7.4091,7.433,7.4659,7.4634,7.4394,2.9893,3.0139,3.0548,3.0985,3.1412,3.1527,3.1585,3.1614,3.173,3.1816,3.1816,3.1787,3.2199,3.2913,3.37,3.4278,3.4654,3.4859,3.4953,3.4953,3.4984,3.5046,3.5139,3.5201,3.5356,3.5603,3.5737,3.6059,3.6184,3.6341,3.6581,3.7272,3.8207,3.9063,3.9678,4.062,4.1184,4.171,4.2284,4.2957,4.3608,4.423,4.481,4.527,4.5483,4.5848,4.6316,4.6955,4.7494,4.823,4.9208,5.0319,5.1241,5.2089,5.2803,5.3379,5.4131,5.4743,5.5255,5.6741,5.7871,5.8885,5.9876,6.0963,6.1759,6.2735,6.3832,6.4875,6.5592,6.6281,6.6819,6.6969,6.6999,6.7178,6.7658,6.8256,6.8914,6.9572,7.0141,7.056,7.0919,7.0919,7.0919,7.0919,7.0919,7.0919,7.0919,7.0949,7.1128,7.1368,7.1816,7.2415,7.2924,7.3432,7.3672,7.3881,7.4121,7.4151,7.4151,7.442,7.448,7.4659,7.4873,7.4903,7.4719,7.4569,7.445,7.445,7.451,7.4693,7.4869,7.4903,7.4903,7.4873,7.4693,3.0863,3.0903,3.1188,3.1486,3.1816,3.1874,3.1932,3.1932,3.2018,3.2018,3.2099,3.231,3.2858,3.3537,3.4258,3.478,3.5025,3.5356,3.5479,3.5541,3.5603,3.5665,3.5695,3.5695,3.5788,3.6003,3.6024,3.642,3.6966,3.7294,3.7578,3.7998,3.8912,3.9634,4.0302,4.0995,4.1614,4.2125,4.2949,4.3459,4.3833,4.4415,4.4902,4.53,4.5635,4.5939,4.6346,4.7227,4.787,4.8512,4.9666,5.076,5.1658,5.2283,5.2987,5.3592,5.4311,5.5054,5.5971,5.7279,5.8475,5.9464,6.046,6.1465,6.2086,6.3091,6.41,6.4934,6.5892,6.646,6.6849,6.6999,6.6999,6.7268,6.7777,6.8345,6.8974,6.9722,7.029,7.0649,7.0919,7.0919,7.0919,7.0919,7.0919,7.0919,7.0949,7.0979,7.1338,7.1727,7.2385,7.3043,7.3612,7.4091,7.424,7.448,7.4779,7.4903,7.4903,7.4903,7.4779,7.4779,7.4839,7.4903,7.4903,7.4809,7.4659,7.4779,7.4903,7.4903,7.4903,7.4903,7.4903,7.4903,7.4903,3.1918,3.1883,3.1803,3.1805,3.1845,3.2133,3.2248,3.2277,3.2526,3.2661,3.2827,3.3496,3.4166,3.4663,3.5066,3.5335,3.5418,3.5695,3.5819,3.5993,3.6147,3.6208,3.6208,3.6208,3.627,3.6361,3.6508,3.6979,3.7644,3.8485,3.8738,3.9119,3.9762,4.0282,4.0845,4.1514,4.2157,4.2696,4.3389,4.374,4.402,4.4477,4.4994,4.5331,4.5635,4.5969,4.6351,4.748,4.8349,4.8932,5.0125,5.1263,5.2103,5.2447,5.3048,5.3924,5.4508,5.5393,5.6658,5.7627,5.8563,5.9494,6.0609,6.1732,6.2145,6.3624,6.4576,6.5084,6.6041,6.6729,6.6969,6.6999,6.6999,6.7238,6.7777,6.8465,6.9153,6.9991,7.05,7.0799,7.0919,7.0919,7.0919,7.0919,7.0919,7.0919,7.0979,7.1038,7.1816,7.2295,7.3013,7.3672,7.43,7.4693,7.4753,7.4903,7.4903,7.4903,7.4903,7.4903,7.4873,7.4903,7.4903,7.4903,7.4903,7.4903,7.4903,7.4903,7.4903,7.4903,7.4903,7.4903,7.4903,7.4903,7.4903,3.272,3.2987,3.2928,3.2677,3.2354,3.2498,3.2555,3.2612,3.2869,3.3293,3.373,3.4644,3.5191,3.5435,3.5823,3.6024,3.6055,3.6147,3.6208,3.6239,3.6361,3.6392,3.6423,3.6514,3.6484,3.6814,3.7191,3.7857,3.8678,3.9462,4.0088,4.0475,4.0724,4.1027,4.1505,4.2093,4.2728,4.3263,4.367,4.3927,4.4477,4.484,4.527,4.5605,4.5939,4.632,4.6889,4.8029,4.881,4.9626,5.0664,5.165,5.2443,5.2588,5.3258,5.4246,5.4824,5.5879,5.7154,5.8068,5.8916,6.0374,6.1348,6.1969,6.2204,6.3803,6.4696,6.5353,6.6191,6.6939,6.6999,6.6999,6.7029,6.7238,6.7717,6.8435,6.9183,6.9991,7.059,7.0799,7.0889,7.0919,7.0919,7.0919,7.0919,7.0919,7.1009,7.1248,7.2056,7.2744,7.3373,7.4001,7.4634,7.4843,7.4903,7.4903,7.4903,7.4903,7.4903,7.4903,7.4903,7.4903,7.4903,7.4903,7.4903,7.4903,7.4903,7.4903,7.4903,7.4903,7.4903,7.4903,7.4903,7.4903,7.4903,3.3289,3.3586,3.3586,3.3353,3.2983,3.2983,3.2955,3.3012,3.3211,3.3769,3.455,3.5338,3.5776,3.5967,3.6201,3.6392,3.6392,3.6484,3.6514,3.6637,3.6758,3.6819,3.688,3.7054,3.7362,3.7606,3.8073,3.8799,3.9663,4.0397,4.0873,4.1274,4.1646,4.1847,4.2038,4.2728,4.3357,4.3701,4.3982,4.4199,4.4748,4.5117,4.5453,4.5806,4.6265,4.6758,4.7424,4.8472,4.9369,5.0142,5.0992,5.1922,5.2404,5.2861,5.344,5.4323,5.528,5.6252,5.748,5.8734,5.9612,6.09,6.1673,6.2028,6.2559,6.3832,6.4905,6.5114,6.6161,6.6999,6.6999,6.6999,6.6999,6.7148,6.7688,6.8315,6.8974,6.9722,7.032,7.0799,7.0859,7.0919,7.0919,7.0919,7.0919,7.0919,7.0949,7.1427,7.2415,7.3013,7.3492,7.4151,7.4779,7.4903,7.4903,7.4903,7.4903,7.4903,7.4903,7.4903,7.4903,7.4903,7.4903,7.4903,7.4903,7.4903,7.4903,7.4903,7.4903,7.4903,7.4903,7.4903,7.4903,7.4903,7.4903,3.3643,3.3586,3.3664,3.3643,3.3614,3.3579,3.353,3.3515,3.3685,3.4239,3.5144,3.5691,3.6148,3.6426,3.6707,3.6758,3.6758,3.6911,3.7002,3.7154,3.7456,3.7758,3.7892,3.8027,3.8227,3.8864,3.9238,3.973,4.0527,4.1085,4.1475,4.1956,4.2411,4.2633,4.2451,4.3271,4.374,4.3833,4.4137,4.4501,4.484,4.5208,4.5544,4.6102,4.6595,4.712,4.8013,4.8942,4.9821,5.0442,5.1392,5.2156,5.2527,5.2922,5.3589,5.4486,5.5243,5.6338,5.7798,5.96,6.0659,6.1195,6.1821,6.2087,6.2529,6.3743,6.4994,6.5084,6.6221,6.6879,6.6999,6.6999,6.6999,6.7119,6.7597,6.8197,6.8824,6.9333,6.9931,7.0679,7.0859,7.0919,7.0919,7.0919,7.0919,7.0919,7.0919,7.1547,7.2565,7.3133,7.3522,7.424,7.4903,7.4903,7.4903,7.4903,7.4903,7.4903,7.4903,7.4903,7.4903,7.4903,7.4903,7.4903,7.4903,7.4903,7.4903,7.4903,7.4903,7.4903,7.4903,7.4903,7.4903,7.4903,7.4903,3.4534,3.4562,3.473,3.4791,3.4674,3.3946,3.3586,3.377,3.4504,3.5446,3.6384,3.6937,3.7372,3.7646,3.7637,3.7659,3.769,3.7758,3.79,3.79,3.8118,3.8178,3.8388,3.8694,3.9001,3.9323,3.9851,4.0635,4.1254,4.1802,4.237,4.2862,4.3083,4.3389,4.3396,4.374,4.3888,4.4137,4.447,4.481,4.5147,4.5477,4.593,4.6565,4.6993,4.7641,4.8562,4.9546,5.0141,5.0768,5.1726,5.2249,5.265,5.3044,5.38,5.4738,5.5617,5.7365,5.8949,6.0477,6.1105,6.1493,6.1821,6.2175,6.2558,6.401,6.4755,6.5263,6.6251,6.6819,6.6999,6.6999,6.6999,6.6999,6.7418,6.8016,6.8585,6.9004,6.9542,7.044,7.0919,7.0919,7.0919,7.0919,7.0919,7.0919,7.0919,7.1577,7.2535,7.2954,7.3373,7.427,7.4903,7.4903,7.4903,7.4903,7.4903,7.4903,7.4903,7.4903,7.4903,7.4903,7.4903,7.4903,7.4903,7.4903,7.4903,7.4903,7.4903,7.4903,7.4903,7.4903,7.4903,7.4903,7.4903,3.5146,3.5146,3.5312,3.5395,3.5285,3.4562,3.432,3.468,3.5729,3.6685,3.731,3.7836,3.8148,3.832,3.838,3.838,3.838,3.838,3.838,3.841,3.8507,3.8642,3.8927,3.9387,3.9962,4.025,4.0998,4.1814,4.2225,4.2691,4.3091,4.3396,4.3709,4.3864,4.4013,4.4137,4.4168,4.444,4.4717,4.5025,4.5361,4.577,4.6213,4.6881,4.7529,4.8173,4.9226,5.0004,5.0549,5.1268,5.1846,5.2342,5.2742,5.3349,5.4011,5.4851,5.6437,5.8221,5.9946,6.0774,6.1314,6.1791,6.2028,6.2263,6.2823,6.4099,6.4725,6.5353,6.6311,6.6759,6.6999,6.6999,6.6999,6.6999,6.7208,6.7777,6.8286,6.8704,6.9363,7.026,7.0889,7.0889,7.0919,7.0919,7.0919,7.0919,7.0919,7.1667,7.2385,7.2744,7.3193,7.4091,7.4779,7.4873,7.4873,7.4903,7.4903,7.4903,7.4903,7.4903,7.4903,7.4903,7.4903,7.4903,7.4903,7.4903,7.4903,7.4903,7.4903,7.4903,7.4903,7.4903,7.4903,7.4903,7.4903,3.5423,3.545,3.545,3.5505,3.5478,3.5568,3.5832,3.6274,3.7164,3.7567,3.7715,3.826,3.8559,3.853,3.853,3.8589,3.8649,3.8649,3.8649,3.8731,3.9044,3.9294,3.9778,4.0377,4.0983,4.1784,4.2358,4.2646,4.3224,4.3365,4.3576,4.3764,4.395,4.423,4.447,4.4563,4.4563,4.4779,4.4994,4.53,4.5635,4.5942,4.6504,4.7224,4.8005,4.8853,4.9808,5.0507,5.109,5.1659,5.2187,5.2465,5.2926,5.3592,5.4161,5.5293,5.7203,5.8935,6.0362,6.0984,6.1464,6.1939,6.2116,6.2322,6.2941,6.4069,6.4785,6.5383,6.6191,6.664,6.6999,6.6999,6.6999,6.6999,6.6999,6.7478,6.8047,6.8616,6.9243,6.9961,7.062,7.0829,7.0889,7.0919,7.0919,7.0919,7.0949,7.1158,7.1846,7.2415,7.2954,7.3821,7.439,7.4783,7.4843,7.4903,7.4903,7.4903,7.4903,7.4903,7.4903,7.4903,7.4903,7.4903,7.4903,7.4903,7.4903,7.4903,7.4903,7.4903,7.4903,7.4903,7.4903,7.4903,7.4903,3.6141,3.6332,3.6499,3.663,3.6746,3.7395,3.7547,3.7302,3.7506,3.7841,3.8489,3.8885,3.9131,3.939,3.9603,3.9609,3.9638,3.9697,3.9697,3.979,3.9956,4.0336,4.0881,4.1485,4.2122,4.2505,4.2903,4.3301,4.363,4.3826,4.4005,4.4137,4.4354,4.4656,4.481,4.4933,4.5055,4.5178,4.5361,4.5624,4.5991,4.6373,4.7007,4.7775,4.8559,4.9467,5.0292,5.0807,5.1372,5.1908,5.2342,5.265,5.3014,5.3948,5.4892,5.6816,5.8297,5.9517,6.0539,6.1194,6.1672,6.2057,6.2292,6.2614,6.3234,6.4038,6.4904,6.5443,6.6191,6.6789,6.6999,6.6999,6.6999,6.6999,6.7029,6.7298,6.7838,6.8407,6.9064,6.9901,7.053,7.0859,7.0889,7.0919,7.0919,7.0919,7.0949,7.1068,7.1368,7.1936,7.2654,7.3522,7.4091,7.445,7.4813,7.4903,7.4903,7.4903,7.4903,7.4903,7.4903,7.4903,7.4903,7.4903,7.4903,7.4903,7.4903,7.4903,7.4903,7.4903,7.4903,7.4903,7.4903,7.4903,7.4903,3.6712,3.6874,3.7012,3.7328,3.7848,3.8624,3.8826,3.8641,3.8622,3.8922,3.935,3.955,3.9779,3.9925,4.0071,4.0135,4.0106,4.01,4.0171,4.0522,4.0911,4.1244,4.1774,4.2374,4.2813,4.3151,4.3457,4.3833,4.4075,4.4323,4.4532,4.4717,4.4933,4.5055,4.5239,4.5422,4.5574,4.5666,4.5782,4.6002,4.6429,4.6881,4.7506,4.8378,4.9197,4.995,5.0701,5.112,5.1591,5.2059,5.2404,5.283,5.34,5.4471,5.5929,5.766,5.8703,5.9781,6.0777,6.1315,6.1732,6.2087,6.2439,6.2731,6.3382,6.4157,6.4695,6.5233,6.6221,6.6999,6.6999,6.6999,6.6999,6.6999,6.7089,6.7209,6.7688,6.8196,6.8974,6.9873,7.038,7.0769,7.0919,7.0919,7.0919,7.0919,7.0919,7.0949,7.1218,7.1667,7.2385,7.3193,7.3732,7.418,7.451,7.4873,7.4903,7.4903,7.4903,7.4903,7.4903,7.4903,7.4903,7.4903,7.4903,7.4903,7.4903,7.4903,7.4903,7.4903,7.4903,7.4903,7.4903,7.4903,7.4903,3.72,3.7277,3.7298,3.8047,3.891,3.9486,3.993,4.0316,4.0292,4.0281,4.0194,4.0223,4.0246,4.0275,4.0392,4.0397,4.0497,4.0544,4.0834,4.1135,4.149,4.1945,4.2502,4.3075,4.3576,4.39,4.4168,4.444,4.447,4.4687,4.4963,4.53,4.5331,4.5422,4.5605,4.5787,4.6013,4.6309,4.6249,4.6348,4.6937,4.7361,4.7918,4.9064,4.974,5.029,5.0959,5.1434,5.181,5.2125,5.2523,5.2983,5.3967,5.5273,5.6818,5.8039,5.9082,6.0074,6.0928,6.1464,6.1791,6.2116,6.241,6.2789,6.344,6.4306,6.4845,6.5233,6.6161,6.6849,6.6999,6.6999,6.6999,6.6999,6.7029,6.7089,6.7298,6.8016,6.9004,6.9812,7.047,7.0829,7.0919,7.0919,7.0919,7.0919,7.0919,7.0919,7.1038,7.1427,7.1966,7.2744,7.3253,7.3762,7.436,7.4693,7.4873,7.4903,7.4903,7.4903,7.4903,7.4903,7.4903,7.4903,7.4903,7.4903,7.4903,7.4903,7.4903,7.4903,7.4903,7.4903,7.4903,7.4903,7.4903,3.821,3.8443,3.8883,3.9688,4.0637,4.0807,4.1144,4.1631,4.1631,4.1086,4.0368,4.0479,4.0595,4.0653,4.0884,4.0942,4.1038,4.1354,4.1617,4.2096,4.2455,4.2885,4.3394,4.3999,4.4363,4.4614,4.484,4.4994,4.5055,4.5147,4.5208,4.5331,4.5514,4.5757,4.5873,4.6024,4.6406,4.6772,4.7023,4.6987,4.728,4.8257,4.9108,4.9665,5.0101,5.0736,5.1309,5.1685,5.209,5.2465,5.2799,5.344,5.4339,5.6087,5.7338,5.8333,5.952,6.0455,6.1107,6.1642,6.1998,6.2263,6.2556,6.2876,6.3498,6.4426,6.5084,6.5443,6.5981,6.661,6.6999,6.6999,6.6999,6.6999,6.6999,6.6999,6.6999,6.7956,6.8974,6.9722,7.044,7.0739,7.0829,7.0919,7.0919,7.0919,7.0919,7.0919,7.0919,7.1128,7.1427,7.2086,7.2714,7.3283,7.4001,7.4514,7.4659,7.4839,7.4903,7.4903,7.4903,7.4903,7.4903,7.4903,7.4903,7.4903,7.4903,7.4903,7.4903,7.4903,7.4903,7.4903,7.4903,7.4903,7.4903,3.8831,3.9281,4.007,4.0734,4.1274,4.1545,4.184,4.2061,4.2082,4.1716,4.1144,4.1201,4.1311,4.1287,4.1541,4.1763,4.1885,4.2258,4.2768,4.3225,4.3535,4.3978,4.4457,4.4762,4.4866,4.5086,4.5208,4.5331,4.5483,4.5544,4.5544,4.5696,4.5939,4.6024,4.6079,4.6406,4.6772,4.7099,4.7649,4.7968,4.8024,4.8874,4.969,5.0147,5.0661,5.1214,5.1591,5.1965,5.2306,5.2891,5.341,5.3984,5.5007,5.6528,5.766,5.8563,5.9639,6.0893,6.1344,6.1761,6.2145,6.241,6.273,6.3079,6.3199,6.4066,6.4695,6.5114,6.6251,6.6939,6.6969,6.6999,6.6999,6.6999,6.6999,6.6999,6.7178,6.7747,6.8585,6.9303,6.9961,7.053,7.0679,7.0919,7.0919,7.0919,7.0919,7.0919,7.0919,7.0919,7.1158,7.1457,7.2086,7.2984,7.3851,7.424,7.445,7.4629,7.4809,7.4903,7.4903,7.4903,7.4903,7.4903,7.4903,7.4903,7.4903,7.4903,7.4903,7.4903,7.4903,7.4903,7.4903,7.4903,7.4903,3.957,4.0238,4.1128,4.1598,4.1669,4.2142,4.2369,4.2369,4.2365,4.2312,4.2256,4.2227,4.2227,4.211,4.2205,4.2524,4.2839,4.3095,4.3718,4.4165,4.4484,4.4682,4.4988,4.5306,4.5392,4.5453,4.5544,4.5696,4.5848,4.5878,4.5969,4.624,4.6296,4.6321,4.6522,4.6853,4.7205,4.7811,4.8446,4.9197,4.9412,4.9551,5.0204,5.0776,5.1183,5.1497,5.1903,5.2245,5.2523,5.3136,5.3921,5.466,5.5589,5.6911,5.7925,5.8914,5.9989,6.0958,6.1494,6.185,6.2234,6.2585,6.2934,6.3109,6.3257,6.3647,6.4306,6.5144,6.6251,6.6879,6.6909,6.6999,6.6999,6.6999,6.6999,6.6999,6.7268,6.7598,6.8226,6.8914,6.9542,7.0141,7.05,7.0739,7.0919,7.0919,7.0919,7.0919,7.0919,7.0919,7.1009,7.1158,7.1487,7.2445,7.3373,7.4001,7.421,7.445,7.4629,7.4779,7.4903,7.4903,7.4903,7.4903,7.4903,7.4903,7.4903,7.4903,7.4903,7.4903,7.4903,7.4903,7.4903,7.4903,7.4903,4.1483,4.2398,4.26,4.293,4.3337,4.3515,4.3568,4.354,4.3513,4.3404,4.3182,4.3073,4.2821,4.2163,4.2602,4.2975,4.3362,4.3801,4.4136,4.447,4.5009,4.5219,4.5398,4.5666,4.5878,4.5939,4.5999,4.612,4.609,4.615,4.621,4.6271,4.6296,4.6471,4.6954,4.7286,4.7736,4.8452,4.9126,4.9779,5.0521,5.0661,5.0802,5.1157,5.1403,5.1716,5.2032,5.2342,5.2707,5.3258,5.4069,5.5067,5.6166,5.7321,5.8364,5.9353,6.0458,6.1109,6.1643,6.1969,6.2322,6.2644,6.2934,6.3108,6.3287,6.3558,6.4246,6.4904,6.5861,6.652,6.67,6.6909,6.6999,6.6999,6.6999,6.6999,6.7119,6.7508,6.8017,6.8615,6.9275,6.9784,7.0203,7.05,7.0919,7.0919,7.0919,7.0919,7.0919,7.0919,7.0919,7.1009,7.1098,7.1457,7.2176,7.3462,7.3911,7.421,7.451,7.4749,7.4903,7.4903,7.4903,7.4903,7.4903,7.4903,7.4903,7.4903,7.4903,7.4903,7.4903,7.4903,7.4903,7.4903,7.4903]}]]